<?xml version="1.0" encoding="UTF-8" standalone="no" ?>
<gpx xmlns="http://www.topografix.com/GPX/1/1" xmlns:xsi="http://www.w3.org/2001/XMLSchema-instance" xsi:schemaLocation="http://www.topografix.com/GPX/1/1 http://www.topografix.com/GPX/1/1/gpx.xsd" version="1.1" creator="VisuGPX - https://www.visugpx.com">
  <metadata>
    <name>Yssingeaux 2022-10-05 16:48:12</name>
  </metadata>
  <trk>
    <name><![CDATA[2022-10-05 16:48:12]]></name>
    <trkseg>
      <trkpt lat="45.11999" lon="4.14057">
        <ele>948.48</ele>
        <time>2022-10-05T07:19:38Z</time>
      </trkpt>
      <trkpt lat="45.11998" lon="4.14049">
        <ele>952.32</ele>
        <time>2022-10-05T07:19:44Z</time>
      </trkpt>
      <trkpt lat="45.11996" lon="4.14022">
        <ele>949.92</ele>
        <time>2022-10-05T07:20:00Z</time>
      </trkpt>
      <trkpt lat="45.11992" lon="4.13997">
        <ele>950.4</ele>
        <time>2022-10-05T07:20:21Z</time>
      </trkpt>
      <trkpt lat="45.11981" lon="4.13956">
        <ele>948</ele>
        <time>2022-10-05T07:20:45Z</time>
      </trkpt>
      <trkpt lat="45.1196" lon="4.13921">
        <ele>945.59</ele>
        <time>2022-10-05T07:21:08Z</time>
      </trkpt>
      <trkpt lat="45.11941" lon="4.13895">
        <ele>943.67</ele>
        <time>2022-10-05T07:21:29Z</time>
      </trkpt>
      <trkpt lat="45.11922" lon="4.13871">
        <ele>940.79</ele>
        <time>2022-10-05T07:21:49Z</time>
      </trkpt>
      <trkpt lat="45.119" lon="4.13845">
        <ele>938.38</ele>
        <time>2022-10-05T07:22:11Z</time>
      </trkpt>
      <trkpt lat="45.11886" lon="4.13823">
        <ele>936.94</ele>
        <time>2022-10-05T07:22:30Z</time>
      </trkpt>
      <trkpt lat="45.11871" lon="4.138">
        <ele>934.54</ele>
        <time>2022-10-05T07:22:48Z</time>
      </trkpt>
      <trkpt lat="45.11859" lon="4.13764">
        <ele>932.62</ele>
        <time>2022-10-05T07:23:10Z</time>
      </trkpt>
      <trkpt lat="45.11853" lon="4.13728">
        <ele>931.65</ele>
        <time>2022-10-05T07:23:31Z</time>
      </trkpt>
      <trkpt lat="45.11847" lon="4.13694">
        <ele>928.77</ele>
        <time>2022-10-05T07:23:51Z</time>
      </trkpt>
      <trkpt lat="45.11831" lon="4.13664">
        <ele>925.41</ele>
        <time>2022-10-05T07:24:12Z</time>
      </trkpt>
      <trkpt lat="45.11823" lon="4.13638">
        <ele>923</ele>
        <time>2022-10-05T07:24:29Z</time>
      </trkpt>
      <trkpt lat="45.11812" lon="4.13615">
        <ele>923.48</ele>
        <time>2022-10-05T07:24:44Z</time>
      </trkpt>
      <trkpt lat="45.118" lon="4.13596">
        <ele>924.45</ele>
        <time>2022-10-05T07:25:00Z</time>
      </trkpt>
      <trkpt lat="45.11799" lon="4.13593">
        <ele>923.96</ele>
        <time>2022-10-05T07:25:03Z</time>
      </trkpt>
      <trkpt lat="45.11786" lon="4.13563">
        <ele>924.93</ele>
        <time>2022-10-05T07:25:24Z</time>
      </trkpt>
      <trkpt lat="45.11779" lon="4.13537">
        <ele>924.93</ele>
        <time>2022-10-05T07:25:41Z</time>
      </trkpt>
      <trkpt lat="45.11771" lon="4.13505">
        <ele>922.52</ele>
        <time>2022-10-05T07:26:00Z</time>
      </trkpt>
      <trkpt lat="45.11765" lon="4.1348">
        <ele>921.56</ele>
        <time>2022-10-05T07:26:16Z</time>
      </trkpt>
      <trkpt lat="45.11755" lon="4.13441">
        <ele>920.12</ele>
        <time>2022-10-05T07:26:38Z</time>
      </trkpt>
      <trkpt lat="45.11747" lon="4.13406">
        <ele>919.64</ele>
        <time>2022-10-05T07:26:57Z</time>
      </trkpt>
      <trkpt lat="45.11738" lon="4.13371">
        <ele>919.64</ele>
        <time>2022-10-05T07:27:16Z</time>
      </trkpt>
      <trkpt lat="45.11728" lon="4.13332">
        <ele>916.75</ele>
        <time>2022-10-05T07:27:38Z</time>
      </trkpt>
      <trkpt lat="45.11715" lon="4.13299">
        <ele>913.87</ele>
        <time>2022-10-05T07:27:59Z</time>
      </trkpt>
      <trkpt lat="45.11707" lon="4.1328">
        <ele>912.91</ele>
        <time>2022-10-05T07:28:12Z</time>
      </trkpt>
      <trkpt lat="45.11695" lon="4.13248">
        <ele>912.43</ele>
        <time>2022-10-05T07:28:31Z</time>
      </trkpt>
      <trkpt lat="45.11682" lon="4.13215">
        <ele>913.39</ele>
        <time>2022-10-05T07:28:51Z</time>
      </trkpt>
      <trkpt lat="45.11671" lon="4.13186">
        <ele>915.79</ele>
        <time>2022-10-05T07:29:09Z</time>
      </trkpt>
      <trkpt lat="45.11659" lon="4.13159">
        <ele>920.12</ele>
        <time>2022-10-05T07:29:28Z</time>
      </trkpt>
      <trkpt lat="45.11651" lon="4.13142">
        <ele>922.04</ele>
        <time>2022-10-05T07:29:44Z</time>
      </trkpt>
      <trkpt lat="45.11653" lon="4.13136">
        <ele>923.48</ele>
        <time>2022-10-05T07:29:58Z</time>
      </trkpt>
      <trkpt lat="45.11674" lon="4.13131">
        <ele>921.56</ele>
        <time>2022-10-05T07:30:16Z</time>
      </trkpt>
      <trkpt lat="45.11694" lon="4.13149">
        <ele>919.64</ele>
        <time>2022-10-05T07:30:34Z</time>
      </trkpt>
      <trkpt lat="45.11709" lon="4.13157">
        <ele>920.12</ele>
        <time>2022-10-05T07:30:47Z</time>
      </trkpt>
      <trkpt lat="45.1172" lon="4.13135">
        <ele>927.81</ele>
        <time>2022-10-05T07:31:03Z</time>
      </trkpt>
      <trkpt lat="45.11727" lon="4.13107">
        <ele>928.77</ele>
        <time>2022-10-05T07:31:21Z</time>
      </trkpt>
      <trkpt lat="45.1174" lon="4.13072">
        <ele>926.85</ele>
        <time>2022-10-05T07:31:42Z</time>
      </trkpt>
      <trkpt lat="45.11739" lon="4.1304">
        <ele>930.21</ele>
        <time>2022-10-05T07:32:00Z</time>
      </trkpt>
      <trkpt lat="45.11733" lon="4.13006">
        <ele>931.65</ele>
        <time>2022-10-05T07:32:19Z</time>
      </trkpt>
      <trkpt lat="45.11727" lon="4.12973">
        <ele>934.54</ele>
        <time>2022-10-05T07:32:38Z</time>
      </trkpt>
      <trkpt lat="45.11725" lon="4.1294">
        <ele>935.98</ele>
        <time>2022-10-05T07:32:56Z</time>
      </trkpt>
      <trkpt lat="45.11734" lon="4.12905">
        <ele>936.94</ele>
        <time>2022-10-05T07:33:15Z</time>
      </trkpt>
      <trkpt lat="45.11756" lon="4.12875">
        <ele>936.94</ele>
        <time>2022-10-05T07:33:38Z</time>
      </trkpt>
      <trkpt lat="45.11777" lon="4.12846">
        <ele>936.94</ele>
        <time>2022-10-05T07:34:00Z</time>
      </trkpt>
      <trkpt lat="45.11782" lon="4.12812">
        <ele>937.42</ele>
        <time>2022-10-05T07:34:19Z</time>
      </trkpt>
      <trkpt lat="45.11781" lon="4.12773">
        <ele>938.38</ele>
        <time>2022-10-05T07:34:38Z</time>
      </trkpt>
      <trkpt lat="45.1178" lon="4.1273">
        <ele>939.83</ele>
        <time>2022-10-05T07:35:02Z</time>
      </trkpt>
      <trkpt lat="45.11769" lon="4.12689">
        <ele>939.83</ele>
        <time>2022-10-05T07:35:24Z</time>
      </trkpt>
      <trkpt lat="45.11759" lon="4.12658">
        <ele>939.35</ele>
        <time>2022-10-05T07:35:43Z</time>
      </trkpt>
      <trkpt lat="45.11748" lon="4.12616">
        <ele>939.83</ele>
        <time>2022-10-05T07:36:07Z</time>
      </trkpt>
      <trkpt lat="45.11733" lon="4.12576">
        <ele>937.9</ele>
        <time>2022-10-05T07:36:30Z</time>
      </trkpt>
      <trkpt lat="45.11718" lon="4.12549">
        <ele>938.86</ele>
        <time>2022-10-05T07:36:49Z</time>
      </trkpt>
      <trkpt lat="45.11712" lon="4.12535">
        <ele>938.38</ele>
        <time>2022-10-05T07:37:03Z</time>
      </trkpt>
      <trkpt lat="45.11693" lon="4.1251">
        <ele>938.38</ele>
        <time>2022-10-05T07:37:23Z</time>
      </trkpt>
      <trkpt lat="45.11672" lon="4.12477">
        <ele>939.35</ele>
        <time>2022-10-05T07:37:47Z</time>
      </trkpt>
      <trkpt lat="45.11647" lon="4.12445">
        <ele>939.35</ele>
        <time>2022-10-05T07:38:12Z</time>
      </trkpt>
      <trkpt lat="45.11624" lon="4.12416">
        <ele>938.86</ele>
        <time>2022-10-05T07:38:34Z</time>
      </trkpt>
      <trkpt lat="45.11614" lon="4.12381">
        <ele>938.86</ele>
        <time>2022-10-05T07:38:54Z</time>
      </trkpt>
      <trkpt lat="45.11614" lon="4.12338">
        <ele>939.83</ele>
        <time>2022-10-05T07:39:16Z</time>
      </trkpt>
      <trkpt lat="45.11614" lon="4.12291">
        <ele>941.27</ele>
        <time>2022-10-05T07:39:40Z</time>
      </trkpt>
      <trkpt lat="45.11608" lon="4.12252">
        <ele>942.23</ele>
        <time>2022-10-05T07:40:04Z</time>
      </trkpt>
      <trkpt lat="45.11606" lon="4.12232">
        <ele>941.75</ele>
        <time>2022-10-05T07:40:24Z</time>
      </trkpt>
      <trkpt lat="45.11602" lon="4.12203">
        <ele>941.27</ele>
        <time>2022-10-05T07:40:45Z</time>
      </trkpt>
      <trkpt lat="45.11608" lon="4.12172">
        <ele>940.79</ele>
        <time>2022-10-05T07:41:02Z</time>
      </trkpt>
      <trkpt lat="45.11617" lon="4.12146">
        <ele>940.31</ele>
        <time>2022-10-05T07:41:23Z</time>
      </trkpt>
      <trkpt lat="45.11617" lon="4.12146">
        <ele>940.79</ele>
        <time>2022-10-05T07:41:41Z</time>
      </trkpt>
      <trkpt lat="45.11618" lon="4.12144">
        <ele>941.27</ele>
        <time>2022-10-05T07:42:00Z</time>
      </trkpt>
      <trkpt lat="45.11619" lon="4.1214">
        <ele>941.75</ele>
        <time>2022-10-05T07:42:26Z</time>
      </trkpt>
      <trkpt lat="45.11627" lon="4.12119">
        <ele>940.31</ele>
        <time>2022-10-05T07:42:43Z</time>
      </trkpt>
      <trkpt lat="45.11636" lon="4.12088">
        <ele>939.83</ele>
        <time>2022-10-05T07:43:01Z</time>
      </trkpt>
      <trkpt lat="45.11634" lon="4.12056">
        <ele>934.06</ele>
        <time>2022-10-05T07:43:18Z</time>
      </trkpt>
      <trkpt lat="45.1163" lon="4.12024">
        <ele>929.73</ele>
        <time>2022-10-05T07:43:36Z</time>
      </trkpt>
      <trkpt lat="45.1163" lon="4.11992">
        <ele>925.89</ele>
        <time>2022-10-05T07:43:53Z</time>
      </trkpt>
      <trkpt lat="45.1164" lon="4.11972">
        <ele>926.85</ele>
        <time>2022-10-05T07:44:07Z</time>
      </trkpt>
      <trkpt lat="45.11652" lon="4.11951">
        <ele>924.45</ele>
        <time>2022-10-05T07:44:23Z</time>
      </trkpt>
      <trkpt lat="45.11664" lon="4.11935">
        <ele>923.48</ele>
        <time>2022-10-05T07:44:39Z</time>
      </trkpt>
      <trkpt lat="45.11673" lon="4.11921">
        <ele>923</ele>
        <time>2022-10-05T07:44:55Z</time>
      </trkpt>
      <trkpt lat="45.11689" lon="4.11904">
        <ele>927.33</ele>
        <time>2022-10-05T07:45:11Z</time>
      </trkpt>
      <trkpt lat="45.11702" lon="4.11888">
        <ele>932.62</ele>
        <time>2022-10-05T07:45:25Z</time>
      </trkpt>
      <trkpt lat="45.11715" lon="4.11871">
        <ele>932.14</ele>
        <time>2022-10-05T07:45:42Z</time>
      </trkpt>
      <trkpt lat="45.11728" lon="4.11856">
        <ele>935.02</ele>
        <time>2022-10-05T07:45:56Z</time>
      </trkpt>
      <trkpt lat="45.11744" lon="4.11841">
        <ele>939.83</ele>
        <time>2022-10-05T07:46:11Z</time>
      </trkpt>
      <trkpt lat="45.11759" lon="4.11821">
        <ele>945.11</ele>
        <time>2022-10-05T07:46:25Z</time>
      </trkpt>
      <trkpt lat="45.11765" lon="4.11791">
        <ele>948.96</ele>
        <time>2022-10-05T07:46:42Z</time>
      </trkpt>
      <trkpt lat="45.11769" lon="4.11762">
        <ele>950.88</ele>
        <time>2022-10-05T07:46:59Z</time>
      </trkpt>
      <trkpt lat="45.11772" lon="4.11749">
        <ele>954.73</ele>
        <time>2022-10-05T07:47:16Z</time>
      </trkpt>
      <trkpt lat="45.11773" lon="4.11745">
        <ele>954.73</ele>
        <time>2022-10-05T07:47:22Z</time>
      </trkpt>
      <trkpt lat="45.11777" lon="4.11743">
        <ele>954.73</ele>
        <time>2022-10-05T07:47:26Z</time>
      </trkpt>
      <trkpt lat="45.11789" lon="4.11737">
        <ele>954.73</ele>
        <time>2022-10-05T07:47:37Z</time>
      </trkpt>
      <trkpt lat="45.11804" lon="4.11724">
        <ele>952.32</ele>
        <time>2022-10-05T07:47:54Z</time>
      </trkpt>
      <trkpt lat="45.11808" lon="4.11717">
        <ele>950.4</ele>
        <time>2022-10-05T07:48:06Z</time>
      </trkpt>
      <trkpt lat="45.11827" lon="4.11696">
        <ele>952.8</ele>
        <time>2022-10-05T07:48:25Z</time>
      </trkpt>
      <trkpt lat="45.11846" lon="4.11685">
        <ele>954.25</ele>
        <time>2022-10-05T07:48:42Z</time>
      </trkpt>
      <trkpt lat="45.11868" lon="4.11679">
        <ele>952.8</ele>
        <time>2022-10-05T07:48:59Z</time>
      </trkpt>
      <trkpt lat="45.11892" lon="4.11673">
        <ele>950.88</ele>
        <time>2022-10-05T07:49:16Z</time>
      </trkpt>
      <trkpt lat="45.11914" lon="4.11672">
        <ele>949.92</ele>
        <time>2022-10-05T07:49:33Z</time>
      </trkpt>
      <trkpt lat="45.11944" lon="4.11675">
        <ele>952.8</ele>
        <time>2022-10-05T07:49:54Z</time>
      </trkpt>
      <trkpt lat="45.11967" lon="4.11659">
        <ele>955.21</ele>
        <time>2022-10-05T07:50:14Z</time>
      </trkpt>
      <trkpt lat="45.11988" lon="4.11636">
        <ele>955.69</ele>
        <time>2022-10-05T07:50:32Z</time>
      </trkpt>
      <trkpt lat="45.12011" lon="4.11612">
        <ele>956.17</ele>
        <time>2022-10-05T07:50:53Z</time>
      </trkpt>
      <trkpt lat="45.12022" lon="4.1158">
        <ele>955.69</ele>
        <time>2022-10-05T07:51:13Z</time>
      </trkpt>
      <trkpt lat="45.12027" lon="4.11557">
        <ele>956.17</ele>
        <time>2022-10-05T07:51:27Z</time>
      </trkpt>
      <trkpt lat="45.1204" lon="4.11523">
        <ele>956.17</ele>
        <time>2022-10-05T07:51:48Z</time>
      </trkpt>
      <trkpt lat="45.12052" lon="4.11499">
        <ele>957.13</ele>
        <time>2022-10-05T07:52:04Z</time>
      </trkpt>
      <trkpt lat="45.12053" lon="4.11497">
        <ele>957.13</ele>
        <time>2022-10-05T07:52:05Z</time>
      </trkpt>
      <trkpt lat="45.12056" lon="4.11489">
        <ele>958.09</ele>
        <time>2022-10-05T07:52:10Z</time>
      </trkpt>
      <trkpt lat="45.12062" lon="4.11476">
        <ele>959.05</ele>
        <time>2022-10-05T07:52:25Z</time>
      </trkpt>
      <trkpt lat="45.12073" lon="4.11449">
        <ele>961.94</ele>
        <time>2022-10-05T07:52:42Z</time>
      </trkpt>
      <trkpt lat="45.12087" lon="4.11424">
        <ele>964.34</ele>
        <time>2022-10-05T07:53:00Z</time>
      </trkpt>
      <trkpt lat="45.1209" lon="4.11395">
        <ele>966.74</ele>
        <time>2022-10-05T07:53:18Z</time>
      </trkpt>
      <trkpt lat="45.12084" lon="4.11367">
        <ele>969.63</ele>
        <time>2022-10-05T07:53:37Z</time>
      </trkpt>
      <trkpt lat="45.12071" lon="4.11345">
        <ele>970.59</ele>
        <time>2022-10-05T07:53:55Z</time>
      </trkpt>
      <trkpt lat="45.12052" lon="4.11327">
        <ele>972.99</ele>
        <time>2022-10-05T07:54:15Z</time>
      </trkpt>
      <trkpt lat="45.1204" lon="4.11319">
        <ele>975.39</ele>
        <time>2022-10-05T07:54:32Z</time>
      </trkpt>
      <trkpt lat="45.12041" lon="4.11319">
        <ele>975.88</ele>
        <time>2022-10-05T07:54:51Z</time>
      </trkpt>
      <trkpt lat="45.12029" lon="4.11317">
        <ele>975.39</ele>
        <time>2022-10-05T07:55:16Z</time>
      </trkpt>
      <trkpt lat="45.12026" lon="4.11316">
        <ele>976.36</ele>
        <time>2022-10-05T07:55:30Z</time>
      </trkpt>
      <trkpt lat="45.12028" lon="4.11316">
        <ele>975.88</ele>
        <time>2022-10-05T07:55:32Z</time>
      </trkpt>
      <trkpt lat="45.12041" lon="4.11316">
        <ele>974.43</ele>
        <time>2022-10-05T07:55:50Z</time>
      </trkpt>
      <trkpt lat="45.12041" lon="4.11316">
        <ele>975.88</ele>
        <time>2022-10-05T07:55:55Z</time>
      </trkpt>
      <trkpt lat="45.12014" lon="4.11312">
        <ele>975.39</ele>
        <time>2022-10-05T07:56:15Z</time>
      </trkpt>
      <trkpt lat="45.11992" lon="4.11304">
        <ele>977.32</ele>
        <time>2022-10-05T07:56:32Z</time>
      </trkpt>
      <trkpt lat="45.11968" lon="4.11296">
        <ele>978.28</ele>
        <time>2022-10-05T07:56:51Z</time>
      </trkpt>
      <trkpt lat="45.11946" lon="4.11284">
        <ele>982.12</ele>
        <time>2022-10-05T07:57:10Z</time>
      </trkpt>
      <trkpt lat="45.11944" lon="4.11271">
        <ele>983.57</ele>
        <time>2022-10-05T07:57:17Z</time>
      </trkpt>
      <trkpt lat="45.11958" lon="4.11246">
        <ele>983.57</ele>
        <time>2022-10-05T07:57:34Z</time>
      </trkpt>
      <trkpt lat="45.11979" lon="4.11225">
        <ele>985.01</ele>
        <time>2022-10-05T07:57:53Z</time>
      </trkpt>
      <trkpt lat="45.11988" lon="4.11219">
        <ele>985.01</ele>
        <time>2022-10-05T07:58:01Z</time>
      </trkpt>
      <trkpt lat="45.1199" lon="4.11219">
        <ele>984.53</ele>
        <time>2022-10-05T07:58:03Z</time>
      </trkpt>
      <trkpt lat="45.11992" lon="4.11218">
        <ele>985.49</ele>
        <time>2022-10-05T07:58:20Z</time>
      </trkpt>
      <trkpt lat="45.11998" lon="4.11217">
        <ele>983.57</ele>
        <time>2022-10-05T07:58:38Z</time>
      </trkpt>
      <trkpt lat="45.12012" lon="4.11215">
        <ele>978.76</ele>
        <time>2022-10-05T07:58:51Z</time>
      </trkpt>
      <trkpt lat="45.12029" lon="4.1121">
        <ele>972.51</ele>
        <time>2022-10-05T07:59:07Z</time>
      </trkpt>
      <trkpt lat="45.12054" lon="4.11203">
        <ele>968.67</ele>
        <time>2022-10-05T07:59:26Z</time>
      </trkpt>
      <trkpt lat="45.12077" lon="4.11194">
        <ele>968.18</ele>
        <time>2022-10-05T07:59:42Z</time>
      </trkpt>
      <trkpt lat="45.12097" lon="4.11175">
        <ele>975.88</ele>
        <time>2022-10-05T07:59:58Z</time>
      </trkpt>
      <trkpt lat="45.12111" lon="4.11138">
        <ele>982.12</ele>
        <time>2022-10-05T08:00:19Z</time>
      </trkpt>
      <trkpt lat="45.121" lon="4.11107">
        <ele>984.53</ele>
        <time>2022-10-05T08:00:38Z</time>
      </trkpt>
      <trkpt lat="45.12092" lon="4.11082">
        <ele>987.89</ele>
        <time>2022-10-05T08:00:54Z</time>
      </trkpt>
      <trkpt lat="45.12078" lon="4.1106">
        <ele>988.85</ele>
        <time>2022-10-05T08:01:12Z</time>
      </trkpt>
      <trkpt lat="45.12056" lon="4.11052">
        <ele>988.85</ele>
        <time>2022-10-05T08:01:31Z</time>
      </trkpt>
      <trkpt lat="45.12034" lon="4.11048">
        <ele>989.81</ele>
        <time>2022-10-05T08:01:49Z</time>
      </trkpt>
      <trkpt lat="45.12009" lon="4.11048">
        <ele>992.22</ele>
        <time>2022-10-05T08:02:08Z</time>
      </trkpt>
      <trkpt lat="45.11985" lon="4.11049">
        <ele>995.1</ele>
        <time>2022-10-05T08:02:28Z</time>
      </trkpt>
      <trkpt lat="45.11964" lon="4.11055">
        <ele>996.06</ele>
        <time>2022-10-05T08:02:46Z</time>
      </trkpt>
      <trkpt lat="45.11943" lon="4.11062">
        <ele>998.95</ele>
        <time>2022-10-05T08:03:04Z</time>
      </trkpt>
      <trkpt lat="45.11935" lon="4.11064">
        <ele>999.43</ele>
        <time>2022-10-05T08:03:11Z</time>
      </trkpt>
      <trkpt lat="45.11919" lon="4.11055">
        <ele>1000.87</ele>
        <time>2022-10-05T08:03:28Z</time>
      </trkpt>
      <trkpt lat="45.11912" lon="4.11023">
        <ele>1006.64</ele>
        <time>2022-10-05T08:03:48Z</time>
      </trkpt>
      <trkpt lat="45.119" lon="4.10998">
        <ele>1009.52</ele>
        <time>2022-10-05T08:04:08Z</time>
      </trkpt>
      <trkpt lat="45.11883" lon="4.10973">
        <ele>1012.89</ele>
        <time>2022-10-05T08:04:29Z</time>
      </trkpt>
      <trkpt lat="45.11865" lon="4.1095">
        <ele>1015.29</ele>
        <time>2022-10-05T08:04:50Z</time>
      </trkpt>
      <trkpt lat="45.11846" lon="4.1093">
        <ele>1018.17</ele>
        <time>2022-10-05T08:05:11Z</time>
      </trkpt>
      <trkpt lat="45.11831" lon="4.10915">
        <ele>1020.58</ele>
        <time>2022-10-05T08:05:28Z</time>
      </trkpt>
      <trkpt lat="45.11827" lon="4.10912">
        <ele>1022.5</ele>
        <time>2022-10-05T08:05:41Z</time>
      </trkpt>
      <trkpt lat="45.11823" lon="4.10906">
        <ele>1024.9</ele>
        <time>2022-10-05T08:06:00Z</time>
      </trkpt>
      <trkpt lat="45.11822" lon="4.10886">
        <ele>1025.86</ele>
        <time>2022-10-05T08:06:14Z</time>
      </trkpt>
      <trkpt lat="45.11818" lon="4.10862">
        <ele>1024.9</ele>
        <time>2022-10-05T08:06:31Z</time>
      </trkpt>
      <trkpt lat="45.11818" lon="4.10858">
        <ele>1024.9</ele>
        <time>2022-10-05T08:06:34Z</time>
      </trkpt>
      <trkpt lat="45.11811" lon="4.10851">
        <ele>1028.27</ele>
        <time>2022-10-05T08:06:50Z</time>
      </trkpt>
      <trkpt lat="45.11812" lon="4.1085">
        <ele>1029.71</ele>
        <time>2022-10-05T08:07:01Z</time>
      </trkpt>
      <trkpt lat="45.11826" lon="4.10835">
        <ele>1029.71</ele>
        <time>2022-10-05T08:07:16Z</time>
      </trkpt>
      <trkpt lat="45.11836" lon="4.10823">
        <ele>1029.71</ele>
        <time>2022-10-05T08:07:31Z</time>
      </trkpt>
      <trkpt lat="45.11836" lon="4.10825">
        <ele>1030.19</ele>
        <time>2022-10-05T08:07:37Z</time>
      </trkpt>
      <trkpt lat="45.11821" lon="4.10844">
        <ele>1029.71</ele>
        <time>2022-10-05T08:07:55Z</time>
      </trkpt>
      <trkpt lat="45.11817" lon="4.10855">
        <ele>1029.23</ele>
        <time>2022-10-05T08:08:03Z</time>
      </trkpt>
      <trkpt lat="45.11819" lon="4.10883">
        <ele>1026.83</ele>
        <time>2022-10-05T08:08:19Z</time>
      </trkpt>
      <trkpt lat="45.11818" lon="4.1091">
        <ele>1026.34</ele>
        <time>2022-10-05T08:08:36Z</time>
      </trkpt>
      <trkpt lat="45.11805" lon="4.10918">
        <ele>1025.38</ele>
        <time>2022-10-05T08:08:51Z</time>
      </trkpt>
      <trkpt lat="45.11786" lon="4.10921">
        <ele>1019.62</ele>
        <time>2022-10-05T08:09:07Z</time>
      </trkpt>
      <trkpt lat="45.11776" lon="4.10922">
        <ele>1017.21</ele>
        <time>2022-10-05T08:09:21Z</time>
      </trkpt>
      <trkpt lat="45.11755" lon="4.10923">
        <ele>1015.77</ele>
        <time>2022-10-05T08:09:39Z</time>
      </trkpt>
      <trkpt lat="45.11731" lon="4.10928">
        <ele>1015.77</ele>
        <time>2022-10-05T08:09:57Z</time>
      </trkpt>
      <trkpt lat="45.1169" lon="4.10919">
        <ele>1019.13</ele>
        <time>2022-10-05T08:10:30Z</time>
      </trkpt>
      <trkpt lat="45.11679" lon="4.10902">
        <ele>1024.42</ele>
        <time>2022-10-05T08:10:44Z</time>
      </trkpt>
      <trkpt lat="45.11671" lon="4.10888">
        <ele>1029.71</ele>
        <time>2022-10-05T08:10:56Z</time>
      </trkpt>
      <trkpt lat="45.1167" lon="4.10886">
        <ele>1030.19</ele>
        <time>2022-10-05T08:10:58Z</time>
      </trkpt>
      <trkpt lat="45.11658" lon="4.10869">
        <ele>1034.04</ele>
        <time>2022-10-05T08:11:14Z</time>
      </trkpt>
      <trkpt lat="45.11647" lon="4.10857">
        <ele>1035.96</ele>
        <time>2022-10-05T08:11:27Z</time>
      </trkpt>
      <trkpt lat="45.11633" lon="4.10855">
        <ele>1035.96</ele>
        <time>2022-10-05T08:11:41Z</time>
      </trkpt>
      <trkpt lat="45.11619" lon="4.10849">
        <ele>1036.44</ele>
        <time>2022-10-05T08:11:57Z</time>
      </trkpt>
      <trkpt lat="45.11606" lon="4.10844">
        <ele>1034.52</ele>
        <time>2022-10-05T08:12:11Z</time>
      </trkpt>
      <trkpt lat="45.11593" lon="4.10843">
        <ele>1033.07</ele>
        <time>2022-10-05T08:12:26Z</time>
      </trkpt>
      <trkpt lat="45.11582" lon="4.10841">
        <ele>1032.11</ele>
        <time>2022-10-05T08:12:40Z</time>
      </trkpt>
      <trkpt lat="45.11571" lon="4.10838">
        <ele>1033.55</ele>
        <time>2022-10-05T08:12:53Z</time>
      </trkpt>
      <trkpt lat="45.11559" lon="4.10823">
        <ele>1037.88</ele>
        <time>2022-10-05T08:13:08Z</time>
      </trkpt>
      <trkpt lat="45.11547" lon="4.10811">
        <ele>1046.05</ele>
        <time>2022-10-05T08:13:21Z</time>
      </trkpt>
      <trkpt lat="45.11534" lon="4.108">
        <ele>1052.3</ele>
        <time>2022-10-05T08:13:34Z</time>
      </trkpt>
      <trkpt lat="45.11522" lon="4.10787">
        <ele>1060.95</ele>
        <time>2022-10-05T08:13:49Z</time>
      </trkpt>
      <trkpt lat="45.11517" lon="4.10764">
        <ele>1065.28</ele>
        <time>2022-10-05T08:14:05Z</time>
      </trkpt>
      <trkpt lat="45.11514" lon="4.10738">
        <ele>1069.6</ele>
        <time>2022-10-05T08:14:23Z</time>
      </trkpt>
      <trkpt lat="45.11513" lon="4.10713">
        <ele>1071.53</ele>
        <time>2022-10-05T08:14:41Z</time>
      </trkpt>
      <trkpt lat="45.11513" lon="4.10708">
        <ele>1071.53</ele>
        <time>2022-10-05T08:14:45Z</time>
      </trkpt>
      <trkpt lat="45.11513" lon="4.10679">
        <ele>1076.81</ele>
        <time>2022-10-05T08:15:04Z</time>
      </trkpt>
      <trkpt lat="45.11515" lon="4.10664">
        <ele>1077.78</ele>
        <time>2022-10-05T08:15:20Z</time>
      </trkpt>
      <trkpt lat="45.11517" lon="4.10664">
        <ele>1075.85</ele>
        <time>2022-10-05T08:15:39Z</time>
      </trkpt>
      <trkpt lat="45.11514" lon="4.10658">
        <ele>1077.29</ele>
        <time>2022-10-05T08:15:59Z</time>
      </trkpt>
      <trkpt lat="45.11504" lon="4.1065">
        <ele>1077.29</ele>
        <time>2022-10-05T08:16:13Z</time>
      </trkpt>
      <trkpt lat="45.11485" lon="4.10639">
        <ele>1074.41</ele>
        <time>2022-10-05T08:16:32Z</time>
      </trkpt>
      <trkpt lat="45.11475" lon="4.10641">
        <ele>1072.49</ele>
        <time>2022-10-05T08:16:47Z</time>
      </trkpt>
      <trkpt lat="45.11465" lon="4.10646">
        <ele>1067.68</ele>
        <time>2022-10-05T08:17:00Z</time>
      </trkpt>
      <trkpt lat="45.11457" lon="4.1065">
        <ele>1067.2</ele>
        <time>2022-10-05T08:17:07Z</time>
      </trkpt>
      <trkpt lat="45.11436" lon="4.10661">
        <ele>1065.28</ele>
        <time>2022-10-05T08:17:25Z</time>
      </trkpt>
      <trkpt lat="45.11423" lon="4.10664">
        <ele>1063.36</ele>
        <time>2022-10-05T08:17:42Z</time>
      </trkpt>
      <trkpt lat="45.11416" lon="4.10667">
        <ele>1063.36</ele>
        <time>2022-10-05T08:17:59Z</time>
      </trkpt>
      <trkpt lat="45.11406" lon="4.10669">
        <ele>1060.95</ele>
        <time>2022-10-05T08:18:11Z</time>
      </trkpt>
      <trkpt lat="45.11395" lon="4.10669">
        <ele>1057.11</ele>
        <time>2022-10-05T08:18:21Z</time>
      </trkpt>
      <trkpt lat="45.11393" lon="4.10668">
        <ele>1056.15</ele>
        <time>2022-10-05T08:18:23Z</time>
      </trkpt>
      <trkpt lat="45.11377" lon="4.10667">
        <ele>1050.86</ele>
        <time>2022-10-05T08:18:37Z</time>
      </trkpt>
      <trkpt lat="45.11362" lon="4.10662">
        <ele>1048.94</ele>
        <time>2022-10-05T08:18:50Z</time>
      </trkpt>
      <trkpt lat="45.11346" lon="4.1065">
        <ele>1049.42</ele>
        <time>2022-10-05T08:19:04Z</time>
      </trkpt>
      <trkpt lat="45.11332" lon="4.10642">
        <ele>1048.94</ele>
        <time>2022-10-05T08:19:15Z</time>
      </trkpt>
      <trkpt lat="45.1132" lon="4.10635">
        <ele>1048.45</ele>
        <time>2022-10-05T08:19:26Z</time>
      </trkpt>
      <trkpt lat="45.113" lon="4.10621">
        <ele>1049.9</ele>
        <time>2022-10-05T08:19:43Z</time>
      </trkpt>
      <trkpt lat="45.11295" lon="4.10618">
        <ele>1049.9</ele>
        <time>2022-10-05T08:19:47Z</time>
      </trkpt>
      <trkpt lat="45.1128" lon="4.10616">
        <ele>1048.45</ele>
        <time>2022-10-05T08:20:02Z</time>
      </trkpt>
      <trkpt lat="45.11265" lon="4.10615">
        <ele>1045.09</ele>
        <time>2022-10-05T08:20:16Z</time>
      </trkpt>
      <trkpt lat="45.11245" lon="4.10612">
        <ele>1043.17</ele>
        <time>2022-10-05T08:20:30Z</time>
      </trkpt>
      <trkpt lat="45.1123" lon="4.10614">
        <ele>1037.4</ele>
        <time>2022-10-05T08:20:43Z</time>
      </trkpt>
      <trkpt lat="45.11207" lon="4.10612">
        <ele>1037.88</ele>
        <time>2022-10-05T08:20:59Z</time>
      </trkpt>
      <trkpt lat="45.11188" lon="4.1061">
        <ele>1040.76</ele>
        <time>2022-10-05T08:21:13Z</time>
      </trkpt>
      <trkpt lat="45.11174" lon="4.1061">
        <ele>1039.8</ele>
        <time>2022-10-05T08:21:24Z</time>
      </trkpt>
      <trkpt lat="45.11155" lon="4.1061">
        <ele>1041.25</ele>
        <time>2022-10-05T08:21:39Z</time>
      </trkpt>
      <trkpt lat="45.11148" lon="4.10598">
        <ele>1042.21</ele>
        <time>2022-10-05T08:21:50Z</time>
      </trkpt>
      <trkpt lat="45.11138" lon="4.10573">
        <ele>1041.25</ele>
        <time>2022-10-05T08:22:07Z</time>
      </trkpt>
      <trkpt lat="45.11127" lon="4.10556">
        <ele>1039.32</ele>
        <time>2022-10-05T08:22:20Z</time>
      </trkpt>
      <trkpt lat="45.11112" lon="4.10552">
        <ele>1037.4</ele>
        <time>2022-10-05T08:22:36Z</time>
      </trkpt>
      <trkpt lat="45.11108" lon="4.10553">
        <ele>1036.92</ele>
        <time>2022-10-05T08:22:40Z</time>
      </trkpt>
      <trkpt lat="45.11094" lon="4.10561">
        <ele>1035</ele>
        <time>2022-10-05T08:22:52Z</time>
      </trkpt>
      <trkpt lat="45.11078" lon="4.10567">
        <ele>1031.63</ele>
        <time>2022-10-05T08:23:06Z</time>
      </trkpt>
      <trkpt lat="45.11078" lon="4.10566">
        <ele>1031.63</ele>
        <time>2022-10-05T08:23:07Z</time>
      </trkpt>
      <trkpt lat="45.11083" lon="4.10533">
        <ele>1033.07</ele>
        <time>2022-10-05T08:23:27Z</time>
      </trkpt>
      <trkpt lat="45.11087" lon="4.10497">
        <ele>1031.63</ele>
        <time>2022-10-05T08:23:48Z</time>
      </trkpt>
      <trkpt lat="45.11096" lon="4.10483">
        <ele>1033.55</ele>
        <time>2022-10-05T08:24:02Z</time>
      </trkpt>
      <trkpt lat="45.11097" lon="4.10483">
        <ele>1034.04</ele>
        <time>2022-10-05T08:24:16Z</time>
      </trkpt>
      <trkpt lat="45.11099" lon="4.10482">
        <ele>1035.96</ele>
        <time>2022-10-05T08:24:31Z</time>
      </trkpt>
      <trkpt lat="45.11109" lon="4.10485">
        <ele>1033.55</ele>
        <time>2022-10-05T08:24:47Z</time>
      </trkpt>
      <trkpt lat="45.11108" lon="4.10485">
        <ele>1033.55</ele>
        <time>2022-10-05T08:24:59Z</time>
      </trkpt>
      <trkpt lat="45.11102" lon="4.10486">
        <ele>1032.59</ele>
        <time>2022-10-05T08:25:04Z</time>
      </trkpt>
      <trkpt lat="45.11097" lon="4.10483">
        <ele>1031.63</ele>
        <time>2022-10-05T08:25:10Z</time>
      </trkpt>
      <trkpt lat="45.11108" lon="4.10456">
        <ele>1031.15</ele>
        <time>2022-10-05T08:25:27Z</time>
      </trkpt>
      <trkpt lat="45.11119" lon="4.10432">
        <ele>1030.19</ele>
        <time>2022-10-05T08:25:44Z</time>
      </trkpt>
      <trkpt lat="45.11122" lon="4.10414">
        <ele>1029.71</ele>
        <time>2022-10-05T08:25:57Z</time>
      </trkpt>
      <trkpt lat="45.11116" lon="4.10406">
        <ele>1026.83</ele>
        <time>2022-10-05T08:26:12Z</time>
      </trkpt>
      <trkpt lat="45.11109" lon="4.10403">
        <ele>1023.94</ele>
        <time>2022-10-05T08:26:27Z</time>
      </trkpt>
      <trkpt lat="45.11108" lon="4.10402">
        <ele>1023.94</ele>
        <time>2022-10-05T08:26:28Z</time>
      </trkpt>
      <trkpt lat="45.11092" lon="4.10389">
        <ele>1020.1</ele>
        <time>2022-10-05T08:26:44Z</time>
      </trkpt>
      <trkpt lat="45.11079" lon="4.10375">
        <ele>1019.13</ele>
        <time>2022-10-05T08:26:57Z</time>
      </trkpt>
      <trkpt lat="45.11072" lon="4.10368">
        <ele>1018.65</ele>
        <time>2022-10-05T08:27:14Z</time>
      </trkpt>
      <trkpt lat="45.11069" lon="4.10372">
        <ele>1019.13</ele>
        <time>2022-10-05T08:27:35Z</time>
      </trkpt>
      <trkpt lat="45.11067" lon="4.10371">
        <ele>1019.13</ele>
        <time>2022-10-05T08:27:39Z</time>
      </trkpt>
      <trkpt lat="45.11065" lon="4.1037">
        <ele>1019.13</ele>
        <time>2022-10-05T08:27:41Z</time>
      </trkpt>
      <trkpt lat="45.11046" lon="4.10341">
        <ele>1019.62</ele>
        <time>2022-10-05T08:28:02Z</time>
      </trkpt>
      <trkpt lat="45.1103" lon="4.10315">
        <ele>1019.62</ele>
        <time>2022-10-05T08:28:21Z</time>
      </trkpt>
      <trkpt lat="45.11017" lon="4.10282">
        <ele>1019.13</ele>
        <time>2022-10-05T08:28:40Z</time>
      </trkpt>
      <trkpt lat="45.11024" lon="4.10255">
        <ele>1013.85</ele>
        <time>2022-10-05T08:28:57Z</time>
      </trkpt>
      <trkpt lat="45.11025" lon="4.10246">
        <ele>1010.96</ele>
        <time>2022-10-05T08:29:03Z</time>
      </trkpt>
      <trkpt lat="45.11024" lon="4.1024">
        <ele>1010.48</ele>
        <time>2022-10-05T08:29:07Z</time>
      </trkpt>
      <trkpt lat="45.11015" lon="4.10227">
        <ele>1006.16</ele>
        <time>2022-10-05T08:29:22Z</time>
      </trkpt>
      <trkpt lat="45.11007" lon="4.10214">
        <ele>1000.39</ele>
        <time>2022-10-05T08:29:37Z</time>
      </trkpt>
      <trkpt lat="45.10999" lon="4.10197">
        <ele>996.54</ele>
        <time>2022-10-05T08:29:50Z</time>
      </trkpt>
      <trkpt lat="45.10983" lon="4.10177">
        <ele>994.62</ele>
        <time>2022-10-05T08:30:07Z</time>
      </trkpt>
      <trkpt lat="45.10968" lon="4.10162">
        <ele>995.58</ele>
        <time>2022-10-05T08:30:21Z</time>
      </trkpt>
      <trkpt lat="45.10963" lon="4.10159">
        <ele>994.62</ele>
        <time>2022-10-05T08:30:25Z</time>
      </trkpt>
      <trkpt lat="45.10947" lon="4.10156">
        <ele>988.85</ele>
        <time>2022-10-05T08:30:39Z</time>
      </trkpt>
      <trkpt lat="45.10935" lon="4.10158">
        <ele>978.76</ele>
        <time>2022-10-05T08:30:52Z</time>
      </trkpt>
      <trkpt lat="45.10919" lon="4.10164">
        <ele>972.51</ele>
        <time>2022-10-05T08:31:06Z</time>
      </trkpt>
      <trkpt lat="45.10897" lon="4.1016">
        <ele>975.39</ele>
        <time>2022-10-05T08:31:22Z</time>
      </trkpt>
      <trkpt lat="45.10875" lon="4.10145">
        <ele>982.6</ele>
        <time>2022-10-05T08:31:38Z</time>
      </trkpt>
      <trkpt lat="45.10858" lon="4.10138">
        <ele>982.6</ele>
        <time>2022-10-05T08:31:55Z</time>
      </trkpt>
      <trkpt lat="45.10857" lon="4.10137">
        <ele>981.64</ele>
        <time>2022-10-05T08:31:57Z</time>
      </trkpt>
      <trkpt lat="45.10846" lon="4.10139">
        <ele>973.47</ele>
        <time>2022-10-05T08:32:10Z</time>
      </trkpt>
      <trkpt lat="45.10834" lon="4.10143">
        <ele>968.18</ele>
        <time>2022-10-05T08:32:23Z</time>
      </trkpt>
      <trkpt lat="45.10821" lon="4.10145">
        <ele>964.34</ele>
        <time>2022-10-05T08:32:36Z</time>
      </trkpt>
      <trkpt lat="45.10806" lon="4.10149">
        <ele>964.34</ele>
        <time>2022-10-05T08:32:49Z</time>
      </trkpt>
      <trkpt lat="45.10795" lon="4.10151">
        <ele>967.22</ele>
        <time>2022-10-05T08:33:10Z</time>
      </trkpt>
      <trkpt lat="45.10781" lon="4.10151">
        <ele>966.74</ele>
        <time>2022-10-05T08:33:19Z</time>
      </trkpt>
      <trkpt lat="45.10766" lon="4.1015">
        <ele>967.22</ele>
        <time>2022-10-05T08:33:35Z</time>
      </trkpt>
      <trkpt lat="45.1075" lon="4.10154">
        <ele>972.03</ele>
        <time>2022-10-05T08:33:47Z</time>
      </trkpt>
      <trkpt lat="45.10733" lon="4.10157">
        <ele>975.39</ele>
        <time>2022-10-05T08:34:02Z</time>
      </trkpt>
      <trkpt lat="45.10715" lon="4.10158">
        <ele>979.72</ele>
        <time>2022-10-05T08:34:14Z</time>
      </trkpt>
      <trkpt lat="45.10703" lon="4.10159">
        <ele>984.05</ele>
        <time>2022-10-05T08:34:29Z</time>
      </trkpt>
      <trkpt lat="45.10703" lon="4.10159">
        <ele>985.97</ele>
        <time>2022-10-05T08:34:45Z</time>
      </trkpt>
      <trkpt lat="45.10701" lon="4.10156">
        <ele>988.37</ele>
        <time>2022-10-05T08:35:14Z</time>
      </trkpt>
      <trkpt lat="45.10696" lon="4.1015">
        <ele>994.62</ele>
        <time>2022-10-05T08:35:55Z</time>
      </trkpt>
      <trkpt lat="45.10688" lon="4.10157">
        <ele>992.7</ele>
        <time>2022-10-05T08:36:10Z</time>
      </trkpt>
      <trkpt lat="45.10672" lon="4.10166">
        <ele>988.85</ele>
        <time>2022-10-05T08:36:27Z</time>
      </trkpt>
      <trkpt lat="45.1066" lon="4.10173">
        <ele>988.37</ele>
        <time>2022-10-05T08:36:41Z</time>
      </trkpt>
      <trkpt lat="45.10654" lon="4.10179">
        <ele>989.33</ele>
        <time>2022-10-05T08:37:03Z</time>
      </trkpt>
      <trkpt lat="45.10646" lon="4.10187">
        <ele>989.81</ele>
        <time>2022-10-05T08:37:16Z</time>
      </trkpt>
      <trkpt lat="45.10628" lon="4.10199">
        <ele>991.26</ele>
        <time>2022-10-05T08:37:32Z</time>
      </trkpt>
      <trkpt lat="45.10607" lon="4.10212">
        <ele>990.3</ele>
        <time>2022-10-05T08:37:51Z</time>
      </trkpt>
      <trkpt lat="45.10592" lon="4.10223">
        <ele>988.37</ele>
        <time>2022-10-05T08:38:05Z</time>
      </trkpt>
      <trkpt lat="45.10569" lon="4.10232">
        <ele>990.78</ele>
        <time>2022-10-05T08:38:21Z</time>
      </trkpt>
      <trkpt lat="45.10547" lon="4.1024">
        <ele>992.7</ele>
        <time>2022-10-05T08:38:37Z</time>
      </trkpt>
      <trkpt lat="45.10528" lon="4.10249">
        <ele>992.7</ele>
        <time>2022-10-05T08:38:54Z</time>
      </trkpt>
      <trkpt lat="45.10514" lon="4.10228">
        <ele>991.26</ele>
        <time>2022-10-05T08:39:11Z</time>
      </trkpt>
      <trkpt lat="45.10502" lon="4.10218">
        <ele>992.22</ele>
        <time>2022-10-05T08:39:25Z</time>
      </trkpt>
      <trkpt lat="45.10492" lon="4.1021">
        <ele>989.81</ele>
        <time>2022-10-05T08:39:38Z</time>
      </trkpt>
      <trkpt lat="45.10479" lon="4.10201">
        <ele>986.93</ele>
        <time>2022-10-05T08:39:54Z</time>
      </trkpt>
      <trkpt lat="45.10468" lon="4.10191">
        <ele>984.05</ele>
        <time>2022-10-05T08:40:09Z</time>
      </trkpt>
      <trkpt lat="45.10459" lon="4.10185">
        <ele>981.64</ele>
        <time>2022-10-05T08:40:22Z</time>
      </trkpt>
      <trkpt lat="45.10446" lon="4.10172">
        <ele>978.28</ele>
        <time>2022-10-05T08:40:39Z</time>
      </trkpt>
      <trkpt lat="45.10431" lon="4.10161">
        <ele>976.84</ele>
        <time>2022-10-05T08:40:55Z</time>
      </trkpt>
      <trkpt lat="45.10421" lon="4.10153">
        <ele>977.32</ele>
        <time>2022-10-05T08:41:07Z</time>
      </trkpt>
      <trkpt lat="45.1041" lon="4.10144">
        <ele>974.91</ele>
        <time>2022-10-05T08:41:22Z</time>
      </trkpt>
      <trkpt lat="45.10397" lon="4.10138">
        <ele>973.47</ele>
        <time>2022-10-05T08:41:38Z</time>
      </trkpt>
      <trkpt lat="45.10382" lon="4.10138">
        <ele>970.11</ele>
        <time>2022-10-05T08:41:54Z</time>
      </trkpt>
      <trkpt lat="45.1037" lon="4.10134">
        <ele>970.59</ele>
        <time>2022-10-05T08:42:08Z</time>
      </trkpt>
      <trkpt lat="45.10361" lon="4.10115">
        <ele>971.07</ele>
        <time>2022-10-05T08:42:24Z</time>
      </trkpt>
      <trkpt lat="45.10359" lon="4.10095">
        <ele>972.51</ele>
        <time>2022-10-05T08:42:38Z</time>
      </trkpt>
      <trkpt lat="45.10353" lon="4.10088">
        <ele>970.59</ele>
        <time>2022-10-05T08:42:55Z</time>
      </trkpt>
      <trkpt lat="45.10345" lon="4.10085">
        <ele>965.78</ele>
        <time>2022-10-05T08:43:09Z</time>
      </trkpt>
      <trkpt lat="45.10338" lon="4.10076">
        <ele>961.94</ele>
        <time>2022-10-05T08:43:24Z</time>
      </trkpt>
      <trkpt lat="45.10334" lon="4.10065">
        <ele>961.46</ele>
        <time>2022-10-05T08:43:37Z</time>
      </trkpt>
      <trkpt lat="45.10333" lon="4.10052">
        <ele>960.49</ele>
        <time>2022-10-05T08:43:53Z</time>
      </trkpt>
      <trkpt lat="45.10329" lon="4.10039">
        <ele>959.05</ele>
        <time>2022-10-05T08:44:09Z</time>
      </trkpt>
      <trkpt lat="45.10324" lon="4.10032">
        <ele>953.28</ele>
        <time>2022-10-05T08:44:26Z</time>
      </trkpt>
      <trkpt lat="45.10314" lon="4.10023">
        <ele>952.32</ele>
        <time>2022-10-05T08:44:42Z</time>
      </trkpt>
      <trkpt lat="45.10304" lon="4.10014">
        <ele>954.25</ele>
        <time>2022-10-05T08:44:57Z</time>
      </trkpt>
      <trkpt lat="45.10291" lon="4.10003">
        <ele>953.28</ele>
        <time>2022-10-05T08:45:15Z</time>
      </trkpt>
      <trkpt lat="45.10282" lon="4.09993">
        <ele>951.36</ele>
        <time>2022-10-05T08:45:28Z</time>
      </trkpt>
      <trkpt lat="45.10273" lon="4.09983">
        <ele>947.52</ele>
        <time>2022-10-05T08:45:44Z</time>
      </trkpt>
      <trkpt lat="45.10263" lon="4.09976">
        <ele>946.07</ele>
        <time>2022-10-05T08:45:57Z</time>
      </trkpt>
      <trkpt lat="45.10254" lon="4.09964">
        <ele>946.07</ele>
        <time>2022-10-05T08:46:13Z</time>
      </trkpt>
      <trkpt lat="45.10247" lon="4.09951">
        <ele>946.07</ele>
        <time>2022-10-05T08:46:28Z</time>
      </trkpt>
      <trkpt lat="45.10236" lon="4.09942">
        <ele>944.15</ele>
        <time>2022-10-05T08:46:42Z</time>
      </trkpt>
      <trkpt lat="45.10226" lon="4.09936">
        <ele>940.31</ele>
        <time>2022-10-05T08:46:57Z</time>
      </trkpt>
      <trkpt lat="45.10215" lon="4.09931">
        <ele>936.94</ele>
        <time>2022-10-05T08:47:14Z</time>
      </trkpt>
      <trkpt lat="45.10209" lon="4.09925">
        <ele>936.46</ele>
        <time>2022-10-05T08:47:25Z</time>
      </trkpt>
      <trkpt lat="45.10193" lon="4.09928">
        <ele>937.42</ele>
        <time>2022-10-05T08:47:41Z</time>
      </trkpt>
      <trkpt lat="45.10179" lon="4.09922">
        <ele>934.54</ele>
        <time>2022-10-05T08:47:56Z</time>
      </trkpt>
      <trkpt lat="45.10166" lon="4.09918">
        <ele>931.65</ele>
        <time>2022-10-05T08:48:11Z</time>
      </trkpt>
      <trkpt lat="45.10155" lon="4.09907">
        <ele>926.37</ele>
        <time>2022-10-05T08:48:25Z</time>
      </trkpt>
      <trkpt lat="45.1014" lon="4.09899">
        <ele>922.52</ele>
        <time>2022-10-05T08:48:41Z</time>
      </trkpt>
      <trkpt lat="45.10137" lon="4.09887">
        <ele>920.6</ele>
        <time>2022-10-05T08:48:55Z</time>
      </trkpt>
      <trkpt lat="45.10135" lon="4.09882">
        <ele>917.72</ele>
        <time>2022-10-05T08:49:13Z</time>
      </trkpt>
      <trkpt lat="45.10137" lon="4.09869">
        <ele>920.12</ele>
        <time>2022-10-05T08:49:26Z</time>
      </trkpt>
      <trkpt lat="45.10127" lon="4.09851">
        <ele>922.52</ele>
        <time>2022-10-05T08:49:41Z</time>
      </trkpt>
      <trkpt lat="45.10127" lon="4.0985">
        <ele>922.52</ele>
        <time>2022-10-05T08:49:42Z</time>
      </trkpt>
      <trkpt lat="45.10113" lon="4.09839">
        <ele>923.48</ele>
        <time>2022-10-05T08:50:01Z</time>
      </trkpt>
      <trkpt lat="45.10112" lon="4.09821">
        <ele>925.89</ele>
        <time>2022-10-05T08:50:15Z</time>
      </trkpt>
      <trkpt lat="45.10115" lon="4.09816">
        <ele>926.37</ele>
        <time>2022-10-05T08:50:19Z</time>
      </trkpt>
      <trkpt lat="45.10126" lon="4.09801">
        <ele>926.37</ele>
        <time>2022-10-05T08:50:33Z</time>
      </trkpt>
      <trkpt lat="45.10134" lon="4.0979">
        <ele>928.77</ele>
        <time>2022-10-05T08:50:43Z</time>
      </trkpt>
      <trkpt lat="45.1013" lon="4.09774">
        <ele>932.62</ele>
        <time>2022-10-05T08:50:56Z</time>
      </trkpt>
      <trkpt lat="45.1012" lon="4.09757">
        <ele>936.46</ele>
        <time>2022-10-05T08:51:13Z</time>
      </trkpt>
      <trkpt lat="45.1011" lon="4.09744">
        <ele>937.9</ele>
        <time>2022-10-05T08:51:28Z</time>
      </trkpt>
      <trkpt lat="45.10101" lon="4.09732">
        <ele>938.86</ele>
        <time>2022-10-05T08:51:41Z</time>
      </trkpt>
      <trkpt lat="45.10094" lon="4.09722">
        <ele>938.86</ele>
        <time>2022-10-05T08:51:53Z</time>
      </trkpt>
      <trkpt lat="45.10083" lon="4.09706">
        <ele>938.86</ele>
        <time>2022-10-05T08:52:09Z</time>
      </trkpt>
      <trkpt lat="45.10076" lon="4.0969">
        <ele>941.27</ele>
        <time>2022-10-05T08:52:24Z</time>
      </trkpt>
      <trkpt lat="45.10072" lon="4.09671">
        <ele>941.75</ele>
        <time>2022-10-05T08:52:38Z</time>
      </trkpt>
      <trkpt lat="45.10069" lon="4.0965">
        <ele>943.19</ele>
        <time>2022-10-05T08:52:53Z</time>
      </trkpt>
      <trkpt lat="45.10068" lon="4.09633">
        <ele>945.11</ele>
        <time>2022-10-05T08:53:06Z</time>
      </trkpt>
      <trkpt lat="45.10072" lon="4.09608">
        <ele>947.52</ele>
        <time>2022-10-05T08:53:23Z</time>
      </trkpt>
      <trkpt lat="45.10072" lon="4.09601">
        <ele>948.48</ele>
        <time>2022-10-05T08:53:28Z</time>
      </trkpt>
      <trkpt lat="45.10072" lon="4.09579">
        <ele>950.4</ele>
        <time>2022-10-05T08:53:43Z</time>
      </trkpt>
      <trkpt lat="45.10072" lon="4.09556">
        <ele>951.36</ele>
        <time>2022-10-05T08:53:59Z</time>
      </trkpt>
      <trkpt lat="45.10068" lon="4.09534">
        <ele>952.32</ele>
        <time>2022-10-05T08:54:15Z</time>
      </trkpt>
      <trkpt lat="45.10064" lon="4.09513">
        <ele>953.28</ele>
        <time>2022-10-05T08:54:29Z</time>
      </trkpt>
      <trkpt lat="45.10062" lon="4.09492">
        <ele>955.69</ele>
        <time>2022-10-05T08:54:42Z</time>
      </trkpt>
      <trkpt lat="45.10062" lon="4.09487">
        <ele>956.65</ele>
        <time>2022-10-05T08:54:45Z</time>
      </trkpt>
      <trkpt lat="45.10058" lon="4.09468">
        <ele>957.61</ele>
        <time>2022-10-05T08:54:59Z</time>
      </trkpt>
      <trkpt lat="45.10055" lon="4.09451">
        <ele>959.05</ele>
        <time>2022-10-05T08:55:14Z</time>
      </trkpt>
      <trkpt lat="45.10052" lon="4.09437">
        <ele>961.94</ele>
        <time>2022-10-05T08:55:28Z</time>
      </trkpt>
      <trkpt lat="45.10048" lon="4.0942">
        <ele>963.38</ele>
        <time>2022-10-05T08:55:41Z</time>
      </trkpt>
      <trkpt lat="45.10046" lon="4.094">
        <ele>964.34</ele>
        <time>2022-10-05T08:55:55Z</time>
      </trkpt>
      <trkpt lat="45.10045" lon="4.09385">
        <ele>966.26</ele>
        <time>2022-10-05T08:56:08Z</time>
      </trkpt>
      <trkpt lat="45.1004" lon="4.09367">
        <ele>966.26</ele>
        <time>2022-10-05T08:56:21Z</time>
      </trkpt>
      <trkpt lat="45.10036" lon="4.09351">
        <ele>969.15</ele>
        <time>2022-10-05T08:56:34Z</time>
      </trkpt>
      <trkpt lat="45.10034" lon="4.09335">
        <ele>971.07</ele>
        <time>2022-10-05T08:56:48Z</time>
      </trkpt>
      <trkpt lat="45.1003" lon="4.09317">
        <ele>973.47</ele>
        <time>2022-10-05T08:57:01Z</time>
      </trkpt>
      <trkpt lat="45.10024" lon="4.09303">
        <ele>975.39</ele>
        <time>2022-10-05T08:57:14Z</time>
      </trkpt>
      <trkpt lat="45.10017" lon="4.0929">
        <ele>975.88</ele>
        <time>2022-10-05T08:57:27Z</time>
      </trkpt>
      <trkpt lat="45.10009" lon="4.09278">
        <ele>976.84</ele>
        <time>2022-10-05T08:57:41Z</time>
      </trkpt>
      <trkpt lat="45.10007" lon="4.09271">
        <ele>981.16</ele>
        <time>2022-10-05T08:58:00Z</time>
      </trkpt>
      <trkpt lat="45.10007" lon="4.09267">
        <ele>980.68</ele>
        <time>2022-10-05T08:58:22Z</time>
      </trkpt>
      <trkpt lat="45.10009" lon="4.09269">
        <ele>981.16</ele>
        <time>2022-10-05T08:58:41Z</time>
      </trkpt>
      <trkpt lat="45.10003" lon="4.09271">
        <ele>980.2</ele>
        <time>2022-10-05T08:59:05Z</time>
      </trkpt>
      <trkpt lat="45.09996" lon="4.09269">
        <ele>979.24</ele>
        <time>2022-10-05T08:59:20Z</time>
      </trkpt>
      <trkpt lat="45.09994" lon="4.09267">
        <ele>979.24</ele>
        <time>2022-10-05T08:59:42Z</time>
      </trkpt>
      <trkpt lat="45.09993" lon="4.09263">
        <ele>981.64</ele>
        <time>2022-10-05T09:00:09Z</time>
      </trkpt>
      <trkpt lat="45.09989" lon="4.09266">
        <ele>982.12</ele>
        <time>2022-10-05T09:00:37Z</time>
      </trkpt>
      <trkpt lat="45.09985" lon="4.09268">
        <ele>982.12</ele>
        <time>2022-10-05T09:00:53Z</time>
      </trkpt>
      <trkpt lat="45.09987" lon="4.09264">
        <ele>983.57</ele>
        <time>2022-10-05T09:01:25Z</time>
      </trkpt>
      <trkpt lat="45.09982" lon="4.09266">
        <ele>984.05</ele>
        <time>2022-10-05T09:01:50Z</time>
      </trkpt>
      <trkpt lat="45.09979" lon="4.09265">
        <ele>984.53</ele>
        <time>2022-10-05T09:02:08Z</time>
      </trkpt>
      <trkpt lat="45.09974" lon="4.09267">
        <ele>986.93</ele>
        <time>2022-10-05T09:02:39Z</time>
      </trkpt>
      <trkpt lat="45.09972" lon="4.09268">
        <ele>985.49</ele>
        <time>2022-10-05T09:02:54Z</time>
      </trkpt>
      <trkpt lat="45.09971" lon="4.09267">
        <ele>984.53</ele>
        <time>2022-10-05T09:03:18Z</time>
      </trkpt>
      <trkpt lat="45.09971" lon="4.09264">
        <ele>985.01</ele>
        <time>2022-10-05T09:03:42Z</time>
      </trkpt>
      <trkpt lat="45.09966" lon="4.09267">
        <ele>986.93</ele>
        <time>2022-10-05T09:04:08Z</time>
      </trkpt>
      <trkpt lat="45.09964" lon="4.09267">
        <ele>986.93</ele>
        <time>2022-10-05T09:04:24Z</time>
      </trkpt>
      <trkpt lat="45.09961" lon="4.09265">
        <ele>987.41</ele>
        <time>2022-10-05T09:04:48Z</time>
      </trkpt>
      <trkpt lat="45.09958" lon="4.09268">
        <ele>984.53</ele>
        <time>2022-10-05T09:05:10Z</time>
      </trkpt>
      <trkpt lat="45.09954" lon="4.09291">
        <ele>984.53</ele>
        <time>2022-10-05T09:05:26Z</time>
      </trkpt>
      <trkpt lat="45.09947" lon="4.09294">
        <ele>984.05</ele>
        <time>2022-10-05T09:06:00Z</time>
      </trkpt>
      <trkpt lat="45.09949" lon="4.09292">
        <ele>986.45</ele>
        <time>2022-10-05T09:06:31Z</time>
      </trkpt>
      <trkpt lat="45.09952" lon="4.09297">
        <ele>987.89</ele>
        <time>2022-10-05T09:07:01Z</time>
      </trkpt>
      <trkpt lat="45.09951" lon="4.09306">
        <ele>988.85</ele>
        <time>2022-10-05T09:07:39Z</time>
      </trkpt>
      <trkpt lat="45.09945" lon="4.09309">
        <ele>985.49</ele>
        <time>2022-10-05T09:07:57Z</time>
      </trkpt>
      <trkpt lat="45.09946" lon="4.0931">
        <ele>985.01</ele>
        <time>2022-10-05T09:08:08Z</time>
      </trkpt>
      <trkpt lat="45.09938" lon="4.09315">
        <ele>983.09</ele>
        <time>2022-10-05T09:08:21Z</time>
      </trkpt>
      <trkpt lat="45.09925" lon="4.09319">
        <ele>979.72</ele>
        <time>2022-10-05T09:08:34Z</time>
      </trkpt>
      <trkpt lat="45.09919" lon="4.0932">
        <ele>978.76</ele>
        <time>2022-10-05T09:08:40Z</time>
      </trkpt>
      <trkpt lat="45.09902" lon="4.09324">
        <ele>977.32</ele>
        <time>2022-10-05T09:08:53Z</time>
      </trkpt>
      <trkpt lat="45.09888" lon="4.09332">
        <ele>977.8</ele>
        <time>2022-10-05T09:09:06Z</time>
      </trkpt>
      <trkpt lat="45.09885" lon="4.09334">
        <ele>977.32</ele>
        <time>2022-10-05T09:09:18Z</time>
      </trkpt>
      <trkpt lat="45.09884" lon="4.09339">
        <ele>980.2</ele>
        <time>2022-10-05T09:09:37Z</time>
      </trkpt>
      <trkpt lat="45.09885" lon="4.09337">
        <ele>979.72</ele>
        <time>2022-10-05T09:10:00Z</time>
      </trkpt>
      <trkpt lat="45.09884" lon="4.09336">
        <ele>977.8</ele>
        <time>2022-10-05T09:10:15Z</time>
      </trkpt>
      <trkpt lat="45.09876" lon="4.09338">
        <ele>975.88</ele>
        <time>2022-10-05T09:10:26Z</time>
      </trkpt>
      <trkpt lat="45.09869" lon="4.09339">
        <ele>973.95</ele>
        <time>2022-10-05T09:10:33Z</time>
      </trkpt>
      <trkpt lat="45.09855" lon="4.09343">
        <ele>970.59</ele>
        <time>2022-10-05T09:10:47Z</time>
      </trkpt>
      <trkpt lat="45.09841" lon="4.09348">
        <ele>969.63</ele>
        <time>2022-10-05T09:11:02Z</time>
      </trkpt>
      <trkpt lat="45.09824" lon="4.09349">
        <ele>967.7</ele>
        <time>2022-10-05T09:11:16Z</time>
      </trkpt>
      <trkpt lat="45.09812" lon="4.09353">
        <ele>965.78</ele>
        <time>2022-10-05T09:11:29Z</time>
      </trkpt>
      <trkpt lat="45.09799" lon="4.09356">
        <ele>963.86</ele>
        <time>2022-10-05T09:11:42Z</time>
      </trkpt>
      <trkpt lat="45.09785" lon="4.09355">
        <ele>961.94</ele>
        <time>2022-10-05T09:11:54Z</time>
      </trkpt>
      <trkpt lat="45.09762" lon="4.09352">
        <ele>969.15</ele>
        <time>2022-10-05T09:12:08Z</time>
      </trkpt>
      <trkpt lat="45.09746" lon="4.09345">
        <ele>971.55</ele>
        <time>2022-10-05T09:12:23Z</time>
      </trkpt>
      <trkpt lat="45.09728" lon="4.09342">
        <ele>972.99</ele>
        <time>2022-10-05T09:12:39Z</time>
      </trkpt>
      <trkpt lat="45.09712" lon="4.09339">
        <ele>976.84</ele>
        <time>2022-10-05T09:12:54Z</time>
      </trkpt>
      <trkpt lat="45.097" lon="4.09337">
        <ele>982.12</ele>
        <time>2022-10-05T09:13:05Z</time>
      </trkpt>
      <trkpt lat="45.0969" lon="4.09335">
        <ele>984.05</ele>
        <time>2022-10-05T09:13:18Z</time>
      </trkpt>
      <trkpt lat="45.09686" lon="4.09336">
        <ele>985.01</ele>
        <time>2022-10-05T09:13:36Z</time>
      </trkpt>
      <trkpt lat="45.09681" lon="4.09334">
        <ele>989.33</ele>
        <time>2022-10-05T09:14:05Z</time>
      </trkpt>
      <trkpt lat="45.09671" lon="4.09329">
        <ele>990.3</ele>
        <time>2022-10-05T09:14:18Z</time>
      </trkpt>
      <trkpt lat="45.09659" lon="4.09324">
        <ele>987.89</ele>
        <time>2022-10-05T09:14:33Z</time>
      </trkpt>
      <trkpt lat="45.09648" lon="4.09323">
        <ele>985.97</ele>
        <time>2022-10-05T09:14:50Z</time>
      </trkpt>
      <trkpt lat="45.09632" lon="4.09324">
        <ele>988.37</ele>
        <time>2022-10-05T09:15:05Z</time>
      </trkpt>
      <trkpt lat="45.09617" lon="4.09324">
        <ele>991.26</ele>
        <time>2022-10-05T09:15:19Z</time>
      </trkpt>
      <trkpt lat="45.09601" lon="4.09318">
        <ele>994.62</ele>
        <time>2022-10-05T09:15:34Z</time>
      </trkpt>
      <trkpt lat="45.09592" lon="4.09315">
        <ele>995.58</ele>
        <time>2022-10-05T09:15:41Z</time>
      </trkpt>
      <trkpt lat="45.09573" lon="4.09307">
        <ele>997.02</ele>
        <time>2022-10-05T09:15:58Z</time>
      </trkpt>
      <trkpt lat="45.09561" lon="4.09284">
        <ele>1002.31</ele>
        <time>2022-10-05T09:16:15Z</time>
      </trkpt>
      <trkpt lat="45.09548" lon="4.09261">
        <ele>1005.68</ele>
        <time>2022-10-05T09:16:32Z</time>
      </trkpt>
      <trkpt lat="45.09533" lon="4.09246">
        <ele>1007.6</ele>
        <time>2022-10-05T09:16:50Z</time>
      </trkpt>
      <trkpt lat="45.0952" lon="4.09238">
        <ele>1010.48</ele>
        <time>2022-10-05T09:17:06Z</time>
      </trkpt>
      <trkpt lat="45.09505" lon="4.09224">
        <ele>1014.81</ele>
        <time>2022-10-05T09:17:24Z</time>
      </trkpt>
      <trkpt lat="45.09489" lon="4.09212">
        <ele>1017.69</ele>
        <time>2022-10-05T09:17:41Z</time>
      </trkpt>
      <trkpt lat="45.09479" lon="4.09201">
        <ele>1019.13</ele>
        <time>2022-10-05T09:17:54Z</time>
      </trkpt>
      <trkpt lat="45.09473" lon="4.09191">
        <ele>1020.58</ele>
        <time>2022-10-05T09:18:09Z</time>
      </trkpt>
      <trkpt lat="45.09476" lon="4.0918">
        <ele>1021.06</ele>
        <time>2022-10-05T09:18:19Z</time>
      </trkpt>
      <trkpt lat="45.09487" lon="4.09162">
        <ele>1021.54</ele>
        <time>2022-10-05T09:18:35Z</time>
      </trkpt>
      <trkpt lat="45.09505" lon="4.09141">
        <ele>1022.5</ele>
        <time>2022-10-05T09:18:55Z</time>
      </trkpt>
      <trkpt lat="45.09526" lon="4.09125">
        <ele>1022.98</ele>
        <time>2022-10-05T09:19:14Z</time>
      </trkpt>
      <trkpt lat="45.09543" lon="4.09103">
        <ele>1025.86</ele>
        <time>2022-10-05T09:19:33Z</time>
      </trkpt>
      <trkpt lat="45.09549" lon="4.09081">
        <ele>1029.71</ele>
        <time>2022-10-05T09:19:48Z</time>
      </trkpt>
      <trkpt lat="45.09554" lon="4.09059">
        <ele>1032.59</ele>
        <time>2022-10-05T09:20:03Z</time>
      </trkpt>
      <trkpt lat="45.09558" lon="4.09038">
        <ele>1037.4</ele>
        <time>2022-10-05T09:20:19Z</time>
      </trkpt>
      <trkpt lat="45.09564" lon="4.09026">
        <ele>1038.84</ele>
        <time>2022-10-05T09:20:29Z</time>
      </trkpt>
      <trkpt lat="45.09575" lon="4.09007">
        <ele>1040.76</ele>
        <time>2022-10-05T09:20:44Z</time>
      </trkpt>
      <trkpt lat="45.0958" lon="4.08998">
        <ele>1041.73</ele>
        <time>2022-10-05T09:20:52Z</time>
      </trkpt>
      <trkpt lat="45.09591" lon="4.08978">
        <ele>1044.13</ele>
        <time>2022-10-05T09:21:08Z</time>
      </trkpt>
      <trkpt lat="45.09598" lon="4.08957">
        <ele>1048.45</ele>
        <time>2022-10-05T09:21:23Z</time>
      </trkpt>
      <trkpt lat="45.09593" lon="4.08933">
        <ele>1050.86</ele>
        <time>2022-10-05T09:21:37Z</time>
      </trkpt>
      <trkpt lat="45.0958" lon="4.08902">
        <ele>1052.78</ele>
        <time>2022-10-05T09:21:57Z</time>
      </trkpt>
      <trkpt lat="45.0957" lon="4.08878">
        <ele>1053.74</ele>
        <time>2022-10-05T09:22:15Z</time>
      </trkpt>
      <trkpt lat="45.09566" lon="4.08846">
        <ele>1056.63</ele>
        <time>2022-10-05T09:22:35Z</time>
      </trkpt>
      <trkpt lat="45.09567" lon="4.08838">
        <ele>1056.63</ele>
        <time>2022-10-05T09:22:41Z</time>
      </trkpt>
      <trkpt lat="45.09568" lon="4.08821">
        <ele>1056.63</ele>
        <time>2022-10-05T09:22:52Z</time>
      </trkpt>
      <trkpt lat="45.09562" lon="4.08821">
        <ele>1056.15</ele>
        <time>2022-10-05T09:23:05Z</time>
      </trkpt>
      <trkpt lat="45.09567" lon="4.08819">
        <ele>1055.67</ele>
        <time>2022-10-05T09:23:09Z</time>
      </trkpt>
      <trkpt lat="45.09572" lon="4.08794">
        <ele>1057.11</ele>
        <time>2022-10-05T09:23:26Z</time>
      </trkpt>
      <trkpt lat="45.09569" lon="4.08763">
        <ele>1060.95</ele>
        <time>2022-10-05T09:23:43Z</time>
      </trkpt>
      <trkpt lat="45.09572" lon="4.0873">
        <ele>1061.91</ele>
        <time>2022-10-05T09:24:02Z</time>
      </trkpt>
      <trkpt lat="45.09573" lon="4.08708">
        <ele>1062.87</ele>
        <time>2022-10-05T09:24:15Z</time>
      </trkpt>
      <trkpt lat="45.09569" lon="4.08702">
        <ele>1061.91</ele>
        <time>2022-10-05T09:24:25Z</time>
      </trkpt>
      <trkpt lat="45.09565" lon="4.08703">
        <ele>1061.43</ele>
        <time>2022-10-05T09:24:28Z</time>
      </trkpt>
      <trkpt lat="45.09555" lon="4.08712">
        <ele>1059.03</ele>
        <time>2022-10-05T09:24:43Z</time>
      </trkpt>
      <trkpt lat="45.0954" lon="4.08727">
        <ele>1058.55</ele>
        <time>2022-10-05T09:24:57Z</time>
      </trkpt>
      <trkpt lat="45.09535" lon="4.08731">
        <ele>1059.51</ele>
        <time>2022-10-05T09:25:03Z</time>
      </trkpt>
      <trkpt lat="45.09518" lon="4.08731">
        <ele>1059.03</ele>
        <time>2022-10-05T09:25:19Z</time>
      </trkpt>
      <trkpt lat="45.09514" lon="4.08732">
        <ele>1060.47</ele>
        <time>2022-10-05T09:25:34Z</time>
      </trkpt>
      <trkpt lat="45.095" lon="4.08728">
        <ele>1058.07</ele>
        <time>2022-10-05T09:25:49Z</time>
      </trkpt>
      <trkpt lat="45.09495" lon="4.08726">
        <ele>1057.59</ele>
        <time>2022-10-05T09:25:54Z</time>
      </trkpt>
      <trkpt lat="45.09481" lon="4.08718">
        <ele>1055.18</ele>
        <time>2022-10-05T09:26:08Z</time>
      </trkpt>
      <trkpt lat="45.09467" lon="4.08709">
        <ele>1053.74</ele>
        <time>2022-10-05T09:26:21Z</time>
      </trkpt>
      <trkpt lat="45.09451" lon="4.08704">
        <ele>1051.82</ele>
        <time>2022-10-05T09:26:34Z</time>
      </trkpt>
      <trkpt lat="45.09436" lon="4.08705">
        <ele>1054.22</ele>
        <time>2022-10-05T09:26:48Z</time>
      </trkpt>
      <trkpt lat="45.09424" lon="4.087">
        <ele>1056.63</ele>
        <time>2022-10-05T09:27:02Z</time>
      </trkpt>
      <trkpt lat="45.09412" lon="4.08699">
        <ele>1066.24</ele>
        <time>2022-10-05T09:27:16Z</time>
      </trkpt>
      <trkpt lat="45.09406" lon="4.08696">
        <ele>1066.72</ele>
        <time>2022-10-05T09:27:34Z</time>
      </trkpt>
      <trkpt lat="45.09405" lon="4.08691">
        <ele>1070.08</ele>
        <time>2022-10-05T09:27:52Z</time>
      </trkpt>
      <trkpt lat="45.09403" lon="4.08682">
        <ele>1068.64</ele>
        <time>2022-10-05T09:28:04Z</time>
      </trkpt>
      <trkpt lat="45.09399" lon="4.08667">
        <ele>1066.24</ele>
        <time>2022-10-05T09:28:20Z</time>
      </trkpt>
      <trkpt lat="45.09396" lon="4.08651">
        <ele>1066.72</ele>
        <time>2022-10-05T09:28:36Z</time>
      </trkpt>
      <trkpt lat="45.09387" lon="4.08632">
        <ele>1071.53</ele>
        <time>2022-10-05T09:28:52Z</time>
      </trkpt>
      <trkpt lat="45.09377" lon="4.08619">
        <ele>1073.45</ele>
        <time>2022-10-05T09:29:06Z</time>
      </trkpt>
      <trkpt lat="45.09365" lon="4.08607">
        <ele>1074.89</ele>
        <time>2022-10-05T09:29:20Z</time>
      </trkpt>
      <trkpt lat="45.09347" lon="4.08599">
        <ele>1080.18</ele>
        <time>2022-10-05T09:29:36Z</time>
      </trkpt>
      <trkpt lat="45.09333" lon="4.08593">
        <ele>1086.91</ele>
        <time>2022-10-05T09:29:51Z</time>
      </trkpt>
      <trkpt lat="45.09321" lon="4.08589">
        <ele>1090.27</ele>
        <time>2022-10-05T09:30:03Z</time>
      </trkpt>
      <trkpt lat="45.09308" lon="4.08586">
        <ele>1093.16</ele>
        <time>2022-10-05T09:30:16Z</time>
      </trkpt>
      <trkpt lat="45.09291" lon="4.08594">
        <ele>1094.12</ele>
        <time>2022-10-05T09:30:34Z</time>
      </trkpt>
      <trkpt lat="45.09269" lon="4.08601">
        <ele>1098.92</ele>
        <time>2022-10-05T09:30:51Z</time>
      </trkpt>
      <trkpt lat="45.09265" lon="4.08603">
        <ele>1098.92</ele>
        <time>2022-10-05T09:30:55Z</time>
      </trkpt>
      <trkpt lat="45.09248" lon="4.08618">
        <ele>1099.89</ele>
        <time>2022-10-05T09:31:13Z</time>
      </trkpt>
      <trkpt lat="45.09239" lon="4.08623">
        <ele>1100.85</ele>
        <time>2022-10-05T09:31:24Z</time>
      </trkpt>
      <trkpt lat="45.09222" lon="4.08631">
        <ele>1106.61</ele>
        <time>2022-10-05T09:31:39Z</time>
      </trkpt>
      <trkpt lat="45.09208" lon="4.08636">
        <ele>1105.65</ele>
        <time>2022-10-05T09:31:56Z</time>
      </trkpt>
      <trkpt lat="45.09199" lon="4.08642">
        <ele>1106.61</ele>
        <time>2022-10-05T09:32:09Z</time>
      </trkpt>
      <trkpt lat="45.09179" lon="4.08648">
        <ele>1109.5</ele>
        <time>2022-10-05T09:32:30Z</time>
      </trkpt>
      <trkpt lat="45.09163" lon="4.0865">
        <ele>1113.34</ele>
        <time>2022-10-05T09:32:45Z</time>
      </trkpt>
      <trkpt lat="45.0915" lon="4.08655">
        <ele>1117.19</ele>
        <time>2022-10-05T09:33:00Z</time>
      </trkpt>
      <trkpt lat="45.09136" lon="4.08659">
        <ele>1119.59</ele>
        <time>2022-10-05T09:33:14Z</time>
      </trkpt>
      <trkpt lat="45.09122" lon="4.08661">
        <ele>1121.52</ele>
        <time>2022-10-05T09:33:28Z</time>
      </trkpt>
      <trkpt lat="45.09109" lon="4.08666">
        <ele>1126.32</ele>
        <time>2022-10-05T09:33:39Z</time>
      </trkpt>
      <trkpt lat="45.09096" lon="4.08666">
        <ele>1128.73</ele>
        <time>2022-10-05T09:33:52Z</time>
      </trkpt>
      <trkpt lat="45.0909" lon="4.08666">
        <ele>1131.13</ele>
        <time>2022-10-05T09:34:03Z</time>
      </trkpt>
      <trkpt lat="45.09088" lon="4.08671">
        <ele>1134.97</ele>
        <time>2022-10-05T09:34:21Z</time>
      </trkpt>
      <trkpt lat="45.09082" lon="4.08688">
        <ele>1137.38</ele>
        <time>2022-10-05T09:34:36Z</time>
      </trkpt>
      <trkpt lat="45.0908" lon="4.08694">
        <ele>1137.86</ele>
        <time>2022-10-05T09:34:52Z</time>
      </trkpt>
      <trkpt lat="45.09075" lon="4.08702">
        <ele>1137.86</ele>
        <time>2022-10-05T09:35:10Z</time>
      </trkpt>
      <trkpt lat="45.09065" lon="4.08716">
        <ele>1136.42</ele>
        <time>2022-10-05T09:35:25Z</time>
      </trkpt>
      <trkpt lat="45.09061" lon="4.0872">
        <ele>1135.94</ele>
        <time>2022-10-05T09:35:28Z</time>
      </trkpt>
      <trkpt lat="45.0905" lon="4.08741">
        <ele>1135.45</ele>
        <time>2022-10-05T09:35:43Z</time>
      </trkpt>
      <trkpt lat="45.0904" lon="4.08764">
        <ele>1133.05</ele>
        <time>2022-10-05T09:36:00Z</time>
      </trkpt>
      <trkpt lat="45.09028" lon="4.08784">
        <ele>1128.24</ele>
        <time>2022-10-05T09:36:17Z</time>
      </trkpt>
      <trkpt lat="45.09011" lon="4.08812">
        <ele>1129.69</ele>
        <time>2022-10-05T09:36:35Z</time>
      </trkpt>
      <trkpt lat="45.08995" lon="4.08836">
        <ele>1129.21</ele>
        <time>2022-10-05T09:36:54Z</time>
      </trkpt>
      <trkpt lat="45.08983" lon="4.08853">
        <ele>1128.24</ele>
        <time>2022-10-05T09:37:09Z</time>
      </trkpt>
      <trkpt lat="45.08961" lon="4.08867">
        <ele>1132.09</ele>
        <time>2022-10-05T09:37:24Z</time>
      </trkpt>
      <trkpt lat="45.08948" lon="4.08874">
        <ele>1131.61</ele>
        <time>2022-10-05T09:37:39Z</time>
      </trkpt>
      <trkpt lat="45.08946" lon="4.08875">
        <ele>1126.8</ele>
        <time>2022-10-05T09:37:53Z</time>
      </trkpt>
      <trkpt lat="45.08944" lon="4.08877">
        <ele>1125.36</ele>
        <time>2022-10-05T09:38:25Z</time>
      </trkpt>
      <trkpt lat="45.08939" lon="4.08883">
        <ele>1128.24</ele>
        <time>2022-10-05T09:38:32Z</time>
      </trkpt>
      <trkpt lat="45.08924" lon="4.08891">
        <ele>1133.53</ele>
        <time>2022-10-05T09:38:47Z</time>
      </trkpt>
      <trkpt lat="45.08921" lon="4.08889">
        <ele>1134.01</ele>
        <time>2022-10-05T09:39:02Z</time>
      </trkpt>
      <trkpt lat="45.08907" lon="4.08891">
        <ele>1128.24</ele>
        <time>2022-10-05T09:39:17Z</time>
      </trkpt>
      <trkpt lat="45.08889" lon="4.08897">
        <ele>1125.84</ele>
        <time>2022-10-05T09:39:32Z</time>
      </trkpt>
      <trkpt lat="45.0887" lon="4.08902">
        <ele>1124.4</ele>
        <time>2022-10-05T09:39:47Z</time>
      </trkpt>
      <trkpt lat="45.08853" lon="4.08908">
        <ele>1126.8</ele>
        <time>2022-10-05T09:40:00Z</time>
      </trkpt>
      <trkpt lat="45.0884" lon="4.08909">
        <ele>1128.24</ele>
        <time>2022-10-05T09:40:12Z</time>
      </trkpt>
      <trkpt lat="45.08816" lon="4.08905">
        <ele>1132.57</ele>
        <time>2022-10-05T09:40:26Z</time>
      </trkpt>
      <trkpt lat="45.08801" lon="4.08907">
        <ele>1131.61</ele>
        <time>2022-10-05T09:40:41Z</time>
      </trkpt>
      <trkpt lat="45.08787" lon="4.08907">
        <ele>1130.65</ele>
        <time>2022-10-05T09:40:53Z</time>
      </trkpt>
      <trkpt lat="45.08767" lon="4.0891">
        <ele>1129.21</ele>
        <time>2022-10-05T09:41:09Z</time>
      </trkpt>
      <trkpt lat="45.08748" lon="4.08913">
        <ele>1130.65</ele>
        <time>2022-10-05T09:41:23Z</time>
      </trkpt>
      <trkpt lat="45.08733" lon="4.08913">
        <ele>1131.13</ele>
        <time>2022-10-05T09:41:36Z</time>
      </trkpt>
      <trkpt lat="45.08718" lon="4.08912">
        <ele>1131.13</ele>
        <time>2022-10-05T09:41:51Z</time>
      </trkpt>
      <trkpt lat="45.087" lon="4.08912">
        <ele>1130.65</ele>
        <time>2022-10-05T09:42:07Z</time>
      </trkpt>
      <trkpt lat="45.08686" lon="4.08911">
        <ele>1130.65</ele>
        <time>2022-10-05T09:42:21Z</time>
      </trkpt>
      <trkpt lat="45.08665" lon="4.08907">
        <ele>1132.57</ele>
        <time>2022-10-05T09:42:37Z</time>
      </trkpt>
      <trkpt lat="45.08644" lon="4.0891">
        <ele>1131.61</ele>
        <time>2022-10-05T09:42:52Z</time>
      </trkpt>
      <trkpt lat="45.08627" lon="4.08921">
        <ele>1132.57</ele>
        <time>2022-10-05T09:43:06Z</time>
      </trkpt>
      <trkpt lat="45.08607" lon="4.08928">
        <ele>1134.97</ele>
        <time>2022-10-05T09:43:22Z</time>
      </trkpt>
      <trkpt lat="45.08586" lon="4.08939">
        <ele>1133.05</ele>
        <time>2022-10-05T09:43:40Z</time>
      </trkpt>
      <trkpt lat="45.08581" lon="4.0894">
        <ele>1133.05</ele>
        <time>2022-10-05T09:43:43Z</time>
      </trkpt>
      <trkpt lat="45.08559" lon="4.08953">
        <ele>1133.05</ele>
        <time>2022-10-05T09:44:01Z</time>
      </trkpt>
      <trkpt lat="45.08549" lon="4.08965">
        <ele>1134.01</ele>
        <time>2022-10-05T09:44:13Z</time>
      </trkpt>
      <trkpt lat="45.08536" lon="4.08981">
        <ele>1134.01</ele>
        <time>2022-10-05T09:44:28Z</time>
      </trkpt>
      <trkpt lat="45.08522" lon="4.09001">
        <ele>1131.61</ele>
        <time>2022-10-05T09:44:46Z</time>
      </trkpt>
      <trkpt lat="45.08512" lon="4.0902">
        <ele>1129.21</ele>
        <time>2022-10-05T09:45:02Z</time>
      </trkpt>
      <trkpt lat="45.08504" lon="4.09038">
        <ele>1129.21</ele>
        <time>2022-10-05T09:45:16Z</time>
      </trkpt>
      <trkpt lat="45.0849" lon="4.09058">
        <ele>1125.84</ele>
        <time>2022-10-05T09:45:32Z</time>
      </trkpt>
      <trkpt lat="45.08479" lon="4.09074">
        <ele>1122.48</ele>
        <time>2022-10-05T09:45:46Z</time>
      </trkpt>
      <trkpt lat="45.08466" lon="4.09091">
        <ele>1121.03</ele>
        <time>2022-10-05T09:46:01Z</time>
      </trkpt>
      <trkpt lat="45.08454" lon="4.09108">
        <ele>1119.11</ele>
        <time>2022-10-05T09:46:16Z</time>
      </trkpt>
      <trkpt lat="45.0844" lon="4.09129">
        <ele>1119.11</ele>
        <time>2022-10-05T09:46:32Z</time>
      </trkpt>
      <trkpt lat="45.08427" lon="4.09148">
        <ele>1117.67</ele>
        <time>2022-10-05T09:46:47Z</time>
      </trkpt>
      <trkpt lat="45.08413" lon="4.09173">
        <ele>1117.67</ele>
        <time>2022-10-05T09:47:03Z</time>
      </trkpt>
      <trkpt lat="45.08405" lon="4.09196">
        <ele>1117.19</ele>
        <time>2022-10-05T09:47:18Z</time>
      </trkpt>
      <trkpt lat="45.08394" lon="4.09214">
        <ele>1116.23</ele>
        <time>2022-10-05T09:47:32Z</time>
      </trkpt>
      <trkpt lat="45.08378" lon="4.09231">
        <ele>1116.71</ele>
        <time>2022-10-05T09:47:46Z</time>
      </trkpt>
      <trkpt lat="45.08361" lon="4.09243">
        <ele>1115.75</ele>
        <time>2022-10-05T09:48:02Z</time>
      </trkpt>
      <trkpt lat="45.08345" lon="4.09254">
        <ele>1112.38</ele>
        <time>2022-10-05T09:48:16Z</time>
      </trkpt>
      <trkpt lat="45.08323" lon="4.09271">
        <ele>1114.31</ele>
        <time>2022-10-05T09:48:33Z</time>
      </trkpt>
      <trkpt lat="45.08309" lon="4.0929">
        <ele>1111.42</ele>
        <time>2022-10-05T09:48:49Z</time>
      </trkpt>
      <trkpt lat="45.08298" lon="4.09305">
        <ele>1108.54</ele>
        <time>2022-10-05T09:49:03Z</time>
      </trkpt>
      <trkpt lat="45.08281" lon="4.09328">
        <ele>1107.58</ele>
        <time>2022-10-05T09:49:21Z</time>
      </trkpt>
      <trkpt lat="45.08265" lon="4.09348">
        <ele>1107.58</ele>
        <time>2022-10-05T09:49:37Z</time>
      </trkpt>
      <trkpt lat="45.08261" lon="4.0935">
        <ele>1107.58</ele>
        <time>2022-10-05T09:49:41Z</time>
      </trkpt>
      <trkpt lat="45.08244" lon="4.09361">
        <ele>1110.46</ele>
        <time>2022-10-05T09:49:57Z</time>
      </trkpt>
      <trkpt lat="45.08229" lon="4.09372">
        <ele>1110.94</ele>
        <time>2022-10-05T09:50:10Z</time>
      </trkpt>
      <trkpt lat="45.08223" lon="4.09377">
        <ele>1110.94</ele>
        <time>2022-10-05T09:50:15Z</time>
      </trkpt>
      <trkpt lat="45.08203" lon="4.09388">
        <ele>1109.02</ele>
        <time>2022-10-05T09:50:31Z</time>
      </trkpt>
      <trkpt lat="45.08181" lon="4.09395">
        <ele>1118.15</ele>
        <time>2022-10-05T09:50:45Z</time>
      </trkpt>
      <trkpt lat="45.08161" lon="4.0941">
        <ele>1125.36</ele>
        <time>2022-10-05T09:51:00Z</time>
      </trkpt>
      <trkpt lat="45.08158" lon="4.09413">
        <ele>1126.32</ele>
        <time>2022-10-05T09:51:03Z</time>
      </trkpt>
      <trkpt lat="45.08148" lon="4.09428">
        <ele>1128.73</ele>
        <time>2022-10-05T09:51:16Z</time>
      </trkpt>
      <trkpt lat="45.08135" lon="4.09455">
        <ele>1128.24</ele>
        <time>2022-10-05T09:51:33Z</time>
      </trkpt>
      <trkpt lat="45.0812" lon="4.09485">
        <ele>1129.69</ele>
        <time>2022-10-05T09:51:52Z</time>
      </trkpt>
      <trkpt lat="45.08104" lon="4.09512">
        <ele>1129.69</ele>
        <time>2022-10-05T09:52:11Z</time>
      </trkpt>
      <trkpt lat="45.08085" lon="4.09538">
        <ele>1128.73</ele>
        <time>2022-10-05T09:52:33Z</time>
      </trkpt>
      <trkpt lat="45.08063" lon="4.09566">
        <ele>1129.21</ele>
        <time>2022-10-05T09:52:55Z</time>
      </trkpt>
      <trkpt lat="45.08039" lon="4.09591">
        <ele>1129.69</ele>
        <time>2022-10-05T09:53:18Z</time>
      </trkpt>
      <trkpt lat="45.08032" lon="4.09597">
        <ele>1129.69</ele>
        <time>2022-10-05T09:53:33Z</time>
      </trkpt>
      <trkpt lat="45.08031" lon="4.09598">
        <ele>1131.61</ele>
        <time>2022-10-05T09:53:45Z</time>
      </trkpt>
      <trkpt lat="45.08031" lon="4.096">
        <ele>1130.17</ele>
        <time>2022-10-05T09:54:07Z</time>
      </trkpt>
      <trkpt lat="45.08016" lon="4.09613">
        <ele>1131.61</ele>
        <time>2022-10-05T09:54:23Z</time>
      </trkpt>
      <trkpt lat="45.08004" lon="4.09634">
        <ele>1130.65</ele>
        <time>2022-10-05T09:54:41Z</time>
      </trkpt>
      <trkpt lat="45.07993" lon="4.09657">
        <ele>1130.17</ele>
        <time>2022-10-05T09:54:58Z</time>
      </trkpt>
      <trkpt lat="45.07968" lon="4.0967">
        <ele>1131.13</ele>
        <time>2022-10-05T09:55:21Z</time>
      </trkpt>
      <trkpt lat="45.07968" lon="4.09671">
        <ele>1131.13</ele>
        <time>2022-10-05T09:55:22Z</time>
      </trkpt>
      <trkpt lat="45.07965" lon="4.09677">
        <ele>1132.57</ele>
        <time>2022-10-05T09:55:40Z</time>
      </trkpt>
      <trkpt lat="45.0796" lon="4.09686">
        <ele>1132.57</ele>
        <time>2022-10-05T09:55:57Z</time>
      </trkpt>
      <trkpt lat="45.0796" lon="4.09685">
        <ele>1132.57</ele>
        <time>2022-10-05T09:56:00Z</time>
      </trkpt>
      <trkpt lat="45.07939" lon="4.09681">
        <ele>1133.53</ele>
        <time>2022-10-05T09:56:19Z</time>
      </trkpt>
      <trkpt lat="45.07921" lon="4.09677">
        <ele>1135.45</ele>
        <time>2022-10-05T09:56:34Z</time>
      </trkpt>
      <trkpt lat="45.079" lon="4.09667">
        <ele>1134.97</ele>
        <time>2022-10-05T09:56:51Z</time>
      </trkpt>
      <trkpt lat="45.07884" lon="4.0966">
        <ele>1135.45</ele>
        <time>2022-10-05T09:57:04Z</time>
      </trkpt>
      <trkpt lat="45.07863" lon="4.09647">
        <ele>1135.94</ele>
        <time>2022-10-05T09:57:23Z</time>
      </trkpt>
      <trkpt lat="45.0785" lon="4.09643">
        <ele>1136.9</ele>
        <time>2022-10-05T09:57:37Z</time>
      </trkpt>
      <trkpt lat="45.07827" lon="4.0964">
        <ele>1137.86</ele>
        <time>2022-10-05T09:57:55Z</time>
      </trkpt>
      <trkpt lat="45.0781" lon="4.09643">
        <ele>1139.3</ele>
        <time>2022-10-05T09:58:11Z</time>
      </trkpt>
      <trkpt lat="45.07789" lon="4.09658">
        <ele>1140.26</ele>
        <time>2022-10-05T09:58:30Z</time>
      </trkpt>
      <trkpt lat="45.07775" lon="4.09665">
        <ele>1139.78</ele>
        <time>2022-10-05T09:58:48Z</time>
      </trkpt>
      <trkpt lat="45.0778" lon="4.09663">
        <ele>1137.38</ele>
        <time>2022-10-05T09:58:54Z</time>
      </trkpt>
      <trkpt lat="45.07785" lon="4.09661">
        <ele>1136.42</ele>
        <time>2022-10-05T09:59:10Z</time>
      </trkpt>
      <trkpt lat="45.07792" lon="4.09659">
        <ele>1136.9</ele>
        <time>2022-10-05T09:59:25Z</time>
      </trkpt>
      <trkpt lat="45.0781" lon="4.09651">
        <ele>1135.45</ele>
        <time>2022-10-05T09:59:40Z</time>
      </trkpt>
      <trkpt lat="45.07828" lon="4.09646">
        <ele>1134.01</ele>
        <time>2022-10-05T09:59:56Z</time>
      </trkpt>
      <trkpt lat="45.07852" lon="4.09638">
        <ele>1134.97</ele>
        <time>2022-10-05T10:00:15Z</time>
      </trkpt>
      <trkpt lat="45.07861" lon="4.09637">
        <ele>1134.49</ele>
        <time>2022-10-05T10:00:27Z</time>
      </trkpt>
      <trkpt lat="45.07857" lon="4.09636">
        <ele>1134.97</ele>
        <time>2022-10-05T10:00:31Z</time>
      </trkpt>
      <trkpt lat="45.07853" lon="4.09619">
        <ele>1135.45</ele>
        <time>2022-10-05T10:00:41Z</time>
      </trkpt>
      <trkpt lat="45.07847" lon="4.09594">
        <ele>1134.97</ele>
        <time>2022-10-05T10:00:58Z</time>
      </trkpt>
      <trkpt lat="45.07832" lon="4.09571">
        <ele>1133.53</ele>
        <time>2022-10-05T10:01:14Z</time>
      </trkpt>
      <trkpt lat="45.07812" lon="4.09557">
        <ele>1132.57</ele>
        <time>2022-10-05T10:01:31Z</time>
      </trkpt>
      <trkpt lat="45.07797" lon="4.09545">
        <ele>1131.13</ele>
        <time>2022-10-05T10:01:46Z</time>
      </trkpt>
      <trkpt lat="45.07782" lon="4.09531">
        <ele>1129.21</ele>
        <time>2022-10-05T10:02:04Z</time>
      </trkpt>
      <trkpt lat="45.07776" lon="4.09525">
        <ele>1128.73</ele>
        <time>2022-10-05T10:02:21Z</time>
      </trkpt>
      <trkpt lat="45.07774" lon="4.09526">
        <ele>1130.17</ele>
        <time>2022-10-05T10:02:59Z</time>
      </trkpt>
      <trkpt lat="45.07771" lon="4.09524">
        <ele>1133.53</ele>
        <time>2022-10-05T10:03:17Z</time>
      </trkpt>
      <trkpt lat="45.07763" lon="4.09515">
        <ele>1131.13</ele>
        <time>2022-10-05T10:03:31Z</time>
      </trkpt>
      <trkpt lat="45.07753" lon="4.09503">
        <ele>1125.84</ele>
        <time>2022-10-05T10:03:45Z</time>
      </trkpt>
      <trkpt lat="45.07736" lon="4.09484">
        <ele>1122.48</ele>
        <time>2022-10-05T10:04:01Z</time>
      </trkpt>
      <trkpt lat="45.07721" lon="4.09468">
        <ele>1119.11</ele>
        <time>2022-10-05T10:04:15Z</time>
      </trkpt>
      <trkpt lat="45.07713" lon="4.09458">
        <ele>1114.79</ele>
        <time>2022-10-05T10:04:31Z</time>
      </trkpt>
      <trkpt lat="45.07705" lon="4.09452">
        <ele>1114.31</ele>
        <time>2022-10-05T10:04:45Z</time>
      </trkpt>
      <trkpt lat="45.07696" lon="4.09443">
        <ele>1115.75</ele>
        <time>2022-10-05T10:05:00Z</time>
      </trkpt>
      <trkpt lat="45.07698" lon="4.09445">
        <ele>1117.67</ele>
        <time>2022-10-05T10:05:15Z</time>
      </trkpt>
      <trkpt lat="45.07701" lon="4.09451">
        <ele>1119.59</ele>
        <time>2022-10-05T10:05:30Z</time>
      </trkpt>
      <trkpt lat="45.07698" lon="4.09447">
        <ele>1121.52</ele>
        <time>2022-10-05T10:05:54Z</time>
      </trkpt>
      <trkpt lat="45.07688" lon="4.09434">
        <ele>1120.07</ele>
        <time>2022-10-05T10:06:08Z</time>
      </trkpt>
      <trkpt lat="45.07675" lon="4.09418">
        <ele>1117.67</ele>
        <time>2022-10-05T10:06:23Z</time>
      </trkpt>
      <trkpt lat="45.0766" lon="4.09406">
        <ele>1116.71</ele>
        <time>2022-10-05T10:06:37Z</time>
      </trkpt>
      <trkpt lat="45.07644" lon="4.09392">
        <ele>1114.79</ele>
        <time>2022-10-05T10:06:51Z</time>
      </trkpt>
      <trkpt lat="45.07625" lon="4.09383">
        <ele>1112.86</ele>
        <time>2022-10-05T10:07:06Z</time>
      </trkpt>
      <trkpt lat="45.07623" lon="4.09382">
        <ele>1112.38</ele>
        <time>2022-10-05T10:07:07Z</time>
      </trkpt>
      <trkpt lat="45.07601" lon="4.09381">
        <ele>1110.94</ele>
        <time>2022-10-05T10:07:23Z</time>
      </trkpt>
      <trkpt lat="45.07595" lon="4.09381">
        <ele>1109.98</ele>
        <time>2022-10-05T10:07:28Z</time>
      </trkpt>
      <trkpt lat="45.0758" lon="4.09395">
        <ele>1111.42</ele>
        <time>2022-10-05T10:07:42Z</time>
      </trkpt>
      <trkpt lat="45.07563" lon="4.09433">
        <ele>1109.5</ele>
        <time>2022-10-05T10:08:06Z</time>
      </trkpt>
      <trkpt lat="45.07562" lon="4.0945">
        <ele>1107.1</ele>
        <time>2022-10-05T10:08:16Z</time>
      </trkpt>
      <trkpt lat="45.07562" lon="4.09465">
        <ele>1108.54</ele>
        <time>2022-10-05T10:08:24Z</time>
      </trkpt>
      <trkpt lat="45.0756" lon="4.09472">
        <ele>1109.5</ele>
        <time>2022-10-05T10:08:31Z</time>
      </trkpt>
      <trkpt lat="45.07541" lon="4.09484">
        <ele>1108.06</ele>
        <time>2022-10-05T10:08:48Z</time>
      </trkpt>
      <trkpt lat="45.07528" lon="4.09504">
        <ele>1106.13</ele>
        <time>2022-10-05T10:09:04Z</time>
      </trkpt>
      <trkpt lat="45.07523" lon="4.09538">
        <ele>1106.61</ele>
        <time>2022-10-05T10:09:23Z</time>
      </trkpt>
      <trkpt lat="45.07521" lon="4.09543">
        <ele>1107.1</ele>
        <time>2022-10-05T10:09:26Z</time>
      </trkpt>
      <trkpt lat="45.07519" lon="4.09546">
        <ele>1107.58</ele>
        <time>2022-10-05T10:09:28Z</time>
      </trkpt>
      <trkpt lat="45.07503" lon="4.09551">
        <ele>1108.06</ele>
        <time>2022-10-05T10:09:42Z</time>
      </trkpt>
      <trkpt lat="45.07483" lon="4.09554">
        <ele>1108.06</ele>
        <time>2022-10-05T10:09:57Z</time>
      </trkpt>
      <trkpt lat="45.0748" lon="4.09554">
        <ele>1108.06</ele>
        <time>2022-10-05T10:10:00Z</time>
      </trkpt>
      <trkpt lat="45.07467" lon="4.09565">
        <ele>1109.5</ele>
        <time>2022-10-05T10:10:14Z</time>
      </trkpt>
      <trkpt lat="45.07465" lon="4.09568">
        <ele>1109.98</ele>
        <time>2022-10-05T10:10:16Z</time>
      </trkpt>
      <trkpt lat="45.07461" lon="4.09592">
        <ele>1111.42</ele>
        <time>2022-10-05T10:10:33Z</time>
      </trkpt>
      <trkpt lat="45.07453" lon="4.09612">
        <ele>1111.42</ele>
        <time>2022-10-05T10:10:49Z</time>
      </trkpt>
      <trkpt lat="45.07443" lon="4.09614">
        <ele>1111.42</ele>
        <time>2022-10-05T10:11:02Z</time>
      </trkpt>
      <trkpt lat="45.07431" lon="4.09614">
        <ele>1112.86</ele>
        <time>2022-10-05T10:11:09Z</time>
      </trkpt>
      <trkpt lat="45.07403" lon="4.09628">
        <ele>1118.15</ele>
        <time>2022-10-05T10:11:30Z</time>
      </trkpt>
      <trkpt lat="45.07394" lon="4.09634">
        <ele>1118.63</ele>
        <time>2022-10-05T10:11:45Z</time>
      </trkpt>
      <trkpt lat="45.07376" lon="4.09649">
        <ele>1120.55</ele>
        <time>2022-10-05T10:12:02Z</time>
      </trkpt>
      <trkpt lat="45.07357" lon="4.09663">
        <ele>1122.48</ele>
        <time>2022-10-05T10:12:21Z</time>
      </trkpt>
      <trkpt lat="45.07342" lon="4.09672">
        <ele>1124.88</ele>
        <time>2022-10-05T10:12:38Z</time>
      </trkpt>
      <trkpt lat="45.07333" lon="4.09674">
        <ele>1124.88</ele>
        <time>2022-10-05T10:12:47Z</time>
      </trkpt>
      <trkpt lat="45.07313" lon="4.09676">
        <ele>1125.36</ele>
        <time>2022-10-05T10:13:06Z</time>
      </trkpt>
      <trkpt lat="45.07298" lon="4.09681">
        <ele>1131.13</ele>
        <time>2022-10-05T10:13:20Z</time>
      </trkpt>
      <trkpt lat="45.07287" lon="4.09686">
        <ele>1134.97</ele>
        <time>2022-10-05T10:13:34Z</time>
      </trkpt>
      <trkpt lat="45.07279" lon="4.09684">
        <ele>1134.01</ele>
        <time>2022-10-05T10:13:44Z</time>
      </trkpt>
      <trkpt lat="45.07266" lon="4.09676">
        <ele>1135.45</ele>
        <time>2022-10-05T10:13:58Z</time>
      </trkpt>
      <trkpt lat="45.07253" lon="4.09675">
        <ele>1136.9</ele>
        <time>2022-10-05T10:14:12Z</time>
      </trkpt>
      <trkpt lat="45.07251" lon="4.09675">
        <ele>1136.9</ele>
        <time>2022-10-05T10:14:14Z</time>
      </trkpt>
      <trkpt lat="45.07239" lon="4.09676">
        <ele>1136.9</ele>
        <time>2022-10-05T10:14:31Z</time>
      </trkpt>
      <trkpt lat="45.07238" lon="4.09674">
        <ele>1135.45</ele>
        <time>2022-10-05T10:14:47Z</time>
      </trkpt>
      <trkpt lat="45.07239" lon="4.09675">
        <ele>1137.38</ele>
        <time>2022-10-05T10:15:05Z</time>
      </trkpt>
      <trkpt lat="45.07239" lon="4.09675">
        <ele>1137.38</ele>
        <time>2022-10-05T10:15:23Z</time>
      </trkpt>
      <trkpt lat="45.07238" lon="4.09676">
        <ele>1135.94</ele>
        <time>2022-10-05T10:15:40Z</time>
      </trkpt>
      <trkpt lat="45.07237" lon="4.09676">
        <ele>1134.49</ele>
        <time>2022-10-05T10:15:53Z</time>
      </trkpt>
      <trkpt lat="45.07233" lon="4.09677">
        <ele>1134.49</ele>
        <time>2022-10-05T10:16:08Z</time>
      </trkpt>
      <trkpt lat="45.07229" lon="4.09679">
        <ele>1134.49</ele>
        <time>2022-10-05T10:16:12Z</time>
      </trkpt>
      <trkpt lat="45.0722" lon="4.09686">
        <ele>1135.94</ele>
        <time>2022-10-05T10:16:30Z</time>
      </trkpt>
      <trkpt lat="45.07214" lon="4.09695">
        <ele>1133.05</ele>
        <time>2022-10-05T10:16:45Z</time>
      </trkpt>
      <trkpt lat="45.07217" lon="4.09706">
        <ele>1130.65</ele>
        <time>2022-10-05T10:16:56Z</time>
      </trkpt>
      <trkpt lat="45.07219" lon="4.09738">
        <ele>1134.49</ele>
        <time>2022-10-05T10:17:13Z</time>
      </trkpt>
      <trkpt lat="45.07221" lon="4.09758">
        <ele>1137.38</ele>
        <time>2022-10-05T10:17:27Z</time>
      </trkpt>
      <trkpt lat="45.07222" lon="4.09767">
        <ele>1140.26</ele>
        <time>2022-10-05T10:17:39Z</time>
      </trkpt>
      <trkpt lat="45.07222" lon="4.09766">
        <ele>1140.74</ele>
        <time>2022-10-05T10:17:40Z</time>
      </trkpt>
      <trkpt lat="45.07221" lon="4.09761">
        <ele>1141.22</ele>
        <time>2022-10-05T10:17:55Z</time>
      </trkpt>
      <trkpt lat="45.07222" lon="4.09769">
        <ele>1143.63</ele>
        <time>2022-10-05T10:18:21Z</time>
      </trkpt>
      <trkpt lat="45.07225" lon="4.09775">
        <ele>1142.66</ele>
        <time>2022-10-05T10:18:27Z</time>
      </trkpt>
      <trkpt lat="45.0723" lon="4.09791">
        <ele>1145.55</ele>
        <time>2022-10-05T10:18:44Z</time>
      </trkpt>
      <trkpt lat="45.07228" lon="4.09795">
        <ele>1148.43</ele>
        <time>2022-10-05T10:19:00Z</time>
      </trkpt>
      <trkpt lat="45.07232" lon="4.09799">
        <ele>1152.28</ele>
        <time>2022-10-05T10:19:22Z</time>
      </trkpt>
      <trkpt lat="45.07235" lon="4.09798">
        <ele>1152.76</ele>
        <time>2022-10-05T10:19:35Z</time>
      </trkpt>
      <trkpt lat="45.07245" lon="4.09807">
        <ele>1151.8</ele>
        <time>2022-10-05T10:19:49Z</time>
      </trkpt>
      <trkpt lat="45.07248" lon="4.0981">
        <ele>1150.35</ele>
        <time>2022-10-05T10:19:53Z</time>
      </trkpt>
      <trkpt lat="45.07255" lon="4.09814">
        <ele>1147.95</ele>
        <time>2022-10-05T10:19:59Z</time>
      </trkpt>
      <trkpt lat="45.07272" lon="4.09822">
        <ele>1142.66</ele>
        <time>2022-10-05T10:20:16Z</time>
      </trkpt>
      <trkpt lat="45.07276" lon="4.09827">
        <ele>1141.7</ele>
        <time>2022-10-05T10:20:21Z</time>
      </trkpt>
      <trkpt lat="45.073" lon="4.09853">
        <ele>1145.07</ele>
        <time>2022-10-05T10:20:44Z</time>
      </trkpt>
      <trkpt lat="45.07322" lon="4.09874">
        <ele>1144.59</ele>
        <time>2022-10-05T10:21:04Z</time>
      </trkpt>
      <trkpt lat="45.07341" lon="4.09898">
        <ele>1145.55</ele>
        <time>2022-10-05T10:21:25Z</time>
      </trkpt>
      <trkpt lat="45.07355" lon="4.09926">
        <ele>1146.03</ele>
        <time>2022-10-05T10:21:45Z</time>
      </trkpt>
      <trkpt lat="45.0735" lon="4.09958">
        <ele>1146.99</ele>
        <time>2022-10-05T10:22:04Z</time>
      </trkpt>
      <trkpt lat="45.07339" lon="4.09987">
        <ele>1146.51</ele>
        <time>2022-10-05T10:22:22Z</time>
      </trkpt>
      <trkpt lat="45.07326" lon="4.10014">
        <ele>1147.47</ele>
        <time>2022-10-05T10:22:40Z</time>
      </trkpt>
      <trkpt lat="45.07304" lon="4.10046">
        <ele>1146.51</ele>
        <time>2022-10-05T10:23:04Z</time>
      </trkpt>
      <trkpt lat="45.07287" lon="4.10073">
        <ele>1145.07</ele>
        <time>2022-10-05T10:23:24Z</time>
      </trkpt>
      <trkpt lat="45.07272" lon="4.10094">
        <ele>1146.03</ele>
        <time>2022-10-05T10:23:43Z</time>
      </trkpt>
      <trkpt lat="45.07274" lon="4.10092">
        <ele>1145.55</ele>
        <time>2022-10-05T10:23:56Z</time>
      </trkpt>
      <trkpt lat="45.07276" lon="4.10094">
        <ele>1147.47</ele>
        <time>2022-10-05T10:24:35Z</time>
      </trkpt>
      <trkpt lat="45.07278" lon="4.10095">
        <ele>1149.39</ele>
        <time>2022-10-05T10:24:59Z</time>
      </trkpt>
      <trkpt lat="45.07264" lon="4.10125">
        <ele>1142.66</ele>
        <time>2022-10-05T10:25:18Z</time>
      </trkpt>
      <trkpt lat="45.07256" lon="4.10135">
        <ele>1142.18</ele>
        <time>2022-10-05T10:25:34Z</time>
      </trkpt>
      <trkpt lat="45.07252" lon="4.10139">
        <ele>1146.51</ele>
        <time>2022-10-05T10:26:08Z</time>
      </trkpt>
      <trkpt lat="45.07237" lon="4.10154">
        <ele>1146.99</ele>
        <time>2022-10-05T10:26:24Z</time>
      </trkpt>
      <trkpt lat="45.07233" lon="4.10158">
        <ele>1146.99</ele>
        <time>2022-10-05T10:26:28Z</time>
      </trkpt>
      <trkpt lat="45.0721" lon="4.10182">
        <ele>1144.59</ele>
        <time>2022-10-05T10:26:52Z</time>
      </trkpt>
      <trkpt lat="45.07194" lon="4.10207">
        <ele>1144.59</ele>
        <time>2022-10-05T10:27:11Z</time>
      </trkpt>
      <trkpt lat="45.07183" lon="4.10231">
        <ele>1142.18</ele>
        <time>2022-10-05T10:27:28Z</time>
      </trkpt>
      <trkpt lat="45.07174" lon="4.10259">
        <ele>1142.66</ele>
        <time>2022-10-05T10:27:45Z</time>
      </trkpt>
      <trkpt lat="45.07163" lon="4.10289">
        <ele>1145.55</ele>
        <time>2022-10-05T10:28:03Z</time>
      </trkpt>
      <trkpt lat="45.07156" lon="4.10311">
        <ele>1146.99</ele>
        <time>2022-10-05T10:28:17Z</time>
      </trkpt>
      <trkpt lat="45.07143" lon="4.10339">
        <ele>1146.99</ele>
        <time>2022-10-05T10:28:35Z</time>
      </trkpt>
      <trkpt lat="45.07125" lon="4.10365">
        <ele>1147.95</ele>
        <time>2022-10-05T10:28:54Z</time>
      </trkpt>
      <trkpt lat="45.07109" lon="4.1039">
        <ele>1150.35</ele>
        <time>2022-10-05T10:29:12Z</time>
      </trkpt>
      <trkpt lat="45.07101" lon="4.10409">
        <ele>1144.11</ele>
        <time>2022-10-05T10:29:27Z</time>
      </trkpt>
      <trkpt lat="45.07093" lon="4.1043">
        <ele>1141.22</ele>
        <time>2022-10-05T10:29:41Z</time>
      </trkpt>
      <trkpt lat="45.07087" lon="4.10445">
        <ele>1142.66</ele>
        <time>2022-10-05T10:29:53Z</time>
      </trkpt>
      <trkpt lat="45.07081" lon="4.10468">
        <ele>1144.59</ele>
        <time>2022-10-05T10:30:08Z</time>
      </trkpt>
      <trkpt lat="45.07075" lon="4.10495">
        <ele>1148.43</ele>
        <time>2022-10-05T10:30:23Z</time>
      </trkpt>
      <trkpt lat="45.07068" lon="4.10509">
        <ele>1148.43</ele>
        <time>2022-10-05T10:30:34Z</time>
      </trkpt>
      <trkpt lat="45.07055" lon="4.10531">
        <ele>1151.8</ele>
        <time>2022-10-05T10:30:51Z</time>
      </trkpt>
      <trkpt lat="45.07041" lon="4.10548">
        <ele>1157.56</ele>
        <time>2022-10-05T10:31:08Z</time>
      </trkpt>
      <trkpt lat="45.07029" lon="4.10569">
        <ele>1158.53</ele>
        <time>2022-10-05T10:31:26Z</time>
      </trkpt>
      <trkpt lat="45.07017" lon="4.10593">
        <ele>1163.33</ele>
        <time>2022-10-05T10:31:43Z</time>
      </trkpt>
      <trkpt lat="45.07008" lon="4.10605">
        <ele>1165.26</ele>
        <time>2022-10-05T10:31:53Z</time>
      </trkpt>
      <trkpt lat="45.06989" lon="4.10613">
        <ele>1167.66</ele>
        <time>2022-10-05T10:32:10Z</time>
      </trkpt>
      <trkpt lat="45.06971" lon="4.10623">
        <ele>1169.1</ele>
        <time>2022-10-05T10:32:26Z</time>
      </trkpt>
      <trkpt lat="45.06953" lon="4.10633">
        <ele>1169.58</ele>
        <time>2022-10-05T10:32:44Z</time>
      </trkpt>
      <trkpt lat="45.06951" lon="4.10635">
        <ele>1169.58</ele>
        <time>2022-10-05T10:32:58Z</time>
      </trkpt>
      <trkpt lat="45.06952" lon="4.10638">
        <ele>1171.02</ele>
        <time>2022-10-05T10:33:14Z</time>
      </trkpt>
      <trkpt lat="45.06951" lon="4.10644">
        <ele>1170.06</ele>
        <time>2022-10-05T10:33:31Z</time>
      </trkpt>
      <trkpt lat="45.06946" lon="4.10665">
        <ele>1169.1</ele>
        <time>2022-10-05T10:33:46Z</time>
      </trkpt>
      <trkpt lat="45.0694" lon="4.10692">
        <ele>1170.06</ele>
        <time>2022-10-05T10:34:04Z</time>
      </trkpt>
      <trkpt lat="45.06934" lon="4.10719">
        <ele>1172.95</ele>
        <time>2022-10-05T10:34:20Z</time>
      </trkpt>
      <trkpt lat="45.06929" lon="4.10735">
        <ele>1173.43</ele>
        <time>2022-10-05T10:34:35Z</time>
      </trkpt>
      <trkpt lat="45.06925" lon="4.10755">
        <ele>1172.47</ele>
        <time>2022-10-05T10:34:49Z</time>
      </trkpt>
      <trkpt lat="45.06917" lon="4.10776">
        <ele>1171.02</ele>
        <time>2022-10-05T10:35:04Z</time>
      </trkpt>
      <trkpt lat="45.06916" lon="4.10778">
        <ele>1171.02</ele>
        <time>2022-10-05T10:35:06Z</time>
      </trkpt>
      <trkpt lat="45.06912" lon="4.10798">
        <ele>1168.62</ele>
        <time>2022-10-05T10:35:19Z</time>
      </trkpt>
      <trkpt lat="45.06907" lon="4.10821">
        <ele>1167.18</ele>
        <time>2022-10-05T10:35:34Z</time>
      </trkpt>
      <trkpt lat="45.06906" lon="4.10845">
        <ele>1170.54</ele>
        <time>2022-10-05T10:35:50Z</time>
      </trkpt>
      <trkpt lat="45.06906" lon="4.10863">
        <ele>1171.02</ele>
        <time>2022-10-05T10:36:04Z</time>
      </trkpt>
      <trkpt lat="45.06907" lon="4.10881">
        <ele>1174.87</ele>
        <time>2022-10-05T10:36:20Z</time>
      </trkpt>
      <trkpt lat="45.06901" lon="4.10901">
        <ele>1175.35</ele>
        <time>2022-10-05T10:36:35Z</time>
      </trkpt>
      <trkpt lat="45.06901" lon="4.10924">
        <ele>1177.27</ele>
        <time>2022-10-05T10:36:48Z</time>
      </trkpt>
      <trkpt lat="45.06904" lon="4.10941">
        <ele>1179.19</ele>
        <time>2022-10-05T10:37:01Z</time>
      </trkpt>
      <trkpt lat="45.06914" lon="4.10962">
        <ele>1181.12</ele>
        <time>2022-10-05T10:37:16Z</time>
      </trkpt>
      <trkpt lat="45.06919" lon="4.10981">
        <ele>1181.6</ele>
        <time>2022-10-05T10:37:30Z</time>
      </trkpt>
      <trkpt lat="45.06921" lon="4.10996">
        <ele>1180.16</ele>
        <time>2022-10-05T10:37:42Z</time>
      </trkpt>
      <trkpt lat="45.06924" lon="4.11014">
        <ele>1179.67</ele>
        <time>2022-10-05T10:37:54Z</time>
      </trkpt>
      <trkpt lat="45.06934" lon="4.11032">
        <ele>1189.29</ele>
        <time>2022-10-05T10:38:08Z</time>
      </trkpt>
      <trkpt lat="45.0694" lon="4.11043">
        <ele>1199.86</ele>
        <time>2022-10-05T10:38:21Z</time>
      </trkpt>
      <trkpt lat="45.06946" lon="4.11051">
        <ele>1204.67</ele>
        <time>2022-10-05T10:38:36Z</time>
      </trkpt>
      <trkpt lat="45.06946" lon="4.1105">
        <ele>1205.15</ele>
        <time>2022-10-05T10:38:50Z</time>
      </trkpt>
      <trkpt lat="45.06944" lon="4.11049">
        <ele>1208.03</ele>
        <time>2022-10-05T10:39:04Z</time>
      </trkpt>
      <trkpt lat="45.06948" lon="4.1105">
        <ele>1210.92</ele>
        <time>2022-10-05T10:39:28Z</time>
      </trkpt>
      <trkpt lat="45.06947" lon="4.1105">
        <ele>1210.92</ele>
        <time>2022-10-05T10:39:43Z</time>
      </trkpt>
      <trkpt lat="45.06945" lon="4.11068">
        <ele>1208.51</ele>
        <time>2022-10-05T10:39:58Z</time>
      </trkpt>
      <trkpt lat="45.06946" lon="4.11071">
        <ele>1209</ele>
        <time>2022-10-05T10:40:01Z</time>
      </trkpt>
      <trkpt lat="45.06958" lon="4.11044">
        <ele>1208.03</ele>
        <time>2022-10-05T10:40:21Z</time>
      </trkpt>
      <trkpt lat="45.06969" lon="4.11032">
        <ele>1205.63</ele>
        <time>2022-10-05T10:40:35Z</time>
      </trkpt>
      <trkpt lat="45.06968" lon="4.11035">
        <ele>1206.11</ele>
        <time>2022-10-05T10:40:57Z</time>
      </trkpt>
      <trkpt lat="45.06969" lon="4.11035">
        <ele>1205.63</ele>
        <time>2022-10-05T10:41:14Z</time>
      </trkpt>
      <trkpt lat="45.06969" lon="4.11036">
        <ele>1206.59</ele>
        <time>2022-10-05T10:41:51Z</time>
      </trkpt>
      <trkpt lat="45.06958" lon="4.11035">
        <ele>1209.48</ele>
        <time>2022-10-05T10:42:19Z</time>
      </trkpt>
      <trkpt lat="45.0696" lon="4.11034">
        <ele>1209</ele>
        <time>2022-10-05T10:42:32Z</time>
      </trkpt>
      <trkpt lat="45.06965" lon="4.11027">
        <ele>1207.07</ele>
        <time>2022-10-05T10:42:38Z</time>
      </trkpt>
      <trkpt lat="45.06964" lon="4.11021">
        <ele>1208.51</ele>
        <time>2022-10-05T10:42:52Z</time>
      </trkpt>
      <trkpt lat="45.06966" lon="4.11019">
        <ele>1206.59</ele>
        <time>2022-10-05T10:43:24Z</time>
      </trkpt>
      <trkpt lat="45.06964" lon="4.1102">
        <ele>1205.15</ele>
        <time>2022-10-05T10:43:43Z</time>
      </trkpt>
      <trkpt lat="45.06958" lon="4.11031">
        <ele>1204.19</ele>
        <time>2022-10-05T10:44:14Z</time>
      </trkpt>
      <trkpt lat="45.06956" lon="4.11037">
        <ele>1204.19</ele>
        <time>2022-10-05T10:44:19Z</time>
      </trkpt>
      <trkpt lat="45.06944" lon="4.1107">
        <ele>1205.15</ele>
        <time>2022-10-05T10:44:40Z</time>
      </trkpt>
      <trkpt lat="45.06943" lon="4.11099">
        <ele>1205.63</ele>
        <time>2022-10-05T10:44:56Z</time>
      </trkpt>
      <trkpt lat="45.06949" lon="4.11135">
        <ele>1209</ele>
        <time>2022-10-05T10:45:18Z</time>
      </trkpt>
      <trkpt lat="45.06952" lon="4.11164">
        <ele>1210.92</ele>
        <time>2022-10-05T10:45:37Z</time>
      </trkpt>
      <trkpt lat="45.06953" lon="4.11176">
        <ele>1211.88</ele>
        <time>2022-10-05T10:45:48Z</time>
      </trkpt>
      <trkpt lat="45.06954" lon="4.112">
        <ele>1213.32</ele>
        <time>2022-10-05T10:46:03Z</time>
      </trkpt>
      <trkpt lat="45.06954" lon="4.11228">
        <ele>1212.36</ele>
        <time>2022-10-05T10:46:21Z</time>
      </trkpt>
      <trkpt lat="45.06952" lon="4.11253">
        <ele>1212.36</ele>
        <time>2022-10-05T10:46:37Z</time>
      </trkpt>
      <trkpt lat="45.06948" lon="4.11285">
        <ele>1213.8</ele>
        <time>2022-10-05T10:46:55Z</time>
      </trkpt>
      <trkpt lat="45.06941" lon="4.11315">
        <ele>1214.76</ele>
        <time>2022-10-05T10:47:13Z</time>
      </trkpt>
      <trkpt lat="45.06929" lon="4.11348">
        <ele>1220.53</ele>
        <time>2022-10-05T10:47:33Z</time>
      </trkpt>
      <trkpt lat="45.06915" lon="4.11377">
        <ele>1223.42</ele>
        <time>2022-10-05T10:47:52Z</time>
      </trkpt>
      <trkpt lat="45.06915" lon="4.11379">
        <ele>1224.38</ele>
        <time>2022-10-05T10:47:54Z</time>
      </trkpt>
      <trkpt lat="45.06912" lon="4.11401">
        <ele>1230.14</ele>
        <time>2022-10-05T10:48:10Z</time>
      </trkpt>
      <trkpt lat="45.0691" lon="4.11418">
        <ele>1232.55</ele>
        <time>2022-10-05T10:48:23Z</time>
      </trkpt>
      <trkpt lat="45.0691" lon="4.11436">
        <ele>1233.99</ele>
        <time>2022-10-05T10:48:38Z</time>
      </trkpt>
      <trkpt lat="45.06911" lon="4.11438">
        <ele>1233.99</ele>
        <time>2022-10-05T10:48:39Z</time>
      </trkpt>
      <trkpt lat="45.06912" lon="4.11462">
        <ele>1235.43</ele>
        <time>2022-10-05T10:48:55Z</time>
      </trkpt>
      <trkpt lat="45.06913" lon="4.11481">
        <ele>1236.87</ele>
        <time>2022-10-05T10:49:09Z</time>
      </trkpt>
      <trkpt lat="45.06916" lon="4.11498">
        <ele>1236.39</ele>
        <time>2022-10-05T10:49:22Z</time>
      </trkpt>
      <trkpt lat="45.06921" lon="4.1152">
        <ele>1238.32</ele>
        <time>2022-10-05T10:49:38Z</time>
      </trkpt>
      <trkpt lat="45.06925" lon="4.11541">
        <ele>1238.32</ele>
        <time>2022-10-05T10:49:54Z</time>
      </trkpt>
      <trkpt lat="45.06925" lon="4.11564">
        <ele>1243.12</ele>
        <time>2022-10-05T10:50:09Z</time>
      </trkpt>
      <trkpt lat="45.06928" lon="4.11587">
        <ele>1247.45</ele>
        <time>2022-10-05T10:50:26Z</time>
      </trkpt>
      <trkpt lat="45.06934" lon="4.11603">
        <ele>1250.33</ele>
        <time>2022-10-05T10:50:44Z</time>
      </trkpt>
      <trkpt lat="45.06932" lon="4.11605">
        <ele>1254.18</ele>
        <time>2022-10-05T10:50:55Z</time>
      </trkpt>
      <trkpt lat="45.06929" lon="4.11617">
        <ele>1254.66</ele>
        <time>2022-10-05T10:51:07Z</time>
      </trkpt>
      <trkpt lat="45.06929" lon="4.11618">
        <ele>1253.7</ele>
        <time>2022-10-05T10:51:21Z</time>
      </trkpt>
      <trkpt lat="45.06924" lon="4.11652">
        <ele>1254.66</ele>
        <time>2022-10-05T10:51:42Z</time>
      </trkpt>
      <trkpt lat="45.0692" lon="4.11681">
        <ele>1257.06</ele>
        <time>2022-10-05T10:52:01Z</time>
      </trkpt>
      <trkpt lat="45.06915" lon="4.11708">
        <ele>1259.94</ele>
        <time>2022-10-05T10:52:19Z</time>
      </trkpt>
      <trkpt lat="45.06912" lon="4.11734">
        <ele>1261.87</ele>
        <time>2022-10-05T10:52:36Z</time>
      </trkpt>
      <trkpt lat="45.06906" lon="4.11765">
        <ele>1264.75</ele>
        <time>2022-10-05T10:52:55Z</time>
      </trkpt>
      <trkpt lat="45.0691" lon="4.11795">
        <ele>1266.19</ele>
        <time>2022-10-05T10:53:13Z</time>
      </trkpt>
      <trkpt lat="45.06921" lon="4.11822">
        <ele>1268.12</ele>
        <time>2022-10-05T10:53:33Z</time>
      </trkpt>
      <trkpt lat="45.06939" lon="4.11845">
        <ele>1271</ele>
        <time>2022-10-05T10:53:54Z</time>
      </trkpt>
      <trkpt lat="45.06948" lon="4.11875">
        <ele>1272.44</ele>
        <time>2022-10-05T10:54:14Z</time>
      </trkpt>
      <trkpt lat="45.06952" lon="4.11902">
        <ele>1273.4</ele>
        <time>2022-10-05T10:54:32Z</time>
      </trkpt>
      <trkpt lat="45.06959" lon="4.11925">
        <ele>1274.85</ele>
        <time>2022-10-05T10:54:49Z</time>
      </trkpt>
      <trkpt lat="45.06959" lon="4.11928">
        <ele>1275.81</ele>
        <time>2022-10-05T10:54:53Z</time>
      </trkpt>
      <trkpt lat="45.06958" lon="4.11966">
        <ele>1279.65</ele>
        <time>2022-10-05T10:55:16Z</time>
      </trkpt>
      <trkpt lat="45.06963" lon="4.12004">
        <ele>1277.25</ele>
        <time>2022-10-05T10:55:38Z</time>
      </trkpt>
      <trkpt lat="45.0697" lon="4.12031">
        <ele>1278.69</ele>
        <time>2022-10-05T10:55:58Z</time>
      </trkpt>
      <trkpt lat="45.06974" lon="4.1205">
        <ele>1279.65</ele>
        <time>2022-10-05T10:56:12Z</time>
      </trkpt>
      <trkpt lat="45.06978" lon="4.12069">
        <ele>1279.17</ele>
        <time>2022-10-05T10:56:24Z</time>
      </trkpt>
      <trkpt lat="45.06988" lon="4.121">
        <ele>1276.77</ele>
        <time>2022-10-05T10:56:43Z</time>
      </trkpt>
      <trkpt lat="45.06997" lon="4.12122">
        <ele>1274.85</ele>
        <time>2022-10-05T10:56:57Z</time>
      </trkpt>
      <trkpt lat="45.06999" lon="4.12128">
        <ele>1274.36</ele>
        <time>2022-10-05T10:57:01Z</time>
      </trkpt>
      <trkpt lat="45.07007" lon="4.12156">
        <ele>1273.4</ele>
        <time>2022-10-05T10:57:19Z</time>
      </trkpt>
      <trkpt lat="45.07011" lon="4.12173">
        <ele>1271.48</ele>
        <time>2022-10-05T10:57:32Z</time>
      </trkpt>
      <trkpt lat="45.07011" lon="4.12174">
        <ele>1271.48</ele>
        <time>2022-10-05T10:57:33Z</time>
      </trkpt>
      <trkpt lat="45.07026" lon="4.12204">
        <ele>1270.52</ele>
        <time>2022-10-05T10:57:51Z</time>
      </trkpt>
      <trkpt lat="45.07028" lon="4.12211">
        <ele>1270.52</ele>
        <time>2022-10-05T10:57:55Z</time>
      </trkpt>
      <trkpt lat="45.07031" lon="4.12218">
        <ele>1270.52</ele>
        <time>2022-10-05T10:58:00Z</time>
      </trkpt>
      <trkpt lat="45.07045" lon="4.1225">
        <ele>1271.96</ele>
        <time>2022-10-05T10:58:21Z</time>
      </trkpt>
      <trkpt lat="45.07057" lon="4.12276">
        <ele>1271.96</ele>
        <time>2022-10-05T10:58:40Z</time>
      </trkpt>
      <trkpt lat="45.07058" lon="4.12279">
        <ele>1271.96</ele>
        <time>2022-10-05T10:58:42Z</time>
      </trkpt>
      <trkpt lat="45.0707" lon="4.12303">
        <ele>1272.44</ele>
        <time>2022-10-05T10:58:59Z</time>
      </trkpt>
      <trkpt lat="45.07079" lon="4.12314">
        <ele>1271.96</ele>
        <time>2022-10-05T10:59:09Z</time>
      </trkpt>
      <trkpt lat="45.071" lon="4.12335">
        <ele>1274.85</ele>
        <time>2022-10-05T10:59:30Z</time>
      </trkpt>
      <trkpt lat="45.07105" lon="4.12331">
        <ele>1277.73</ele>
        <time>2022-10-05T10:59:41Z</time>
      </trkpt>
      <trkpt lat="45.07104" lon="4.12333">
        <ele>1278.69</ele>
        <time>2022-10-05T10:59:59Z</time>
      </trkpt>
      <trkpt lat="45.07105" lon="4.12333">
        <ele>1279.17</ele>
        <time>2022-10-05T11:00:21Z</time>
      </trkpt>
      <trkpt lat="45.07104" lon="4.12333">
        <ele>1279.65</ele>
        <time>2022-10-05T11:00:51Z</time>
      </trkpt>
      <trkpt lat="45.07103" lon="4.12332">
        <ele>1279.65</ele>
        <time>2022-10-05T11:01:23Z</time>
      </trkpt>
      <trkpt lat="45.07102" lon="4.12332">
        <ele>1280.61</ele>
        <time>2022-10-05T11:01:50Z</time>
      </trkpt>
      <trkpt lat="45.07103" lon="4.12333">
        <ele>1281.09</ele>
        <time>2022-10-05T11:02:25Z</time>
      </trkpt>
      <trkpt lat="45.07102" lon="4.12333">
        <ele>1282.06</ele>
        <time>2022-10-05T11:03:01Z</time>
      </trkpt>
      <trkpt lat="45.07102" lon="4.12334">
        <ele>1282.54</ele>
        <time>2022-10-05T11:03:47Z</time>
      </trkpt>
      <trkpt lat="45.07103" lon="4.12332">
        <ele>1280.61</ele>
        <time>2022-10-05T11:04:20Z</time>
      </trkpt>
      <trkpt lat="45.07103" lon="4.1233">
        <ele>1278.69</ele>
        <time>2022-10-05T11:04:55Z</time>
      </trkpt>
      <trkpt lat="45.07103" lon="4.12331">
        <ele>1278.21</ele>
        <time>2022-10-05T11:05:39Z</time>
      </trkpt>
      <trkpt lat="45.07103" lon="4.12332">
        <ele>1278.21</ele>
        <time>2022-10-05T11:06:17Z</time>
      </trkpt>
      <trkpt lat="45.07104" lon="4.12333">
        <ele>1277.25</ele>
        <time>2022-10-05T11:06:53Z</time>
      </trkpt>
      <trkpt lat="45.07104" lon="4.12333">
        <ele>1277.25</ele>
        <time>2022-10-05T11:07:25Z</time>
      </trkpt>
      <trkpt lat="45.07103" lon="4.12332">
        <ele>1276.29</ele>
        <time>2022-10-05T11:08:08Z</time>
      </trkpt>
      <trkpt lat="45.07103" lon="4.12333">
        <ele>1276.29</ele>
        <time>2022-10-05T11:08:51Z</time>
      </trkpt>
      <trkpt lat="45.07103" lon="4.12332">
        <ele>1276.77</ele>
        <time>2022-10-05T11:09:27Z</time>
      </trkpt>
      <trkpt lat="45.07104" lon="4.12333">
        <ele>1277.73</ele>
        <time>2022-10-05T11:10:06Z</time>
      </trkpt>
      <trkpt lat="45.07103" lon="4.12333">
        <ele>1276.29</ele>
        <time>2022-10-05T11:10:49Z</time>
      </trkpt>
      <trkpt lat="45.07103" lon="4.12333">
        <ele>1276.29</ele>
        <time>2022-10-05T11:11:33Z</time>
      </trkpt>
      <trkpt lat="45.07103" lon="4.12333">
        <ele>1275.81</ele>
        <time>2022-10-05T11:12:13Z</time>
      </trkpt>
      <trkpt lat="45.07104" lon="4.12335">
        <ele>1275.33</ele>
        <time>2022-10-05T11:12:51Z</time>
      </trkpt>
      <trkpt lat="45.07104" lon="4.12335">
        <ele>1275.33</ele>
        <time>2022-10-05T11:13:25Z</time>
      </trkpt>
      <trkpt lat="45.07104" lon="4.12334">
        <ele>1276.77</ele>
        <time>2022-10-05T11:13:58Z</time>
      </trkpt>
      <trkpt lat="45.07105" lon="4.12334">
        <ele>1277.73</ele>
        <time>2022-10-05T11:14:29Z</time>
      </trkpt>
      <trkpt lat="45.07105" lon="4.12334">
        <ele>1279.17</ele>
        <time>2022-10-05T11:15:09Z</time>
      </trkpt>
      <trkpt lat="45.07106" lon="4.12334">
        <ele>1278.69</ele>
        <time>2022-10-05T11:15:47Z</time>
      </trkpt>
      <trkpt lat="45.07105" lon="4.12334">
        <ele>1279.65</ele>
        <time>2022-10-05T11:16:28Z</time>
      </trkpt>
      <trkpt lat="45.07104" lon="4.12334">
        <ele>1280.13</ele>
        <time>2022-10-05T11:16:52Z</time>
      </trkpt>
      <trkpt lat="45.07103" lon="4.12334">
        <ele>1280.61</ele>
        <time>2022-10-05T11:17:33Z</time>
      </trkpt>
      <trkpt lat="45.07103" lon="4.12335">
        <ele>1281.57</ele>
        <time>2022-10-05T11:18:16Z</time>
      </trkpt>
      <trkpt lat="45.07103" lon="4.12337">
        <ele>1282.06</ele>
        <time>2022-10-05T11:18:54Z</time>
      </trkpt>
      <trkpt lat="45.07103" lon="4.12335">
        <ele>1282.54</ele>
        <time>2022-10-05T11:19:43Z</time>
      </trkpt>
      <trkpt lat="45.07103" lon="4.12336">
        <ele>1283.98</ele>
        <time>2022-10-05T11:20:25Z</time>
      </trkpt>
      <trkpt lat="45.07103" lon="4.12335">
        <ele>1281.57</ele>
        <time>2022-10-05T11:21:02Z</time>
      </trkpt>
      <trkpt lat="45.07104" lon="4.12335">
        <ele>1281.57</ele>
        <time>2022-10-05T11:21:40Z</time>
      </trkpt>
      <trkpt lat="45.07104" lon="4.12336">
        <ele>1282.54</ele>
        <time>2022-10-05T11:22:23Z</time>
      </trkpt>
      <trkpt lat="45.07104" lon="4.12334">
        <ele>1283.02</ele>
        <time>2022-10-05T11:23:16Z</time>
      </trkpt>
      <trkpt lat="45.07103" lon="4.12334">
        <ele>1283.02</ele>
        <time>2022-10-05T11:23:59Z</time>
      </trkpt>
      <trkpt lat="45.07104" lon="4.12335">
        <ele>1281.57</ele>
        <time>2022-10-05T11:24:24Z</time>
      </trkpt>
      <trkpt lat="45.07104" lon="4.12336">
        <ele>1282.06</ele>
        <time>2022-10-05T11:25:02Z</time>
      </trkpt>
      <trkpt lat="45.07105" lon="4.12334">
        <ele>1278.21</ele>
        <time>2022-10-05T11:25:34Z</time>
      </trkpt>
      <trkpt lat="45.07106" lon="4.12335">
        <ele>1281.09</ele>
        <time>2022-10-05T11:25:49Z</time>
      </trkpt>
      <trkpt lat="45.07104" lon="4.12337">
        <ele>1279.65</ele>
        <time>2022-10-05T11:26:06Z</time>
      </trkpt>
      <trkpt lat="45.07104" lon="4.12344">
        <ele>1278.69</ele>
        <time>2022-10-05T11:26:21Z</time>
      </trkpt>
      <trkpt lat="45.07104" lon="4.12343">
        <ele>1280.61</ele>
        <time>2022-10-05T11:26:39Z</time>
      </trkpt>
      <trkpt lat="45.07105" lon="4.12343">
        <ele>1280.61</ele>
        <time>2022-10-05T11:26:55Z</time>
      </trkpt>
      <trkpt lat="45.07105" lon="4.12342">
        <ele>1280.61</ele>
        <time>2022-10-05T11:27:24Z</time>
      </trkpt>
      <trkpt lat="45.07106" lon="4.12346">
        <ele>1279.65</ele>
        <time>2022-10-05T11:27:34Z</time>
      </trkpt>
      <trkpt lat="45.0712" lon="4.12377">
        <ele>1277.73</ele>
        <time>2022-10-05T11:27:55Z</time>
      </trkpt>
      <trkpt lat="45.07133" lon="4.12401">
        <ele>1275.81</ele>
        <time>2022-10-05T11:28:12Z</time>
      </trkpt>
      <trkpt lat="45.07147" lon="4.12433">
        <ele>1272.92</ele>
        <time>2022-10-05T11:28:33Z</time>
      </trkpt>
      <trkpt lat="45.07155" lon="4.12465">
        <ele>1273.4</ele>
        <time>2022-10-05T11:28:54Z</time>
      </trkpt>
      <trkpt lat="45.07161" lon="4.12498">
        <ele>1271.96</ele>
        <time>2022-10-05T11:29:14Z</time>
      </trkpt>
      <trkpt lat="45.07167" lon="4.12526">
        <ele>1268.6</ele>
        <time>2022-10-05T11:29:33Z</time>
      </trkpt>
      <trkpt lat="45.07173" lon="4.12555">
        <ele>1267.64</ele>
        <time>2022-10-05T11:29:50Z</time>
      </trkpt>
      <trkpt lat="45.07176" lon="4.12573">
        <ele>1266.19</ele>
        <time>2022-10-05T11:30:01Z</time>
      </trkpt>
      <trkpt lat="45.07183" lon="4.12602">
        <ele>1262.83</ele>
        <time>2022-10-05T11:30:18Z</time>
      </trkpt>
      <trkpt lat="45.07197" lon="4.12623">
        <ele>1259.46</ele>
        <time>2022-10-05T11:30:35Z</time>
      </trkpt>
      <trkpt lat="45.07218" lon="4.12633">
        <ele>1258.5</ele>
        <time>2022-10-05T11:30:52Z</time>
      </trkpt>
      <trkpt lat="45.07234" lon="4.12652">
        <ele>1253.7</ele>
        <time>2022-10-05T11:31:10Z</time>
      </trkpt>
      <trkpt lat="45.07245" lon="4.12667">
        <ele>1247.93</ele>
        <time>2022-10-05T11:31:26Z</time>
      </trkpt>
      <trkpt lat="45.07257" lon="4.12687">
        <ele>1240.24</ele>
        <time>2022-10-05T11:31:43Z</time>
      </trkpt>
      <trkpt lat="45.07266" lon="4.12707">
        <ele>1235.43</ele>
        <time>2022-10-05T11:31:57Z</time>
      </trkpt>
      <trkpt lat="45.07273" lon="4.12731">
        <ele>1233.51</ele>
        <time>2022-10-05T11:32:14Z</time>
      </trkpt>
      <trkpt lat="45.07285" lon="4.12755">
        <ele>1228.7</ele>
        <time>2022-10-05T11:32:32Z</time>
      </trkpt>
      <trkpt lat="45.07294" lon="4.12779">
        <ele>1224.86</ele>
        <time>2022-10-05T11:32:49Z</time>
      </trkpt>
      <trkpt lat="45.07303" lon="4.12801">
        <ele>1222.93</ele>
        <time>2022-10-05T11:33:04Z</time>
      </trkpt>
      <trkpt lat="45.07311" lon="4.1283">
        <ele>1228.22</ele>
        <time>2022-10-05T11:33:22Z</time>
      </trkpt>
      <trkpt lat="45.07314" lon="4.12842">
        <ele>1231.59</ele>
        <time>2022-10-05T11:33:36Z</time>
      </trkpt>
      <trkpt lat="45.07316" lon="4.12851">
        <ele>1231.11</ele>
        <time>2022-10-05T11:33:51Z</time>
      </trkpt>
      <trkpt lat="45.0732" lon="4.12865">
        <ele>1229.66</ele>
        <time>2022-10-05T11:34:03Z</time>
      </trkpt>
      <trkpt lat="45.07327" lon="4.12884">
        <ele>1222.93</ele>
        <time>2022-10-05T11:34:16Z</time>
      </trkpt>
      <trkpt lat="45.07337" lon="4.12904">
        <ele>1218.13</ele>
        <time>2022-10-05T11:34:31Z</time>
      </trkpt>
      <trkpt lat="45.07348" lon="4.12925">
        <ele>1215.72</ele>
        <time>2022-10-05T11:34:45Z</time>
      </trkpt>
      <trkpt lat="45.07358" lon="4.12949">
        <ele>1211.88</ele>
        <time>2022-10-05T11:35:01Z</time>
      </trkpt>
      <trkpt lat="45.07369" lon="4.12972">
        <ele>1210.92</ele>
        <time>2022-10-05T11:35:18Z</time>
      </trkpt>
      <trkpt lat="45.07376" lon="4.12993">
        <ele>1210.92</ele>
        <time>2022-10-05T11:35:34Z</time>
      </trkpt>
      <trkpt lat="45.07383" lon="4.13015">
        <ele>1207.55</ele>
        <time>2022-10-05T11:35:50Z</time>
      </trkpt>
      <trkpt lat="45.0739" lon="4.13036">
        <ele>1200.34</ele>
        <time>2022-10-05T11:36:05Z</time>
      </trkpt>
      <trkpt lat="45.07393" lon="4.13058">
        <ele>1194.58</ele>
        <time>2022-10-05T11:36:19Z</time>
      </trkpt>
      <trkpt lat="45.07399" lon="4.13096">
        <ele>1206.11</ele>
        <time>2022-10-05T11:36:36Z</time>
      </trkpt>
      <trkpt lat="45.07414" lon="4.13127">
        <ele>1211.88</ele>
        <time>2022-10-05T11:36:56Z</time>
      </trkpt>
      <trkpt lat="45.07429" lon="4.13163">
        <ele>1209.96</ele>
        <time>2022-10-05T11:37:19Z</time>
      </trkpt>
      <trkpt lat="45.07441" lon="4.1319">
        <ele>1207.55</ele>
        <time>2022-10-05T11:37:36Z</time>
      </trkpt>
      <trkpt lat="45.07446" lon="4.13204">
        <ele>1209.48</ele>
        <time>2022-10-05T11:37:45Z</time>
      </trkpt>
      <trkpt lat="45.07458" lon="4.13236">
        <ele>1206.59</ele>
        <time>2022-10-05T11:38:04Z</time>
      </trkpt>
      <trkpt lat="45.07466" lon="4.13269">
        <ele>1201.3</ele>
        <time>2022-10-05T11:38:25Z</time>
      </trkpt>
      <trkpt lat="45.07468" lon="4.13301">
        <ele>1196.5</ele>
        <time>2022-10-05T11:38:44Z</time>
      </trkpt>
      <trkpt lat="45.07469" lon="4.13326">
        <ele>1193.61</ele>
        <time>2022-10-05T11:38:59Z</time>
      </trkpt>
      <trkpt lat="45.07472" lon="4.13354">
        <ele>1190.73</ele>
        <time>2022-10-05T11:39:15Z</time>
      </trkpt>
      <trkpt lat="45.0747" lon="4.13391">
        <ele>1191.69</ele>
        <time>2022-10-05T11:39:35Z</time>
      </trkpt>
      <trkpt lat="45.0747" lon="4.13422">
        <ele>1189.77</ele>
        <time>2022-10-05T11:39:52Z</time>
      </trkpt>
      <trkpt lat="45.07471" lon="4.13423">
        <ele>1189.77</ele>
        <time>2022-10-05T11:39:53Z</time>
      </trkpt>
      <trkpt lat="45.07472" lon="4.13461">
        <ele>1188.81</ele>
        <time>2022-10-05T11:40:13Z</time>
      </trkpt>
      <trkpt lat="45.07469" lon="4.13492">
        <ele>1187.85</ele>
        <time>2022-10-05T11:40:30Z</time>
      </trkpt>
      <trkpt lat="45.07468" lon="4.13521">
        <ele>1187.37</ele>
        <time>2022-10-05T11:40:47Z</time>
      </trkpt>
      <trkpt lat="45.0747" lon="4.13557">
        <ele>1187.85</ele>
        <time>2022-10-05T11:41:05Z</time>
      </trkpt>
      <trkpt lat="45.07469" lon="4.13596">
        <ele>1186.88</ele>
        <time>2022-10-05T11:41:26Z</time>
      </trkpt>
      <trkpt lat="45.07469" lon="4.13631">
        <ele>1184.96</ele>
        <time>2022-10-05T11:41:46Z</time>
      </trkpt>
      <trkpt lat="45.0747" lon="4.13658">
        <ele>1179.19</ele>
        <time>2022-10-05T11:42:03Z</time>
      </trkpt>
      <trkpt lat="45.07471" lon="4.13693">
        <ele>1177.75</ele>
        <time>2022-10-05T11:42:22Z</time>
      </trkpt>
      <trkpt lat="45.07471" lon="4.13729">
        <ele>1177.75</ele>
        <time>2022-10-05T11:42:42Z</time>
      </trkpt>
      <trkpt lat="45.07471" lon="4.13773">
        <ele>1179.67</ele>
        <time>2022-10-05T11:43:05Z</time>
      </trkpt>
      <trkpt lat="45.07471" lon="4.13815">
        <ele>1181.6</ele>
        <time>2022-10-05T11:43:28Z</time>
      </trkpt>
      <trkpt lat="45.07469" lon="4.13848">
        <ele>1181.12</ele>
        <time>2022-10-05T11:43:46Z</time>
      </trkpt>
      <trkpt lat="45.07468" lon="4.13891">
        <ele>1179.67</ele>
        <time>2022-10-05T11:44:09Z</time>
      </trkpt>
      <trkpt lat="45.07466" lon="4.13929">
        <ele>1182.08</ele>
        <time>2022-10-05T11:44:32Z</time>
      </trkpt>
      <trkpt lat="45.07468" lon="4.1393">
        <ele>1183.04</ele>
        <time>2022-10-05T11:44:47Z</time>
      </trkpt>
      <trkpt lat="45.07468" lon="4.13946">
        <ele>1179.19</ele>
        <time>2022-10-05T11:45:01Z</time>
      </trkpt>
      <trkpt lat="45.07468" lon="4.13947">
        <ele>1178.71</ele>
        <time>2022-10-05T11:45:02Z</time>
      </trkpt>
      <trkpt lat="45.0747" lon="4.13971">
        <ele>1175.83</ele>
        <time>2022-10-05T11:45:18Z</time>
      </trkpt>
      <trkpt lat="45.0747" lon="4.13973">
        <ele>1175.83</ele>
        <time>2022-10-05T11:45:19Z</time>
      </trkpt>
      <trkpt lat="45.07474" lon="4.13998">
        <ele>1173.43</ele>
        <time>2022-10-05T11:45:35Z</time>
      </trkpt>
      <trkpt lat="45.0748" lon="4.1402">
        <ele>1168.62</ele>
        <time>2022-10-05T11:45:52Z</time>
      </trkpt>
      <trkpt lat="45.07485" lon="4.14042">
        <ele>1164.77</ele>
        <time>2022-10-05T11:46:10Z</time>
      </trkpt>
      <trkpt lat="45.07489" lon="4.14058">
        <ele>1160.45</ele>
        <time>2022-10-05T11:46:24Z</time>
      </trkpt>
      <trkpt lat="45.07493" lon="4.14074">
        <ele>1154.68</ele>
        <time>2022-10-05T11:46:40Z</time>
      </trkpt>
      <trkpt lat="45.07498" lon="4.1409">
        <ele>1149.87</ele>
        <time>2022-10-05T11:46:56Z</time>
      </trkpt>
      <trkpt lat="45.07503" lon="4.14112">
        <ele>1141.22</ele>
        <time>2022-10-05T11:47:11Z</time>
      </trkpt>
      <trkpt lat="45.07508" lon="4.1414">
        <ele>1133.53</ele>
        <time>2022-10-05T11:47:30Z</time>
      </trkpt>
      <trkpt lat="45.07512" lon="4.14154">
        <ele>1124.88</ele>
        <time>2022-10-05T11:47:45Z</time>
      </trkpt>
      <trkpt lat="45.07515" lon="4.14176">
        <ele>1116.71</ele>
        <time>2022-10-05T11:48:01Z</time>
      </trkpt>
      <trkpt lat="45.07518" lon="4.142">
        <ele>1112.86</ele>
        <time>2022-10-05T11:48:17Z</time>
      </trkpt>
      <trkpt lat="45.07524" lon="4.14222">
        <ele>1119.11</ele>
        <time>2022-10-05T11:48:33Z</time>
      </trkpt>
      <trkpt lat="45.07532" lon="4.1424">
        <ele>1122</ele>
        <time>2022-10-05T11:48:50Z</time>
      </trkpt>
      <trkpt lat="45.07533" lon="4.14265">
        <ele>1124.4</ele>
        <time>2022-10-05T11:49:05Z</time>
      </trkpt>
      <trkpt lat="45.07537" lon="4.14297">
        <ele>1124.88</ele>
        <time>2022-10-05T11:49:22Z</time>
      </trkpt>
      <trkpt lat="45.07538" lon="4.14321">
        <ele>1127.28</ele>
        <time>2022-10-05T11:49:37Z</time>
      </trkpt>
      <trkpt lat="45.07537" lon="4.1434">
        <ele>1123.44</ele>
        <time>2022-10-05T11:49:52Z</time>
      </trkpt>
      <trkpt lat="45.07537" lon="4.14362">
        <ele>1119.11</ele>
        <time>2022-10-05T11:50:08Z</time>
      </trkpt>
      <trkpt lat="45.07538" lon="4.14389">
        <ele>1114.31</ele>
        <time>2022-10-05T11:50:25Z</time>
      </trkpt>
      <trkpt lat="45.07528" lon="4.14426">
        <ele>1120.07</ele>
        <time>2022-10-05T11:50:42Z</time>
      </trkpt>
      <trkpt lat="45.07518" lon="4.14454">
        <ele>1121.52</ele>
        <time>2022-10-05T11:51:00Z</time>
      </trkpt>
      <trkpt lat="45.07507" lon="4.14484">
        <ele>1122</ele>
        <time>2022-10-05T11:51:20Z</time>
      </trkpt>
      <trkpt lat="45.07499" lon="4.14508">
        <ele>1120.55</ele>
        <time>2022-10-05T11:51:38Z</time>
      </trkpt>
      <trkpt lat="45.07491" lon="4.14532">
        <ele>1120.07</ele>
        <time>2022-10-05T11:51:57Z</time>
      </trkpt>
      <trkpt lat="45.07481" lon="4.14555">
        <ele>1118.63</ele>
        <time>2022-10-05T11:52:16Z</time>
      </trkpt>
      <trkpt lat="45.07475" lon="4.1457">
        <ele>1116.71</ele>
        <time>2022-10-05T11:52:31Z</time>
      </trkpt>
      <trkpt lat="45.07469" lon="4.14587">
        <ele>1114.31</ele>
        <time>2022-10-05T11:52:46Z</time>
      </trkpt>
      <trkpt lat="45.07465" lon="4.14609">
        <ele>1111.9</ele>
        <time>2022-10-05T11:53:03Z</time>
      </trkpt>
      <trkpt lat="45.07465" lon="4.14635">
        <ele>1108.54</ele>
        <time>2022-10-05T11:53:22Z</time>
      </trkpt>
      <trkpt lat="45.07465" lon="4.14636">
        <ele>1109.02</ele>
        <time>2022-10-05T11:53:23Z</time>
      </trkpt>
      <trkpt lat="45.07467" lon="4.14659">
        <ele>1109.5</ele>
        <time>2022-10-05T11:53:37Z</time>
      </trkpt>
      <trkpt lat="45.07468" lon="4.14672">
        <ele>1109.5</ele>
        <time>2022-10-05T11:53:45Z</time>
      </trkpt>
      <trkpt lat="45.07471" lon="4.14696">
        <ele>1109.98</ele>
        <time>2022-10-05T11:54:00Z</time>
      </trkpt>
      <trkpt lat="45.07478" lon="4.14725">
        <ele>1112.86</ele>
        <time>2022-10-05T11:54:17Z</time>
      </trkpt>
      <trkpt lat="45.07496" lon="4.14742">
        <ele>1113.34</ele>
        <time>2022-10-05T11:54:35Z</time>
      </trkpt>
      <trkpt lat="45.0752" lon="4.14752">
        <ele>1111.42</ele>
        <time>2022-10-05T11:54:54Z</time>
      </trkpt>
      <trkpt lat="45.07543" lon="4.14758">
        <ele>1108.06</ele>
        <time>2022-10-05T11:55:12Z</time>
      </trkpt>
      <trkpt lat="45.07568" lon="4.1477">
        <ele>1105.65</ele>
        <time>2022-10-05T11:55:32Z</time>
      </trkpt>
      <trkpt lat="45.07585" lon="4.14787">
        <ele>1104.21</ele>
        <time>2022-10-05T11:55:49Z</time>
      </trkpt>
      <trkpt lat="45.07601" lon="4.14812">
        <ele>1099.89</ele>
        <time>2022-10-05T11:56:08Z</time>
      </trkpt>
      <trkpt lat="45.07609" lon="4.14829">
        <ele>1098.44</ele>
        <time>2022-10-05T11:56:23Z</time>
      </trkpt>
      <trkpt lat="45.07611" lon="4.14833">
        <ele>1100.37</ele>
        <time>2022-10-05T11:56:33Z</time>
      </trkpt>
      <trkpt lat="45.07621" lon="4.14867">
        <ele>1096.04</ele>
        <time>2022-10-05T11:56:54Z</time>
      </trkpt>
      <trkpt lat="45.07629" lon="4.14904">
        <ele>1095.08</ele>
        <time>2022-10-05T11:57:17Z</time>
      </trkpt>
      <trkpt lat="45.07632" lon="4.14917">
        <ele>1096.04</ele>
        <time>2022-10-05T11:57:28Z</time>
      </trkpt>
      <trkpt lat="45.07635" lon="4.14957">
        <ele>1095.08</ele>
        <time>2022-10-05T11:57:52Z</time>
      </trkpt>
      <trkpt lat="45.07632" lon="4.14995">
        <ele>1093.64</ele>
        <time>2022-10-05T11:58:14Z</time>
      </trkpt>
      <trkpt lat="45.07628" lon="4.15029">
        <ele>1095.08</ele>
        <time>2022-10-05T11:58:31Z</time>
      </trkpt>
      <trkpt lat="45.0762" lon="4.15066">
        <ele>1095.56</ele>
        <time>2022-10-05T11:58:51Z</time>
      </trkpt>
      <trkpt lat="45.07619" lon="4.15104">
        <ele>1095.56</ele>
        <time>2022-10-05T11:59:12Z</time>
      </trkpt>
      <trkpt lat="45.0763" lon="4.15141">
        <ele>1096.52</ele>
        <time>2022-10-05T11:59:33Z</time>
      </trkpt>
      <trkpt lat="45.07644" lon="4.15179">
        <ele>1096.04</ele>
        <time>2022-10-05T11:59:57Z</time>
      </trkpt>
      <trkpt lat="45.07655" lon="4.15211">
        <ele>1097</ele>
        <time>2022-10-05T12:00:16Z</time>
      </trkpt>
      <trkpt lat="45.07663" lon="4.15252">
        <ele>1096.04</ele>
        <time>2022-10-05T12:00:38Z</time>
      </trkpt>
      <trkpt lat="45.07671" lon="4.15291">
        <ele>1096.52</ele>
        <time>2022-10-05T12:01:00Z</time>
      </trkpt>
      <trkpt lat="45.07679" lon="4.15326">
        <ele>1096.52</ele>
        <time>2022-10-05T12:01:19Z</time>
      </trkpt>
      <trkpt lat="45.07686" lon="4.15365">
        <ele>1093.64</ele>
        <time>2022-10-05T12:01:41Z</time>
      </trkpt>
      <trkpt lat="45.07698" lon="4.15401">
        <ele>1091.71</ele>
        <time>2022-10-05T12:02:03Z</time>
      </trkpt>
      <trkpt lat="45.07714" lon="4.15432">
        <ele>1091.23</ele>
        <time>2022-10-05T12:02:24Z</time>
      </trkpt>
      <trkpt lat="45.07715" lon="4.15439">
        <ele>1091.23</ele>
        <time>2022-10-05T12:02:28Z</time>
      </trkpt>
      <trkpt lat="45.07721" lon="4.15449">
        <ele>1090.75</ele>
        <time>2022-10-05T12:02:35Z</time>
      </trkpt>
      <trkpt lat="45.07737" lon="4.15476">
        <ele>1091.71</ele>
        <time>2022-10-05T12:02:55Z</time>
      </trkpt>
      <trkpt lat="45.07741" lon="4.15483">
        <ele>1091.71</ele>
        <time>2022-10-05T12:03:00Z</time>
      </trkpt>
      <trkpt lat="45.07753" lon="4.15503">
        <ele>1090.75</ele>
        <time>2022-10-05T12:03:14Z</time>
      </trkpt>
      <trkpt lat="45.07768" lon="4.1553">
        <ele>1088.35</ele>
        <time>2022-10-05T12:03:33Z</time>
      </trkpt>
      <trkpt lat="45.07784" lon="4.15557">
        <ele>1087.87</ele>
        <time>2022-10-05T12:03:52Z</time>
      </trkpt>
      <trkpt lat="45.07791" lon="4.15569">
        <ele>1087.87</ele>
        <time>2022-10-05T12:04:00Z</time>
      </trkpt>
      <trkpt lat="45.07796" lon="4.15577">
        <ele>1088.83</ele>
        <time>2022-10-05T12:04:13Z</time>
      </trkpt>
      <trkpt lat="45.07797" lon="4.1558">
        <ele>1089.79</ele>
        <time>2022-10-05T12:04:37Z</time>
      </trkpt>
      <trkpt lat="45.07805" lon="4.15593">
        <ele>1090.75</ele>
        <time>2022-10-05T12:04:50Z</time>
      </trkpt>
      <trkpt lat="45.07819" lon="4.15614">
        <ele>1086.91</ele>
        <time>2022-10-05T12:05:08Z</time>
      </trkpt>
      <trkpt lat="45.07832" lon="4.1564">
        <ele>1085.95</ele>
        <time>2022-10-05T12:05:27Z</time>
      </trkpt>
      <trkpt lat="45.0785" lon="4.1567">
        <ele>1084.5</ele>
        <time>2022-10-05T12:05:48Z</time>
      </trkpt>
      <trkpt lat="45.07863" lon="4.15694">
        <ele>1082.58</ele>
        <time>2022-10-05T12:06:05Z</time>
      </trkpt>
      <trkpt lat="45.07863" lon="4.15695">
        <ele>1086.43</ele>
        <time>2022-10-05T12:06:17Z</time>
      </trkpt>
      <trkpt lat="45.07874" lon="4.15717">
        <ele>1083.54</ele>
        <time>2022-10-05T12:06:34Z</time>
      </trkpt>
      <trkpt lat="45.07881" lon="4.15731">
        <ele>1083.54</ele>
        <time>2022-10-05T12:06:49Z</time>
      </trkpt>
      <trkpt lat="45.07895" lon="4.1576">
        <ele>1084.99</ele>
        <time>2022-10-05T12:07:08Z</time>
      </trkpt>
      <trkpt lat="45.07906" lon="4.15787">
        <ele>1084.5</ele>
        <time>2022-10-05T12:07:26Z</time>
      </trkpt>
      <trkpt lat="45.07911" lon="4.15804">
        <ele>1084.02</ele>
        <time>2022-10-05T12:07:40Z</time>
      </trkpt>
      <trkpt lat="45.07914" lon="4.15807">
        <ele>1084.5</ele>
        <time>2022-10-05T12:07:55Z</time>
      </trkpt>
      <trkpt lat="45.0792" lon="4.15825">
        <ele>1083.06</ele>
        <time>2022-10-05T12:08:10Z</time>
      </trkpt>
      <trkpt lat="45.07924" lon="4.15849">
        <ele>1078.74</ele>
        <time>2022-10-05T12:08:26Z</time>
      </trkpt>
      <trkpt lat="45.0793" lon="4.15877">
        <ele>1073.93</ele>
        <time>2022-10-05T12:08:44Z</time>
      </trkpt>
      <trkpt lat="45.07936" lon="4.15898">
        <ele>1071.05</ele>
        <time>2022-10-05T12:08:58Z</time>
      </trkpt>
      <trkpt lat="45.07944" lon="4.15922">
        <ele>1069.6</ele>
        <time>2022-10-05T12:09:14Z</time>
      </trkpt>
      <trkpt lat="45.07953" lon="4.15941">
        <ele>1072.01</ele>
        <time>2022-10-05T12:09:31Z</time>
      </trkpt>
      <trkpt lat="45.07953" lon="4.15942">
        <ele>1072.97</ele>
        <time>2022-10-05T12:09:48Z</time>
      </trkpt>
      <trkpt lat="45.07952" lon="4.15944">
        <ele>1073.45</ele>
        <time>2022-10-05T12:09:55Z</time>
      </trkpt>
      <trkpt lat="45.0795" lon="4.15952">
        <ele>1072.49</ele>
        <time>2022-10-05T12:10:00Z</time>
      </trkpt>
      <trkpt lat="45.07947" lon="4.15988">
        <ele>1071.05</ele>
        <time>2022-10-05T12:10:21Z</time>
      </trkpt>
      <trkpt lat="45.07948" lon="4.1602">
        <ele>1068.16</ele>
        <time>2022-10-05T12:10:39Z</time>
      </trkpt>
      <trkpt lat="45.07947" lon="4.16055">
        <ele>1066.72</ele>
        <time>2022-10-05T12:11:00Z</time>
      </trkpt>
      <trkpt lat="45.07947" lon="4.16086">
        <ele>1063.36</ele>
        <time>2022-10-05T12:11:18Z</time>
      </trkpt>
      <trkpt lat="45.07953" lon="4.1612">
        <ele>1060.47</ele>
        <time>2022-10-05T12:11:39Z</time>
      </trkpt>
      <trkpt lat="45.07958" lon="4.16147">
        <ele>1060.47</ele>
        <time>2022-10-05T12:11:55Z</time>
      </trkpt>
      <trkpt lat="45.07961" lon="4.16172">
        <ele>1058.55</ele>
        <time>2022-10-05T12:12:11Z</time>
      </trkpt>
      <trkpt lat="45.07969" lon="4.16199">
        <ele>1054.7</ele>
        <time>2022-10-05T12:12:29Z</time>
      </trkpt>
      <trkpt lat="45.07981" lon="4.16229">
        <ele>1053.26</ele>
        <time>2022-10-05T12:12:48Z</time>
      </trkpt>
      <trkpt lat="45.07994" lon="4.16253">
        <ele>1051.82</ele>
        <time>2022-10-05T12:13:05Z</time>
      </trkpt>
      <trkpt lat="45.08007" lon="4.16276">
        <ele>1051.34</ele>
        <time>2022-10-05T12:13:21Z</time>
      </trkpt>
      <trkpt lat="45.08023" lon="4.16302">
        <ele>1050.86</ele>
        <time>2022-10-05T12:13:40Z</time>
      </trkpt>
      <trkpt lat="45.08039" lon="4.16325">
        <ele>1049.9</ele>
        <time>2022-10-05T12:13:58Z</time>
      </trkpt>
      <trkpt lat="45.08053" lon="4.16343">
        <ele>1047.97</ele>
        <time>2022-10-05T12:14:14Z</time>
      </trkpt>
      <trkpt lat="45.0807" lon="4.16377">
        <ele>1047.49</ele>
        <time>2022-10-05T12:14:37Z</time>
      </trkpt>
      <trkpt lat="45.08084" lon="4.16401">
        <ele>1045.57</ele>
        <time>2022-10-05T12:14:55Z</time>
      </trkpt>
      <trkpt lat="45.081" lon="4.16426">
        <ele>1042.69</ele>
        <time>2022-10-05T12:15:14Z</time>
      </trkpt>
      <trkpt lat="45.08116" lon="4.1645">
        <ele>1041.73</ele>
        <time>2022-10-05T12:15:33Z</time>
      </trkpt>
      <trkpt lat="45.08131" lon="4.16474">
        <ele>1042.69</ele>
        <time>2022-10-05T12:15:50Z</time>
      </trkpt>
      <trkpt lat="45.08148" lon="4.16494">
        <ele>1041.73</ele>
        <time>2022-10-05T12:16:11Z</time>
      </trkpt>
      <trkpt lat="45.08149" lon="4.16494">
        <ele>1042.21</ele>
        <time>2022-10-05T12:16:18Z</time>
      </trkpt>
      <trkpt lat="45.0815" lon="4.16498">
        <ele>1042.21</ele>
        <time>2022-10-05T12:16:21Z</time>
      </trkpt>
      <trkpt lat="45.0817" lon="4.16523">
        <ele>1038.84</ele>
        <time>2022-10-05T12:16:43Z</time>
      </trkpt>
      <trkpt lat="45.08182" lon="4.16537">
        <ele>1037.4</ele>
        <time>2022-10-05T12:16:59Z</time>
      </trkpt>
      <trkpt lat="45.08194" lon="4.16564">
        <ele>1033.55</ele>
        <time>2022-10-05T12:17:19Z</time>
      </trkpt>
      <trkpt lat="45.08202" lon="4.16591">
        <ele>1030.19</ele>
        <time>2022-10-05T12:17:38Z</time>
      </trkpt>
      <trkpt lat="45.08207" lon="4.16615">
        <ele>1027.79</ele>
        <time>2022-10-05T12:17:55Z</time>
      </trkpt>
      <trkpt lat="45.08209" lon="4.16629">
        <ele>1024.42</ele>
        <time>2022-10-05T12:18:05Z</time>
      </trkpt>
      <trkpt lat="45.08211" lon="4.16645">
        <ele>1023.94</ele>
        <time>2022-10-05T12:18:14Z</time>
      </trkpt>
      <trkpt lat="45.08219" lon="4.16671">
        <ele>1022.98</ele>
        <time>2022-10-05T12:18:30Z</time>
      </trkpt>
      <trkpt lat="45.0822" lon="4.16672">
        <ele>1022.98</ele>
        <time>2022-10-05T12:18:31Z</time>
      </trkpt>
      <trkpt lat="45.0822" lon="4.16677">
        <ele>1022.98</ele>
        <time>2022-10-05T12:18:48Z</time>
      </trkpt>
      <trkpt lat="45.08219" lon="4.16678">
        <ele>1023.94</ele>
        <time>2022-10-05T12:19:20Z</time>
      </trkpt>
      <trkpt lat="45.08221" lon="4.16685">
        <ele>1024.42</ele>
        <time>2022-10-05T12:19:46Z</time>
      </trkpt>
      <trkpt lat="45.08229" lon="4.16701">
        <ele>1022.98</ele>
        <time>2022-10-05T12:19:56Z</time>
      </trkpt>
      <trkpt lat="45.0824" lon="4.16731">
        <ele>1021.06</ele>
        <time>2022-10-05T12:20:14Z</time>
      </trkpt>
      <trkpt lat="45.08251" lon="4.16762">
        <ele>1019.62</ele>
        <time>2022-10-05T12:20:33Z</time>
      </trkpt>
      <trkpt lat="45.08262" lon="4.16786">
        <ele>1017.69</ele>
        <time>2022-10-05T12:20:49Z</time>
      </trkpt>
      <trkpt lat="45.08274" lon="4.16817">
        <ele>1015.29</ele>
        <time>2022-10-05T12:21:09Z</time>
      </trkpt>
      <trkpt lat="45.08277" lon="4.16821">
        <ele>1015.29</ele>
        <time>2022-10-05T12:21:12Z</time>
      </trkpt>
      <trkpt lat="45.08289" lon="4.16853">
        <ele>1012.89</ele>
        <time>2022-10-05T12:21:32Z</time>
      </trkpt>
      <trkpt lat="45.08304" lon="4.16877">
        <ele>1013.37</ele>
        <time>2022-10-05T12:21:48Z</time>
      </trkpt>
      <trkpt lat="45.08321" lon="4.16904">
        <ele>1016.73</ele>
        <time>2022-10-05T12:22:06Z</time>
      </trkpt>
      <trkpt lat="45.08323" lon="4.16908">
        <ele>1016.73</ele>
        <time>2022-10-05T12:22:09Z</time>
      </trkpt>
      <trkpt lat="45.08344" lon="4.16925">
        <ele>1014.33</ele>
        <time>2022-10-05T12:22:29Z</time>
      </trkpt>
      <trkpt lat="45.08358" lon="4.1694">
        <ele>1011.93</ele>
        <time>2022-10-05T12:22:44Z</time>
      </trkpt>
      <trkpt lat="45.08374" lon="4.16953">
        <ele>1010</ele>
        <time>2022-10-05T12:22:59Z</time>
      </trkpt>
      <trkpt lat="45.08388" lon="4.16967">
        <ele>1004.72</ele>
        <time>2022-10-05T12:23:13Z</time>
      </trkpt>
      <trkpt lat="45.08401" lon="4.16982">
        <ele>1003.75</ele>
        <time>2022-10-05T12:23:28Z</time>
      </trkpt>
      <trkpt lat="45.08412" lon="4.16993">
        <ele>1000.87</ele>
        <time>2022-10-05T12:23:42Z</time>
      </trkpt>
      <trkpt lat="45.08427" lon="4.17008">
        <ele>1001.35</ele>
        <time>2022-10-05T12:23:57Z</time>
      </trkpt>
      <trkpt lat="45.08442" lon="4.17025">
        <ele>1002.79</ele>
        <time>2022-10-05T12:24:13Z</time>
      </trkpt>
      <trkpt lat="45.08466" lon="4.17036">
        <ele>1000.87</ele>
        <time>2022-10-05T12:24:33Z</time>
      </trkpt>
      <trkpt lat="45.08487" lon="4.17049">
        <ele>996.54</ele>
        <time>2022-10-05T12:24:51Z</time>
      </trkpt>
      <trkpt lat="45.08512" lon="4.17062">
        <ele>993.66</ele>
        <time>2022-10-05T12:25:12Z</time>
      </trkpt>
      <trkpt lat="45.0853" lon="4.1707">
        <ele>992.22</ele>
        <time>2022-10-05T12:25:27Z</time>
      </trkpt>
      <trkpt lat="45.08556" lon="4.17077">
        <ele>993.66</ele>
        <time>2022-10-05T12:25:47Z</time>
      </trkpt>
      <trkpt lat="45.08575" lon="4.17079">
        <ele>995.1</ele>
        <time>2022-10-05T12:26:04Z</time>
      </trkpt>
      <trkpt lat="45.0859" lon="4.17082">
        <ele>997.02</ele>
        <time>2022-10-05T12:26:18Z</time>
      </trkpt>
      <trkpt lat="45.08608" lon="4.1709">
        <ele>998.95</ele>
        <time>2022-10-05T12:26:35Z</time>
      </trkpt>
      <trkpt lat="45.0862" lon="4.17108">
        <ele>997.99</ele>
        <time>2022-10-05T12:26:51Z</time>
      </trkpt>
      <trkpt lat="45.08635" lon="4.17125">
        <ele>1004.72</ele>
        <time>2022-10-05T12:27:07Z</time>
      </trkpt>
      <trkpt lat="45.08641" lon="4.17128">
        <ele>1005.68</ele>
        <time>2022-10-05T12:27:13Z</time>
      </trkpt>
      <trkpt lat="45.08656" lon="4.17131">
        <ele>1007.12</ele>
        <time>2022-10-05T12:27:28Z</time>
      </trkpt>
      <trkpt lat="45.08673" lon="4.17127">
        <ele>1010</ele>
        <time>2022-10-05T12:27:44Z</time>
      </trkpt>
      <trkpt lat="45.08692" lon="4.17128">
        <ele>1012.41</ele>
        <time>2022-10-05T12:28:01Z</time>
      </trkpt>
      <trkpt lat="45.08708" lon="4.17131">
        <ele>1014.81</ele>
        <time>2022-10-05T12:28:17Z</time>
      </trkpt>
      <trkpt lat="45.0873" lon="4.17141">
        <ele>1018.65</ele>
        <time>2022-10-05T12:28:35Z</time>
      </trkpt>
      <trkpt lat="45.08749" lon="4.17153">
        <ele>1019.13</ele>
        <time>2022-10-05T12:28:53Z</time>
      </trkpt>
      <trkpt lat="45.08771" lon="4.1716">
        <ele>1020.58</ele>
        <time>2022-10-05T12:29:12Z</time>
      </trkpt>
      <trkpt lat="45.08792" lon="4.17165">
        <ele>1021.54</ele>
        <time>2022-10-05T12:29:30Z</time>
      </trkpt>
      <trkpt lat="45.08811" lon="4.17165">
        <ele>1021.54</ele>
        <time>2022-10-05T12:29:46Z</time>
      </trkpt>
      <trkpt lat="45.0882" lon="4.17165">
        <ele>1022.02</ele>
        <time>2022-10-05T12:30:00Z</time>
      </trkpt>
      <trkpt lat="45.08826" lon="4.17168">
        <ele>1023.46</ele>
        <time>2022-10-05T12:30:12Z</time>
      </trkpt>
      <trkpt lat="45.08822" lon="4.17171">
        <ele>1023.94</ele>
        <time>2022-10-05T12:30:39Z</time>
      </trkpt>
      <trkpt lat="45.08824" lon="4.17167">
        <ele>1024.42</ele>
        <time>2022-10-05T12:31:06Z</time>
      </trkpt>
      <trkpt lat="45.08829" lon="4.17167">
        <ele>1024.42</ele>
        <time>2022-10-05T12:31:24Z</time>
      </trkpt>
      <trkpt lat="45.08849" lon="4.17195">
        <ele>1020.58</ele>
        <time>2022-10-05T12:31:48Z</time>
      </trkpt>
      <trkpt lat="45.08864" lon="4.17213">
        <ele>1021.54</ele>
        <time>2022-10-05T12:32:03Z</time>
      </trkpt>
      <trkpt lat="45.08878" lon="4.17231">
        <ele>1022.98</ele>
        <time>2022-10-05T12:32:17Z</time>
      </trkpt>
      <trkpt lat="45.08894" lon="4.17257">
        <ele>1025.86</ele>
        <time>2022-10-05T12:32:35Z</time>
      </trkpt>
      <trkpt lat="45.08895" lon="4.17277">
        <ele>1023.46</ele>
        <time>2022-10-05T12:32:47Z</time>
      </trkpt>
      <trkpt lat="45.08896" lon="4.17291">
        <ele>1023.46</ele>
        <time>2022-10-05T12:32:56Z</time>
      </trkpt>
      <trkpt lat="45.08891" lon="4.17305">
        <ele>1024.42</ele>
        <time>2022-10-05T12:33:09Z</time>
      </trkpt>
      <trkpt lat="45.08884" lon="4.17308">
        <ele>1023.94</ele>
        <time>2022-10-05T12:33:25Z</time>
      </trkpt>
      <trkpt lat="45.08875" lon="4.17317">
        <ele>1022.5</ele>
        <time>2022-10-05T12:33:41Z</time>
      </trkpt>
      <trkpt lat="45.08868" lon="4.17324">
        <ele>1025.38</ele>
        <time>2022-10-05T12:34:09Z</time>
      </trkpt>
      <trkpt lat="45.08855" lon="4.17343">
        <ele>1024.9</ele>
        <time>2022-10-05T12:34:25Z</time>
      </trkpt>
      <trkpt lat="45.08841" lon="4.17364">
        <ele>1023.94</ele>
        <time>2022-10-05T12:34:41Z</time>
      </trkpt>
      <trkpt lat="45.08829" lon="4.17383">
        <ele>1022.5</ele>
        <time>2022-10-05T12:34:57Z</time>
      </trkpt>
      <trkpt lat="45.08816" lon="4.17402">
        <ele>1021.54</ele>
        <time>2022-10-05T12:35:12Z</time>
      </trkpt>
      <trkpt lat="45.08811" lon="4.17408">
        <ele>1020.58</ele>
        <time>2022-10-05T12:35:17Z</time>
      </trkpt>
      <trkpt lat="45.08808" lon="4.17438">
        <ele>1013.85</ele>
        <time>2022-10-05T12:35:34Z</time>
      </trkpt>
      <trkpt lat="45.08799" lon="4.17455">
        <ele>1010.96</ele>
        <time>2022-10-05T12:35:47Z</time>
      </trkpt>
      <trkpt lat="45.08785" lon="4.17472">
        <ele>1009.52</ele>
        <time>2022-10-05T12:36:03Z</time>
      </trkpt>
      <trkpt lat="45.08779" lon="4.17476">
        <ele>1009.52</ele>
        <time>2022-10-05T12:36:10Z</time>
      </trkpt>
      <trkpt lat="45.08762" lon="4.17489">
        <ele>1007.12</ele>
        <time>2022-10-05T12:36:28Z</time>
      </trkpt>
      <trkpt lat="45.08741" lon="4.17507">
        <ele>1005.2</ele>
        <time>2022-10-05T12:36:46Z</time>
      </trkpt>
      <trkpt lat="45.0872" lon="4.17522">
        <ele>1002.79</ele>
        <time>2022-10-05T12:37:04Z</time>
      </trkpt>
      <trkpt lat="45.08706" lon="4.17538">
        <ele>1000.39</ele>
        <time>2022-10-05T12:37:19Z</time>
      </trkpt>
      <trkpt lat="45.08699" lon="4.17551">
        <ele>998.47</ele>
        <time>2022-10-05T12:37:35Z</time>
      </trkpt>
      <trkpt lat="45.08694" lon="4.17563">
        <ele>997.51</ele>
        <time>2022-10-05T12:37:48Z</time>
      </trkpt>
      <trkpt lat="45.08673" lon="4.17577">
        <ele>996.06</ele>
        <time>2022-10-05T12:38:07Z</time>
      </trkpt>
      <trkpt lat="45.08657" lon="4.17591">
        <ele>993.66</ele>
        <time>2022-10-05T12:38:27Z</time>
      </trkpt>
      <trkpt lat="45.08655" lon="4.17596">
        <ele>993.66</ele>
        <time>2022-10-05T12:38:40Z</time>
      </trkpt>
      <trkpt lat="45.08658" lon="4.17594">
        <ele>995.58</ele>
        <time>2022-10-05T12:39:11Z</time>
      </trkpt>
      <trkpt lat="45.08657" lon="4.17595">
        <ele>997.02</ele>
        <time>2022-10-05T12:39:39Z</time>
      </trkpt>
      <trkpt lat="45.08655" lon="4.17595">
        <ele>997.02</ele>
        <time>2022-10-05T12:39:45Z</time>
      </trkpt>
      <trkpt lat="45.08628" lon="4.17597">
        <ele>994.62</ele>
        <time>2022-10-05T12:40:06Z</time>
      </trkpt>
      <trkpt lat="45.08602" lon="4.17594">
        <ele>991.26</ele>
        <time>2022-10-05T12:40:25Z</time>
      </trkpt>
      <trkpt lat="45.08575" lon="4.17592">
        <ele>988.37</ele>
        <time>2022-10-05T12:40:45Z</time>
      </trkpt>
      <trkpt lat="45.08546" lon="4.17614">
        <ele>987.41</ele>
        <time>2022-10-05T12:41:10Z</time>
      </trkpt>
      <trkpt lat="45.08536" lon="4.17656">
        <ele>984.05</ele>
        <time>2022-10-05T12:41:33Z</time>
      </trkpt>
      <trkpt lat="45.08533" lon="4.17693">
        <ele>982.6</ele>
        <time>2022-10-05T12:41:52Z</time>
      </trkpt>
      <trkpt lat="45.08529" lon="4.17734">
        <ele>985.97</ele>
        <time>2022-10-05T12:42:13Z</time>
      </trkpt>
      <trkpt lat="45.08529" lon="4.17772">
        <ele>984.05</ele>
        <time>2022-10-05T12:42:34Z</time>
      </trkpt>
      <trkpt lat="45.08528" lon="4.17809">
        <ele>985.97</ele>
        <time>2022-10-05T12:42:53Z</time>
      </trkpt>
      <trkpt lat="45.08536" lon="4.17847">
        <ele>985.97</ele>
        <time>2022-10-05T12:43:14Z</time>
      </trkpt>
      <trkpt lat="45.08549" lon="4.17861">
        <ele>985.01</ele>
        <time>2022-10-05T12:43:28Z</time>
      </trkpt>
      <trkpt lat="45.08572" lon="4.17875">
        <ele>985.97</ele>
        <time>2022-10-05T12:43:47Z</time>
      </trkpt>
      <trkpt lat="45.08597" lon="4.1789">
        <ele>987.41</ele>
        <time>2022-10-05T12:44:08Z</time>
      </trkpt>
      <trkpt lat="45.08617" lon="4.17904">
        <ele>987.89</ele>
        <time>2022-10-05T12:44:26Z</time>
      </trkpt>
      <trkpt lat="45.08628" lon="4.17913">
        <ele>990.3</ele>
        <time>2022-10-05T12:44:40Z</time>
      </trkpt>
      <trkpt lat="45.08635" lon="4.1792">
        <ele>991.74</ele>
        <time>2022-10-05T12:44:55Z</time>
      </trkpt>
      <trkpt lat="45.08643" lon="4.17929">
        <ele>991.26</ele>
        <time>2022-10-05T12:45:10Z</time>
      </trkpt>
      <trkpt lat="45.08649" lon="4.17933">
        <ele>991.26</ele>
        <time>2022-10-05T12:45:28Z</time>
      </trkpt>
      <trkpt lat="45.08658" lon="4.17941">
        <ele>990.78</ele>
        <time>2022-10-05T12:45:37Z</time>
      </trkpt>
      <trkpt lat="45.08674" lon="4.17958">
        <ele>991.74</ele>
        <time>2022-10-05T12:45:53Z</time>
      </trkpt>
      <trkpt lat="45.08694" lon="4.1798">
        <ele>994.62</ele>
        <time>2022-10-05T12:46:14Z</time>
      </trkpt>
      <trkpt lat="45.08713" lon="4.17998">
        <ele>995.58</ele>
        <time>2022-10-05T12:46:32Z</time>
      </trkpt>
      <trkpt lat="45.08731" lon="4.18016">
        <ele>997.02</ele>
        <time>2022-10-05T12:46:50Z</time>
      </trkpt>
      <trkpt lat="45.08747" lon="4.1803">
        <ele>999.91</ele>
        <time>2022-10-05T12:47:04Z</time>
      </trkpt>
      <trkpt lat="45.08765" lon="4.18045">
        <ele>1001.83</ele>
        <time>2022-10-05T12:47:21Z</time>
      </trkpt>
      <trkpt lat="45.08776" lon="4.18054">
        <ele>1004.23</ele>
        <time>2022-10-05T12:47:31Z</time>
      </trkpt>
      <trkpt lat="45.08791" lon="4.18068">
        <ele>1007.12</ele>
        <time>2022-10-05T12:47:47Z</time>
      </trkpt>
      <trkpt lat="45.08807" lon="4.18083">
        <ele>1009.52</ele>
        <time>2022-10-05T12:48:03Z</time>
      </trkpt>
      <trkpt lat="45.08822" lon="4.18103">
        <ele>1011.44</ele>
        <time>2022-10-05T12:48:19Z</time>
      </trkpt>
      <trkpt lat="45.08835" lon="4.18126">
        <ele>1011.44</ele>
        <time>2022-10-05T12:48:36Z</time>
      </trkpt>
      <trkpt lat="45.08848" lon="4.18149">
        <ele>1011.93</ele>
        <time>2022-10-05T12:48:53Z</time>
      </trkpt>
      <trkpt lat="45.08859" lon="4.18171">
        <ele>1013.37</ele>
        <time>2022-10-05T12:49:08Z</time>
      </trkpt>
      <trkpt lat="45.08868" lon="4.18196">
        <ele>1013.37</ele>
        <time>2022-10-05T12:49:24Z</time>
      </trkpt>
      <trkpt lat="45.08881" lon="4.18221">
        <ele>1015.29</ele>
        <time>2022-10-05T12:49:41Z</time>
      </trkpt>
      <trkpt lat="45.08894" lon="4.18241">
        <ele>1015.29</ele>
        <time>2022-10-05T12:49:56Z</time>
      </trkpt>
      <trkpt lat="45.08908" lon="4.18264">
        <ele>1016.73</ele>
        <time>2022-10-05T12:50:13Z</time>
      </trkpt>
      <trkpt lat="45.08916" lon="4.18275">
        <ele>1016.73</ele>
        <time>2022-10-05T12:50:22Z</time>
      </trkpt>
      <trkpt lat="45.0892" lon="4.18278">
        <ele>1017.21</ele>
        <time>2022-10-05T12:50:26Z</time>
      </trkpt>
      <trkpt lat="45.08941" lon="4.18295">
        <ele>1018.17</ele>
        <time>2022-10-05T12:50:45Z</time>
      </trkpt>
      <trkpt lat="45.08965" lon="4.18309">
        <ele>1019.13</ele>
        <time>2022-10-05T12:51:05Z</time>
      </trkpt>
      <trkpt lat="45.08985" lon="4.18318">
        <ele>1019.62</ele>
        <time>2022-10-05T12:51:22Z</time>
      </trkpt>
      <trkpt lat="45.09009" lon="4.18332">
        <ele>1020.58</ele>
        <time>2022-10-05T12:51:42Z</time>
      </trkpt>
      <trkpt lat="45.09032" lon="4.18347">
        <ele>1022.02</ele>
        <time>2022-10-05T12:52:01Z</time>
      </trkpt>
      <trkpt lat="45.09048" lon="4.18366">
        <ele>1023.46</ele>
        <time>2022-10-05T12:52:18Z</time>
      </trkpt>
      <trkpt lat="45.09051" lon="4.18371">
        <ele>1024.9</ele>
        <time>2022-10-05T12:52:32Z</time>
      </trkpt>
      <trkpt lat="45.09051" lon="4.18371">
        <ele>1025.86</ele>
        <time>2022-10-05T12:52:53Z</time>
      </trkpt>
      <trkpt lat="45.0905" lon="4.18372">
        <ele>1024.9</ele>
        <time>2022-10-05T12:53:16Z</time>
      </trkpt>
      <trkpt lat="45.09049" lon="4.18373">
        <ele>1023.46</ele>
        <time>2022-10-05T12:53:31Z</time>
      </trkpt>
      <trkpt lat="45.09064" lon="4.1839">
        <ele>1022.98</ele>
        <time>2022-10-05T12:53:47Z</time>
      </trkpt>
      <trkpt lat="45.09081" lon="4.18411">
        <ele>1023.94</ele>
        <time>2022-10-05T12:54:04Z</time>
      </trkpt>
      <trkpt lat="45.09096" lon="4.18435">
        <ele>1024.42</ele>
        <time>2022-10-05T12:54:21Z</time>
      </trkpt>
      <trkpt lat="45.09109" lon="4.18459">
        <ele>1025.86</ele>
        <time>2022-10-05T12:54:38Z</time>
      </trkpt>
      <trkpt lat="45.09122" lon="4.18486">
        <ele>1026.34</ele>
        <time>2022-10-05T12:54:55Z</time>
      </trkpt>
      <trkpt lat="45.09135" lon="4.1851">
        <ele>1027.31</ele>
        <time>2022-10-05T12:55:11Z</time>
      </trkpt>
      <trkpt lat="45.09149" lon="4.18533">
        <ele>1028.75</ele>
        <time>2022-10-05T12:55:27Z</time>
      </trkpt>
      <trkpt lat="45.09161" lon="4.18555">
        <ele>1030.19</ele>
        <time>2022-10-05T12:55:41Z</time>
      </trkpt>
      <trkpt lat="45.09162" lon="4.18556">
        <ele>1030.19</ele>
        <time>2022-10-05T12:55:42Z</time>
      </trkpt>
      <trkpt lat="45.09174" lon="4.18587">
        <ele>1031.15</ele>
        <time>2022-10-05T12:56:01Z</time>
      </trkpt>
      <trkpt lat="45.09185" lon="4.18616">
        <ele>1034.04</ele>
        <time>2022-10-05T12:56:19Z</time>
      </trkpt>
      <trkpt lat="45.09195" lon="4.18644">
        <ele>1031.63</ele>
        <time>2022-10-05T12:56:37Z</time>
      </trkpt>
      <trkpt lat="45.09207" lon="4.1867">
        <ele>1031.15</ele>
        <time>2022-10-05T12:56:53Z</time>
      </trkpt>
      <trkpt lat="45.09216" lon="4.18697">
        <ele>1027.31</ele>
        <time>2022-10-05T12:57:11Z</time>
      </trkpt>
      <trkpt lat="45.09219" lon="4.187">
        <ele>1026.83</ele>
        <time>2022-10-05T12:57:14Z</time>
      </trkpt>
      <trkpt lat="45.09243" lon="4.18722">
        <ele>1029.23</ele>
        <time>2022-10-05T12:57:35Z</time>
      </trkpt>
      <trkpt lat="45.09265" lon="4.18739">
        <ele>1032.11</ele>
        <time>2022-10-05T12:57:54Z</time>
      </trkpt>
      <trkpt lat="45.09283" lon="4.18752">
        <ele>1035</ele>
        <time>2022-10-05T12:58:10Z</time>
      </trkpt>
      <trkpt lat="45.09307" lon="4.1877">
        <ele>1036.92</ele>
        <time>2022-10-05T12:58:30Z</time>
      </trkpt>
      <trkpt lat="45.09324" lon="4.18789">
        <ele>1039.32</ele>
        <time>2022-10-05T12:58:48Z</time>
      </trkpt>
      <trkpt lat="45.09332" lon="4.18792">
        <ele>1041.25</ele>
        <time>2022-10-05T12:59:01Z</time>
      </trkpt>
      <trkpt lat="45.09344" lon="4.18787">
        <ele>1040.28</ele>
        <time>2022-10-05T12:59:16Z</time>
      </trkpt>
      <trkpt lat="45.09365" lon="4.18775">
        <ele>1035.48</ele>
        <time>2022-10-05T12:59:35Z</time>
      </trkpt>
      <trkpt lat="45.09378" lon="4.18762">
        <ele>1032.59</ele>
        <time>2022-10-05T12:59:48Z</time>
      </trkpt>
      <trkpt lat="45.094" lon="4.18749">
        <ele>1028.75</ele>
        <time>2022-10-05T13:00:08Z</time>
      </trkpt>
      <trkpt lat="45.09424" lon="4.18744">
        <ele>1027.31</ele>
        <time>2022-10-05T13:00:27Z</time>
      </trkpt>
      <trkpt lat="45.09436" lon="4.18744">
        <ele>1027.79</ele>
        <time>2022-10-05T13:00:41Z</time>
      </trkpt>
      <trkpt lat="45.09439" lon="4.18742">
        <ele>1027.31</ele>
        <time>2022-10-05T13:00:55Z</time>
      </trkpt>
      <trkpt lat="45.09445" lon="4.18744">
        <ele>1026.83</ele>
        <time>2022-10-05T13:01:14Z</time>
      </trkpt>
      <trkpt lat="45.09463" lon="4.18743">
        <ele>1026.34</ele>
        <time>2022-10-05T13:01:31Z</time>
      </trkpt>
      <trkpt lat="45.09483" lon="4.18741">
        <ele>1025.86</ele>
        <time>2022-10-05T13:01:48Z</time>
      </trkpt>
      <trkpt lat="45.09509" lon="4.18737">
        <ele>1022.5</ele>
        <time>2022-10-05T13:02:09Z</time>
      </trkpt>
      <trkpt lat="45.09533" lon="4.1873">
        <ele>1018.65</ele>
        <time>2022-10-05T13:02:27Z</time>
      </trkpt>
      <trkpt lat="45.09557" lon="4.18722">
        <ele>1019.13</ele>
        <time>2022-10-05T13:02:46Z</time>
      </trkpt>
      <trkpt lat="45.0958" lon="4.18712">
        <ele>1018.65</ele>
        <time>2022-10-05T13:03:04Z</time>
      </trkpt>
      <trkpt lat="45.09611" lon="4.18699">
        <ele>1018.65</ele>
        <time>2022-10-05T13:03:29Z</time>
      </trkpt>
      <trkpt lat="45.09621" lon="4.18699">
        <ele>1018.65</ele>
        <time>2022-10-05T13:03:44Z</time>
      </trkpt>
      <trkpt lat="45.09641" lon="4.18693">
        <ele>1015.77</ele>
        <time>2022-10-05T13:04:02Z</time>
      </trkpt>
      <trkpt lat="45.09658" lon="4.18681">
        <ele>1013.37</ele>
        <time>2022-10-05T13:04:19Z</time>
      </trkpt>
      <trkpt lat="45.09678" lon="4.18669">
        <ele>1009.04</ele>
        <time>2022-10-05T13:04:36Z</time>
      </trkpt>
      <trkpt lat="45.09684" lon="4.18664">
        <ele>1008.08</ele>
        <time>2022-10-05T13:04:42Z</time>
      </trkpt>
      <trkpt lat="45.09705" lon="4.18646">
        <ele>1004.72</ele>
        <time>2022-10-05T13:05:03Z</time>
      </trkpt>
      <trkpt lat="45.09729" lon="4.18628">
        <ele>1001.35</ele>
        <time>2022-10-05T13:05:23Z</time>
      </trkpt>
      <trkpt lat="45.0975" lon="4.18616">
        <ele>997.99</ele>
        <time>2022-10-05T13:05:40Z</time>
      </trkpt>
      <trkpt lat="45.09771" lon="4.18613">
        <ele>997.02</ele>
        <time>2022-10-05T13:05:57Z</time>
      </trkpt>
      <trkpt lat="45.09791" lon="4.18605">
        <ele>993.66</ele>
        <time>2022-10-05T13:06:14Z</time>
      </trkpt>
      <trkpt lat="45.09813" lon="4.18593">
        <ele>991.26</ele>
        <time>2022-10-05T13:06:32Z</time>
      </trkpt>
      <trkpt lat="45.0984" lon="4.18578">
        <ele>989.33</ele>
        <time>2022-10-05T13:06:53Z</time>
      </trkpt>
      <trkpt lat="45.09864" lon="4.18557">
        <ele>988.37</ele>
        <time>2022-10-05T13:07:15Z</time>
      </trkpt>
      <trkpt lat="45.09887" lon="4.18536">
        <ele>985.01</ele>
        <time>2022-10-05T13:07:36Z</time>
      </trkpt>
      <trkpt lat="45.09903" lon="4.18521">
        <ele>984.53</ele>
        <time>2022-10-05T13:07:53Z</time>
      </trkpt>
      <trkpt lat="45.09917" lon="4.18508">
        <ele>982.6</ele>
        <time>2022-10-05T13:08:09Z</time>
      </trkpt>
      <trkpt lat="45.09929" lon="4.185">
        <ele>981.16</ele>
        <time>2022-10-05T13:08:20Z</time>
      </trkpt>
      <trkpt lat="45.0995" lon="4.1848">
        <ele>976.36</ele>
        <time>2022-10-05T13:08:40Z</time>
      </trkpt>
      <trkpt lat="45.09964" lon="4.18467">
        <ele>972.99</ele>
        <time>2022-10-05T13:08:53Z</time>
      </trkpt>
      <trkpt lat="45.0998" lon="4.18452">
        <ele>972.99</ele>
        <time>2022-10-05T13:09:07Z</time>
      </trkpt>
      <trkpt lat="45.09998" lon="4.18437">
        <ele>970.11</ele>
        <time>2022-10-05T13:09:24Z</time>
      </trkpt>
      <trkpt lat="45.10017" lon="4.18426">
        <ele>967.22</ele>
        <time>2022-10-05T13:09:40Z</time>
      </trkpt>
      <trkpt lat="45.10035" lon="4.18418">
        <ele>966.74</ele>
        <time>2022-10-05T13:09:54Z</time>
      </trkpt>
      <trkpt lat="45.10051" lon="4.18411">
        <ele>968.18</ele>
        <time>2022-10-05T13:10:07Z</time>
      </trkpt>
      <trkpt lat="45.10053" lon="4.18409">
        <ele>967.7</ele>
        <time>2022-10-05T13:10:09Z</time>
      </trkpt>
      <trkpt lat="45.10074" lon="4.18394">
        <ele>968.67</ele>
        <time>2022-10-05T13:10:26Z</time>
      </trkpt>
      <trkpt lat="45.10091" lon="4.18386">
        <ele>968.67</ele>
        <time>2022-10-05T13:10:40Z</time>
      </trkpt>
      <trkpt lat="45.101" lon="4.18385">
        <ele>967.22</ele>
        <time>2022-10-05T13:10:48Z</time>
      </trkpt>
      <trkpt lat="45.10121" lon="4.1838">
        <ele>963.38</ele>
        <time>2022-10-05T13:11:04Z</time>
      </trkpt>
      <trkpt lat="45.10136" lon="4.1838">
        <ele>960.49</ele>
        <time>2022-10-05T13:11:18Z</time>
      </trkpt>
      <trkpt lat="45.1015" lon="4.18375">
        <ele>958.09</ele>
        <time>2022-10-05T13:11:33Z</time>
      </trkpt>
      <trkpt lat="45.1016" lon="4.1837">
        <ele>956.65</ele>
        <time>2022-10-05T13:11:42Z</time>
      </trkpt>
      <trkpt lat="45.10177" lon="4.18355">
        <ele>952.8</ele>
        <time>2022-10-05T13:12:00Z</time>
      </trkpt>
      <trkpt lat="45.10187" lon="4.18336">
        <ele>949.92</ele>
        <time>2022-10-05T13:12:16Z</time>
      </trkpt>
      <trkpt lat="45.10191" lon="4.18323">
        <ele>949.92</ele>
        <time>2022-10-05T13:12:31Z</time>
      </trkpt>
      <trkpt lat="45.10192" lon="4.18319">
        <ele>953.28</ele>
        <time>2022-10-05T13:12:46Z</time>
      </trkpt>
      <trkpt lat="45.10202" lon="4.183">
        <ele>955.21</ele>
        <time>2022-10-05T13:13:02Z</time>
      </trkpt>
      <trkpt lat="45.10213" lon="4.18278">
        <ele>952.32</ele>
        <time>2022-10-05T13:13:19Z</time>
      </trkpt>
      <trkpt lat="45.10224" lon="4.18264">
        <ele>950.4</ele>
        <time>2022-10-05T13:13:32Z</time>
      </trkpt>
      <trkpt lat="45.10231" lon="4.18253">
        <ele>945.11</ele>
        <time>2022-10-05T13:13:48Z</time>
      </trkpt>
      <trkpt lat="45.10243" lon="4.18237">
        <ele>941.27</ele>
        <time>2022-10-05T13:14:06Z</time>
      </trkpt>
      <trkpt lat="45.10256" lon="4.18222">
        <ele>939.83</ele>
        <time>2022-10-05T13:14:23Z</time>
      </trkpt>
      <trkpt lat="45.10269" lon="4.18202">
        <ele>937.42</ele>
        <time>2022-10-05T13:14:41Z</time>
      </trkpt>
      <trkpt lat="45.1028" lon="4.18183">
        <ele>936.46</ele>
        <time>2022-10-05T13:14:56Z</time>
      </trkpt>
      <trkpt lat="45.10291" lon="4.18172">
        <ele>935.5</ele>
        <time>2022-10-05T13:15:10Z</time>
      </trkpt>
      <trkpt lat="45.10289" lon="4.18159">
        <ele>933.1</ele>
        <time>2022-10-05T13:15:23Z</time>
      </trkpt>
      <trkpt lat="45.10282" lon="4.18157">
        <ele>931.17</ele>
        <time>2022-10-05T13:15:32Z</time>
      </trkpt>
      <trkpt lat="45.10269" lon="4.18159">
        <ele>925.41</ele>
        <time>2022-10-05T13:15:46Z</time>
      </trkpt>
      <trkpt lat="45.10252" lon="4.18165">
        <ele>916.27</ele>
        <time>2022-10-05T13:16:03Z</time>
      </trkpt>
      <trkpt lat="45.10235" lon="4.18169">
        <ele>909.06</ele>
        <time>2022-10-05T13:16:20Z</time>
      </trkpt>
      <trkpt lat="45.10216" lon="4.18167">
        <ele>906.66</ele>
        <time>2022-10-05T13:16:35Z</time>
      </trkpt>
      <trkpt lat="45.10192" lon="4.18164">
        <ele>906.66</ele>
        <time>2022-10-05T13:16:53Z</time>
      </trkpt>
      <trkpt lat="45.10177" lon="4.18165">
        <ele>907.14</ele>
        <time>2022-10-05T13:17:06Z</time>
      </trkpt>
      <trkpt lat="45.10166" lon="4.18169">
        <ele>904.26</ele>
        <time>2022-10-05T13:17:22Z</time>
      </trkpt>
      <trkpt lat="45.1015" lon="4.18171">
        <ele>903.3</ele>
        <time>2022-10-05T13:17:37Z</time>
      </trkpt>
      <trkpt lat="45.10132" lon="4.18171">
        <ele>899.45</ele>
        <time>2022-10-05T13:17:55Z</time>
      </trkpt>
      <trkpt lat="45.10117" lon="4.18163">
        <ele>898.01</ele>
        <time>2022-10-05T13:18:11Z</time>
      </trkpt>
      <trkpt lat="45.10105" lon="4.18153">
        <ele>895.12</ele>
        <time>2022-10-05T13:18:26Z</time>
      </trkpt>
      <trkpt lat="45.101" lon="4.18146">
        <ele>893.68</ele>
        <time>2022-10-05T13:18:39Z</time>
      </trkpt>
      <trkpt lat="45.10101" lon="4.18147">
        <ele>893.68</ele>
        <time>2022-10-05T13:18:41Z</time>
      </trkpt>
      <trkpt lat="45.10117" lon="4.18147">
        <ele>891.76</ele>
        <time>2022-10-05T13:18:58Z</time>
      </trkpt>
      <trkpt lat="45.1012" lon="4.18147">
        <ele>892.24</ele>
        <time>2022-10-05T13:19:01Z</time>
      </trkpt>
      <trkpt lat="45.1014" lon="4.18136">
        <ele>896.09</ele>
        <time>2022-10-05T13:19:16Z</time>
      </trkpt>
      <trkpt lat="45.10158" lon="4.18127">
        <ele>898.97</ele>
        <time>2022-10-05T13:19:29Z</time>
      </trkpt>
      <trkpt lat="45.10172" lon="4.18121">
        <ele>898.49</ele>
        <time>2022-10-05T13:19:43Z</time>
      </trkpt>
      <trkpt lat="45.1019" lon="4.1812">
        <ele>897.05</ele>
        <time>2022-10-05T13:19:59Z</time>
      </trkpt>
      <trkpt lat="45.10202" lon="4.18118">
        <ele>893.68</ele>
        <time>2022-10-05T13:20:17Z</time>
      </trkpt>
      <trkpt lat="45.10215" lon="4.18107">
        <ele>895.61</ele>
        <time>2022-10-05T13:20:41Z</time>
      </trkpt>
      <trkpt lat="45.10233" lon="4.18097">
        <ele>899.93</ele>
        <time>2022-10-05T13:20:56Z</time>
      </trkpt>
      <trkpt lat="45.1025" lon="4.18088">
        <ele>900.89</ele>
        <time>2022-10-05T13:21:11Z</time>
      </trkpt>
      <trkpt lat="45.10271" lon="4.18081">
        <ele>901.85</ele>
        <time>2022-10-05T13:21:27Z</time>
      </trkpt>
      <trkpt lat="45.10286" lon="4.18074">
        <ele>901.37</ele>
        <time>2022-10-05T13:21:41Z</time>
      </trkpt>
      <trkpt lat="45.10299" lon="4.18065">
        <ele>901.37</ele>
        <time>2022-10-05T13:21:54Z</time>
      </trkpt>
      <trkpt lat="45.10309" lon="4.18057">
        <ele>900.89</ele>
        <time>2022-10-05T13:22:03Z</time>
      </trkpt>
      <trkpt lat="45.10328" lon="4.18039">
        <ele>898.49</ele>
        <time>2022-10-05T13:22:20Z</time>
      </trkpt>
      <trkpt lat="45.1035" lon="4.18019">
        <ele>895.61</ele>
        <time>2022-10-05T13:22:38Z</time>
      </trkpt>
      <trkpt lat="45.10367" lon="4.18001">
        <ele>893.68</ele>
        <time>2022-10-05T13:22:54Z</time>
      </trkpt>
      <trkpt lat="45.10382" lon="4.17984">
        <ele>891.76</ele>
        <time>2022-10-05T13:23:09Z</time>
      </trkpt>
      <trkpt lat="45.10401" lon="4.17966">
        <ele>890.8</ele>
        <time>2022-10-05T13:23:25Z</time>
      </trkpt>
      <trkpt lat="45.1042" lon="4.17952">
        <ele>890.8</ele>
        <time>2022-10-05T13:23:40Z</time>
      </trkpt>
      <trkpt lat="45.10438" lon="4.17931">
        <ele>888.88</ele>
        <time>2022-10-05T13:23:56Z</time>
      </trkpt>
      <trkpt lat="45.10449" lon="4.17919">
        <ele>886.47</ele>
        <time>2022-10-05T13:24:07Z</time>
      </trkpt>
      <trkpt lat="45.10456" lon="4.17913">
        <ele>885.99</ele>
        <time>2022-10-05T13:24:13Z</time>
      </trkpt>
      <trkpt lat="45.10466" lon="4.17908">
        <ele>884.07</ele>
        <time>2022-10-05T13:24:23Z</time>
      </trkpt>
      <trkpt lat="45.10482" lon="4.1791">
        <ele>880.22</ele>
        <time>2022-10-05T13:24:37Z</time>
      </trkpt>
      <trkpt lat="45.10499" lon="4.17907">
        <ele>880.22</ele>
        <time>2022-10-05T13:24:50Z</time>
      </trkpt>
      <trkpt lat="45.10516" lon="4.17902">
        <ele>878.3</ele>
        <time>2022-10-05T13:25:05Z</time>
      </trkpt>
      <trkpt lat="45.10534" lon="4.17893">
        <ele>875.42</ele>
        <time>2022-10-05T13:25:19Z</time>
      </trkpt>
      <trkpt lat="45.10554" lon="4.17884">
        <ele>873.01</ele>
        <time>2022-10-05T13:25:35Z</time>
      </trkpt>
      <trkpt lat="45.10566" lon="4.17877">
        <ele>872.53</ele>
        <time>2022-10-05T13:25:51Z</time>
      </trkpt>
      <trkpt lat="45.10564" lon="4.17843">
        <ele>871.09</ele>
        <time>2022-10-05T13:26:10Z</time>
      </trkpt>
      <trkpt lat="45.10562" lon="4.17833">
        <ele>870.61</ele>
        <time>2022-10-05T13:26:22Z</time>
      </trkpt>
      <trkpt lat="45.10561" lon="4.17835">
        <ele>871.09</ele>
        <time>2022-10-05T13:26:36Z</time>
      </trkpt>
      <trkpt lat="45.10557" lon="4.17818">
        <ele>866.77</ele>
        <time>2022-10-05T13:26:56Z</time>
      </trkpt>
      <trkpt lat="45.10552" lon="4.1781">
        <ele>864.36</ele>
        <time>2022-10-05T13:27:04Z</time>
      </trkpt>
      <trkpt lat="45.10537" lon="4.17789">
        <ele>862.44</ele>
        <time>2022-10-05T13:27:22Z</time>
      </trkpt>
      <trkpt lat="45.10533" lon="4.1778">
        <ele>862.44</ele>
        <time>2022-10-05T13:27:36Z</time>
      </trkpt>
      <trkpt lat="45.10526" lon="4.1777">
        <ele>866.77</ele>
        <time>2022-10-05T13:28:00Z</time>
      </trkpt>
      <trkpt lat="45.10516" lon="4.17757">
        <ele>868.69</ele>
        <time>2022-10-05T13:28:14Z</time>
      </trkpt>
      <trkpt lat="45.10503" lon="4.17742">
        <ele>866.29</ele>
        <time>2022-10-05T13:28:30Z</time>
      </trkpt>
      <trkpt lat="45.10487" lon="4.17731">
        <ele>864.36</ele>
        <time>2022-10-05T13:28:48Z</time>
      </trkpt>
      <trkpt lat="45.10469" lon="4.17721">
        <ele>862.44</ele>
        <time>2022-10-05T13:29:04Z</time>
      </trkpt>
      <trkpt lat="45.1045" lon="4.17715">
        <ele>865.8</ele>
        <time>2022-10-05T13:29:20Z</time>
      </trkpt>
      <trkpt lat="45.10434" lon="4.17708">
        <ele>871.09</ele>
        <time>2022-10-05T13:29:35Z</time>
      </trkpt>
      <trkpt lat="45.10419" lon="4.17698">
        <ele>874.94</ele>
        <time>2022-10-05T13:29:49Z</time>
      </trkpt>
      <trkpt lat="45.10407" lon="4.1769">
        <ele>877.34</ele>
        <time>2022-10-05T13:30:03Z</time>
      </trkpt>
      <trkpt lat="45.1039" lon="4.17677">
        <ele>882.15</ele>
        <time>2022-10-05T13:30:19Z</time>
      </trkpt>
      <trkpt lat="45.10377" lon="4.17664">
        <ele>883.59</ele>
        <time>2022-10-05T13:30:35Z</time>
      </trkpt>
      <trkpt lat="45.10367" lon="4.17657">
        <ele>883.11</ele>
        <time>2022-10-05T13:30:48Z</time>
      </trkpt>
      <trkpt lat="45.10363" lon="4.17657">
        <ele>885.03</ele>
        <time>2022-10-05T13:31:02Z</time>
      </trkpt>
      <trkpt lat="45.10361" lon="4.17657">
        <ele>891.28</ele>
        <time>2022-10-05T13:31:27Z</time>
      </trkpt>
      <trkpt lat="45.10357" lon="4.17651">
        <ele>897.05</ele>
        <time>2022-10-05T13:31:47Z</time>
      </trkpt>
      <trkpt lat="45.10348" lon="4.1764">
        <ele>898.49</ele>
        <time>2022-10-05T13:32:01Z</time>
      </trkpt>
      <trkpt lat="45.10344" lon="4.1764">
        <ele>898.97</ele>
        <time>2022-10-05T13:32:18Z</time>
      </trkpt>
      <trkpt lat="45.1034" lon="4.17637">
        <ele>898.01</ele>
        <time>2022-10-05T13:32:22Z</time>
      </trkpt>
      <trkpt lat="45.10321" lon="4.17622">
        <ele>894.64</ele>
        <time>2022-10-05T13:32:40Z</time>
      </trkpt>
      <trkpt lat="45.10316" lon="4.17619">
        <ele>894.16</ele>
        <time>2022-10-05T13:32:44Z</time>
      </trkpt>
      <trkpt lat="45.10296" lon="4.17605">
        <ele>893.2</ele>
        <time>2022-10-05T13:33:03Z</time>
      </trkpt>
      <trkpt lat="45.10277" lon="4.17601">
        <ele>896.09</ele>
        <time>2022-10-05T13:33:19Z</time>
      </trkpt>
      <trkpt lat="45.1027" lon="4.17596">
        <ele>903.78</ele>
        <time>2022-10-05T13:33:28Z</time>
      </trkpt>
      <trkpt lat="45.10284" lon="4.17581">
        <ele>908.58</ele>
        <time>2022-10-05T13:33:43Z</time>
      </trkpt>
      <trkpt lat="45.10294" lon="4.17575">
        <ele>909.54</ele>
        <time>2022-10-05T13:33:52Z</time>
      </trkpt>
      <trkpt lat="45.10314" lon="4.17555">
        <ele>912.91</ele>
        <time>2022-10-05T13:34:11Z</time>
      </trkpt>
      <trkpt lat="45.10329" lon="4.17535">
        <ele>914.83</ele>
        <time>2022-10-05T13:34:28Z</time>
      </trkpt>
      <trkpt lat="45.10343" lon="4.17514">
        <ele>915.79</ele>
        <time>2022-10-05T13:34:45Z</time>
      </trkpt>
      <trkpt lat="45.10355" lon="4.17493">
        <ele>915.31</ele>
        <time>2022-10-05T13:35:03Z</time>
      </trkpt>
      <trkpt lat="45.10366" lon="4.17476">
        <ele>916.75</ele>
        <time>2022-10-05T13:35:18Z</time>
      </trkpt>
      <trkpt lat="45.10379" lon="4.17458">
        <ele>920.12</ele>
        <time>2022-10-05T13:35:35Z</time>
      </trkpt>
      <trkpt lat="45.10385" lon="4.17449">
        <ele>921.56</ele>
        <time>2022-10-05T13:35:52Z</time>
      </trkpt>
      <trkpt lat="45.10387" lon="4.17444">
        <ele>920.6</ele>
        <time>2022-10-05T13:36:05Z</time>
      </trkpt>
      <trkpt lat="45.10388" lon="4.17432">
        <ele>920.12</ele>
        <time>2022-10-05T13:36:27Z</time>
      </trkpt>
      <trkpt lat="45.10379" lon="4.17427">
        <ele>917.72</ele>
        <time>2022-10-05T13:36:41Z</time>
      </trkpt>
      <trkpt lat="45.10368" lon="4.17423">
        <ele>917.72</ele>
        <time>2022-10-05T13:36:56Z</time>
      </trkpt>
      <trkpt lat="45.10366" lon="4.17412">
        <ele>923.48</ele>
        <time>2022-10-05T13:37:13Z</time>
      </trkpt>
      <trkpt lat="45.10374" lon="4.17396">
        <ele>932.14</ele>
        <time>2022-10-05T13:37:28Z</time>
      </trkpt>
      <trkpt lat="45.10382" lon="4.17388">
        <ele>932.14</ele>
        <time>2022-10-05T13:37:42Z</time>
      </trkpt>
      <trkpt lat="45.10389" lon="4.17373">
        <ele>930.69</ele>
        <time>2022-10-05T13:37:57Z</time>
      </trkpt>
      <trkpt lat="45.10395" lon="4.17356">
        <ele>933.58</ele>
        <time>2022-10-05T13:38:10Z</time>
      </trkpt>
      <trkpt lat="45.10402" lon="4.17341">
        <ele>937.42</ele>
        <time>2022-10-05T13:38:25Z</time>
      </trkpt>
      <trkpt lat="45.10405" lon="4.17329">
        <ele>938.86</ele>
        <time>2022-10-05T13:38:38Z</time>
      </trkpt>
      <trkpt lat="45.10407" lon="4.17315">
        <ele>937.9</ele>
        <time>2022-10-05T13:38:54Z</time>
      </trkpt>
      <trkpt lat="45.10409" lon="4.17295">
        <ele>935.98</ele>
        <time>2022-10-05T13:39:08Z</time>
      </trkpt>
      <trkpt lat="45.10402" lon="4.17269">
        <ele>935.02</ele>
        <time>2022-10-05T13:39:26Z</time>
      </trkpt>
      <trkpt lat="45.10392" lon="4.17255">
        <ele>936.94</ele>
        <time>2022-10-05T13:39:40Z</time>
      </trkpt>
      <trkpt lat="45.10382" lon="4.17245">
        <ele>938.38</ele>
        <time>2022-10-05T13:39:54Z</time>
      </trkpt>
      <trkpt lat="45.10371" lon="4.17238">
        <ele>935.5</ele>
        <time>2022-10-05T13:40:09Z</time>
      </trkpt>
      <trkpt lat="45.10362" lon="4.17226">
        <ele>932.14</ele>
        <time>2022-10-05T13:40:24Z</time>
      </trkpt>
      <trkpt lat="45.10348" lon="4.17204">
        <ele>935.5</ele>
        <time>2022-10-05T13:40:42Z</time>
      </trkpt>
      <trkpt lat="45.1034" lon="4.17176">
        <ele>948.96</ele>
        <time>2022-10-05T13:40:58Z</time>
      </trkpt>
      <trkpt lat="45.10335" lon="4.17164">
        <ele>952.32</ele>
        <time>2022-10-05T13:41:14Z</time>
      </trkpt>
      <trkpt lat="45.1034" lon="4.17151">
        <ele>960.49</ele>
        <time>2022-10-05T13:41:49Z</time>
      </trkpt>
      <trkpt lat="45.10331" lon="4.17143">
        <ele>962.42</ele>
        <time>2022-10-05T13:42:12Z</time>
      </trkpt>
      <trkpt lat="45.10326" lon="4.17142">
        <ele>964.34</ele>
        <time>2022-10-05T13:42:40Z</time>
      </trkpt>
      <trkpt lat="45.10325" lon="4.17144">
        <ele>964.34</ele>
        <time>2022-10-05T13:43:05Z</time>
      </trkpt>
      <trkpt lat="45.10314" lon="4.1713">
        <ele>959.53</ele>
        <time>2022-10-05T13:43:21Z</time>
      </trkpt>
      <trkpt lat="45.10308" lon="4.17124">
        <ele>960.01</ele>
        <time>2022-10-05T13:43:28Z</time>
      </trkpt>
      <trkpt lat="45.10297" lon="4.17114">
        <ele>959.53</ele>
        <time>2022-10-05T13:43:41Z</time>
      </trkpt>
      <trkpt lat="45.1028" lon="4.17113">
        <ele>951.36</ele>
        <time>2022-10-05T13:43:55Z</time>
      </trkpt>
      <trkpt lat="45.10257" lon="4.17106">
        <ele>948</ele>
        <time>2022-10-05T13:44:11Z</time>
      </trkpt>
      <trkpt lat="45.10242" lon="4.17087">
        <ele>948.96</ele>
        <time>2022-10-05T13:44:26Z</time>
      </trkpt>
      <trkpt lat="45.10232" lon="4.17074">
        <ele>944.63</ele>
        <time>2022-10-05T13:44:39Z</time>
      </trkpt>
      <trkpt lat="45.10216" lon="4.1706">
        <ele>942.23</ele>
        <time>2022-10-05T13:44:55Z</time>
      </trkpt>
      <trkpt lat="45.102" lon="4.17045">
        <ele>944.63</ele>
        <time>2022-10-05T13:45:08Z</time>
      </trkpt>
      <trkpt lat="45.10196" lon="4.1704">
        <ele>947.04</ele>
        <time>2022-10-05T13:45:12Z</time>
      </trkpt>
      <trkpt lat="45.10184" lon="4.17025">
        <ele>952.8</ele>
        <time>2022-10-05T13:45:29Z</time>
      </trkpt>
      <trkpt lat="45.10178" lon="4.17001">
        <ele>951.84</ele>
        <time>2022-10-05T13:45:46Z</time>
      </trkpt>
      <trkpt lat="45.10176" lon="4.16985">
        <ele>953.77</ele>
        <time>2022-10-05T13:45:58Z</time>
      </trkpt>
      <trkpt lat="45.10178" lon="4.1698">
        <ele>959.53</ele>
        <time>2022-10-05T13:46:21Z</time>
      </trkpt>
      <trkpt lat="45.10181" lon="4.16978">
        <ele>960.49</ele>
        <time>2022-10-05T13:47:00Z</time>
      </trkpt>
      <trkpt lat="45.10173" lon="4.16958">
        <ele>960.98</ele>
        <time>2022-10-05T13:47:20Z</time>
      </trkpt>
      <trkpt lat="45.10167" lon="4.16939">
        <ele>960.01</ele>
        <time>2022-10-05T13:47:35Z</time>
      </trkpt>
      <trkpt lat="45.10163" lon="4.16918">
        <ele>958.09</ele>
        <time>2022-10-05T13:47:48Z</time>
      </trkpt>
      <trkpt lat="45.1016" lon="4.1689">
        <ele>957.61</ele>
        <time>2022-10-05T13:48:05Z</time>
      </trkpt>
      <trkpt lat="45.10163" lon="4.16866">
        <ele>958.57</ele>
        <time>2022-10-05T13:48:21Z</time>
      </trkpt>
      <trkpt lat="45.10161" lon="4.16839">
        <ele>957.61</ele>
        <time>2022-10-05T13:48:37Z</time>
      </trkpt>
      <trkpt lat="45.10161" lon="4.16813">
        <ele>956.65</ele>
        <time>2022-10-05T13:48:53Z</time>
      </trkpt>
      <trkpt lat="45.10159" lon="4.16788">
        <ele>956.65</ele>
        <time>2022-10-05T13:49:07Z</time>
      </trkpt>
      <trkpt lat="45.10159" lon="4.16786">
        <ele>956.65</ele>
        <time>2022-10-05T13:49:08Z</time>
      </trkpt>
      <trkpt lat="45.10153" lon="4.16749">
        <ele>961.94</ele>
        <time>2022-10-05T13:49:25Z</time>
      </trkpt>
      <trkpt lat="45.10148" lon="4.16709">
        <ele>972.99</ele>
        <time>2022-10-05T13:49:44Z</time>
      </trkpt>
      <trkpt lat="45.10148" lon="4.16707">
        <ele>973.47</ele>
        <time>2022-10-05T13:49:59Z</time>
      </trkpt>
      <trkpt lat="45.10148" lon="4.16707">
        <ele>974.43</ele>
        <time>2022-10-05T13:50:28Z</time>
      </trkpt>
      <trkpt lat="45.10142" lon="4.1669">
        <ele>973.95</ele>
        <time>2022-10-05T13:50:44Z</time>
      </trkpt>
      <trkpt lat="45.10136" lon="4.1667">
        <ele>974.43</ele>
        <time>2022-10-05T13:50:58Z</time>
      </trkpt>
      <trkpt lat="45.1012" lon="4.16632">
        <ele>975.88</ele>
        <time>2022-10-05T13:51:20Z</time>
      </trkpt>
      <trkpt lat="45.10104" lon="4.16606">
        <ele>975.88</ele>
        <time>2022-10-05T13:51:39Z</time>
      </trkpt>
      <trkpt lat="45.10087" lon="4.16586">
        <ele>976.36</ele>
        <time>2022-10-05T13:51:58Z</time>
      </trkpt>
      <trkpt lat="45.10071" lon="4.16561">
        <ele>978.76</ele>
        <time>2022-10-05T13:52:17Z</time>
      </trkpt>
      <trkpt lat="45.10061" lon="4.1655">
        <ele>979.24</ele>
        <time>2022-10-05T13:52:32Z</time>
      </trkpt>
      <trkpt lat="45.10047" lon="4.1652">
        <ele>979.24</ele>
        <time>2022-10-05T13:52:51Z</time>
      </trkpt>
      <trkpt lat="45.10045" lon="4.16487">
        <ele>979.24</ele>
        <time>2022-10-05T13:53:10Z</time>
      </trkpt>
      <trkpt lat="45.10041" lon="4.16456">
        <ele>979.72</ele>
        <time>2022-10-05T13:53:28Z</time>
      </trkpt>
      <trkpt lat="45.10032" lon="4.16432">
        <ele>980.2</ele>
        <time>2022-10-05T13:53:44Z</time>
      </trkpt>
      <trkpt lat="45.10018" lon="4.16397">
        <ele>980.68</ele>
        <time>2022-10-05T13:54:04Z</time>
      </trkpt>
      <trkpt lat="45.10014" lon="4.16362">
        <ele>978.28</ele>
        <time>2022-10-05T13:54:24Z</time>
      </trkpt>
      <trkpt lat="45.1001" lon="4.16323">
        <ele>975.88</ele>
        <time>2022-10-05T13:54:45Z</time>
      </trkpt>
      <trkpt lat="45.09995" lon="4.16296">
        <ele>972.51</ele>
        <time>2022-10-05T13:55:02Z</time>
      </trkpt>
      <trkpt lat="45.0998" lon="4.16263">
        <ele>973.47</ele>
        <time>2022-10-05T13:55:21Z</time>
      </trkpt>
      <trkpt lat="45.09964" lon="4.1624">
        <ele>974.91</ele>
        <time>2022-10-05T13:55:39Z</time>
      </trkpt>
      <trkpt lat="45.09947" lon="4.16214">
        <ele>978.76</ele>
        <time>2022-10-05T13:56:00Z</time>
      </trkpt>
      <trkpt lat="45.09942" lon="4.16205">
        <ele>979.24</ele>
        <time>2022-10-05T13:56:15Z</time>
      </trkpt>
      <trkpt lat="45.0994" lon="4.16202">
        <ele>977.8</ele>
        <time>2022-10-05T13:56:30Z</time>
      </trkpt>
      <trkpt lat="45.0994" lon="4.16201">
        <ele>976.84</ele>
        <time>2022-10-05T13:56:58Z</time>
      </trkpt>
      <trkpt lat="45.0994" lon="4.162">
        <ele>977.8</ele>
        <time>2022-10-05T13:57:15Z</time>
      </trkpt>
      <trkpt lat="45.09941" lon="4.16191">
        <ele>977.8</ele>
        <time>2022-10-05T13:57:20Z</time>
      </trkpt>
      <trkpt lat="45.09939" lon="4.16158">
        <ele>974.43</ele>
        <time>2022-10-05T13:57:39Z</time>
      </trkpt>
      <trkpt lat="45.09933" lon="4.16131">
        <ele>970.11</ele>
        <time>2022-10-05T13:57:55Z</time>
      </trkpt>
      <trkpt lat="45.09929" lon="4.16111">
        <ele>968.67</ele>
        <time>2022-10-05T13:58:07Z</time>
      </trkpt>
      <trkpt lat="45.09927" lon="4.16106">
        <ele>967.22</ele>
        <time>2022-10-05T13:58:11Z</time>
      </trkpt>
      <trkpt lat="45.09923" lon="4.16085">
        <ele>964.82</ele>
        <time>2022-10-05T13:58:25Z</time>
      </trkpt>
      <trkpt lat="45.09916" lon="4.16067">
        <ele>964.82</ele>
        <time>2022-10-05T13:58:40Z</time>
      </trkpt>
      <trkpt lat="45.09911" lon="4.16046">
        <ele>963.38</ele>
        <time>2022-10-05T13:58:53Z</time>
      </trkpt>
      <trkpt lat="45.09902" lon="4.1602">
        <ele>962.42</ele>
        <time>2022-10-05T13:59:09Z</time>
      </trkpt>
      <trkpt lat="45.09898" lon="4.15989">
        <ele>959.53</ele>
        <time>2022-10-05T13:59:27Z</time>
      </trkpt>
      <trkpt lat="45.09896" lon="4.15969">
        <ele>955.21</ele>
        <time>2022-10-05T13:59:44Z</time>
      </trkpt>
      <trkpt lat="45.09898" lon="4.15957">
        <ele>953.77</ele>
        <time>2022-10-05T13:59:53Z</time>
      </trkpt>
      <trkpt lat="45.09903" lon="4.15943">
        <ele>951.84</ele>
        <time>2022-10-05T14:00:01Z</time>
      </trkpt>
      <trkpt lat="45.09911" lon="4.15931">
        <ele>951.36</ele>
        <time>2022-10-05T14:00:10Z</time>
      </trkpt>
      <trkpt lat="45.09933" lon="4.1593">
        <ele>951.84</ele>
        <time>2022-10-05T14:00:28Z</time>
      </trkpt>
      <trkpt lat="45.0995" lon="4.15919">
        <ele>951.84</ele>
        <time>2022-10-05T14:00:45Z</time>
      </trkpt>
      <trkpt lat="45.09965" lon="4.15908">
        <ele>956.65</ele>
        <time>2022-10-05T14:01:02Z</time>
      </trkpt>
      <trkpt lat="45.09978" lon="4.159">
        <ele>956.17</ele>
        <time>2022-10-05T14:01:15Z</time>
      </trkpt>
      <trkpt lat="45.09995" lon="4.1589">
        <ele>956.65</ele>
        <time>2022-10-05T14:01:30Z</time>
      </trkpt>
      <trkpt lat="45.10017" lon="4.15883">
        <ele>960.98</ele>
        <time>2022-10-05T14:01:46Z</time>
      </trkpt>
      <trkpt lat="45.10034" lon="4.15877">
        <ele>963.86</ele>
        <time>2022-10-05T14:02:01Z</time>
      </trkpt>
      <trkpt lat="45.10054" lon="4.1588">
        <ele>960.98</ele>
        <time>2022-10-05T14:02:17Z</time>
      </trkpt>
      <trkpt lat="45.10057" lon="4.15878">
        <ele>961.46</ele>
        <time>2022-10-05T14:02:20Z</time>
      </trkpt>
      <trkpt lat="45.10063" lon="4.15872">
        <ele>961.46</ele>
        <time>2022-10-05T14:02:26Z</time>
      </trkpt>
      <trkpt lat="45.10067" lon="4.15862">
        <ele>960.98</ele>
        <time>2022-10-05T14:02:33Z</time>
      </trkpt>
      <trkpt lat="45.10077" lon="4.15844">
        <ele>960.01</ele>
        <time>2022-10-05T14:02:47Z</time>
      </trkpt>
      <trkpt lat="45.10079" lon="4.15842">
        <ele>960.01</ele>
        <time>2022-10-05T14:02:49Z</time>
      </trkpt>
      <trkpt lat="45.10083" lon="4.15839">
        <ele>960.98</ele>
        <time>2022-10-05T14:02:52Z</time>
      </trkpt>
      <trkpt lat="45.101" lon="4.15833">
        <ele>965.3</ele>
        <time>2022-10-05T14:03:07Z</time>
      </trkpt>
      <trkpt lat="45.10129" lon="4.15831">
        <ele>969.15</ele>
        <time>2022-10-05T14:03:29Z</time>
      </trkpt>
      <trkpt lat="45.10147" lon="4.1583">
        <ele>971.07</ele>
        <time>2022-10-05T14:03:45Z</time>
      </trkpt>
      <trkpt lat="45.10171" lon="4.15831">
        <ele>972.51</ele>
        <time>2022-10-05T14:04:04Z</time>
      </trkpt>
      <trkpt lat="45.10198" lon="4.15831">
        <ele>977.8</ele>
        <time>2022-10-05T14:04:23Z</time>
      </trkpt>
      <trkpt lat="45.10221" lon="4.15826">
        <ele>979.72</ele>
        <time>2022-10-05T14:04:42Z</time>
      </trkpt>
      <trkpt lat="45.10242" lon="4.15812">
        <ele>980.2</ele>
        <time>2022-10-05T14:05:01Z</time>
      </trkpt>
      <trkpt lat="45.10248" lon="4.15786">
        <ele>982.6</ele>
        <time>2022-10-05T14:05:17Z</time>
      </trkpt>
      <trkpt lat="45.10243" lon="4.15752">
        <ele>985.01</ele>
        <time>2022-10-05T14:05:36Z</time>
      </trkpt>
      <trkpt lat="45.10244" lon="4.15723">
        <ele>986.45</ele>
        <time>2022-10-05T14:05:54Z</time>
      </trkpt>
      <trkpt lat="45.10242" lon="4.15694">
        <ele>990.3</ele>
        <time>2022-10-05T14:06:13Z</time>
      </trkpt>
      <trkpt lat="45.10219" lon="4.15681">
        <ele>993.18</ele>
        <time>2022-10-05T14:06:31Z</time>
      </trkpt>
      <trkpt lat="45.10198" lon="4.15659">
        <ele>993.66</ele>
        <time>2022-10-05T14:06:52Z</time>
      </trkpt>
      <trkpt lat="45.10181" lon="4.15648">
        <ele>993.18</ele>
        <time>2022-10-05T14:07:08Z</time>
      </trkpt>
      <trkpt lat="45.1016" lon="4.15632">
        <ele>993.18</ele>
        <time>2022-10-05T14:07:27Z</time>
      </trkpt>
      <trkpt lat="45.10149" lon="4.15619">
        <ele>994.14</ele>
        <time>2022-10-05T14:07:42Z</time>
      </trkpt>
      <trkpt lat="45.10138" lon="4.15594">
        <ele>995.58</ele>
        <time>2022-10-05T14:07:58Z</time>
      </trkpt>
      <trkpt lat="45.10128" lon="4.15572">
        <ele>997.02</ele>
        <time>2022-10-05T14:08:15Z</time>
      </trkpt>
      <trkpt lat="45.10112" lon="4.1556">
        <ele>996.54</ele>
        <time>2022-10-05T14:08:31Z</time>
      </trkpt>
      <trkpt lat="45.10098" lon="4.15552">
        <ele>996.54</ele>
        <time>2022-10-05T14:08:47Z</time>
      </trkpt>
      <trkpt lat="45.10092" lon="4.15548">
        <ele>997.02</ele>
        <time>2022-10-05T14:08:53Z</time>
      </trkpt>
      <trkpt lat="45.10085" lon="4.15527">
        <ele>999.91</ele>
        <time>2022-10-05T14:09:09Z</time>
      </trkpt>
      <trkpt lat="45.10072" lon="4.15515">
        <ele>1000.39</ele>
        <time>2022-10-05T14:09:23Z</time>
      </trkpt>
      <trkpt lat="45.10068" lon="4.15512">
        <ele>999.91</ele>
        <time>2022-10-05T14:09:27Z</time>
      </trkpt>
      <trkpt lat="45.10067" lon="4.15506">
        <ele>998.95</ele>
        <time>2022-10-05T14:09:32Z</time>
      </trkpt>
      <trkpt lat="45.10074" lon="4.15496">
        <ele>997.02</ele>
        <time>2022-10-05T14:09:43Z</time>
      </trkpt>
      <trkpt lat="45.10091" lon="4.1548">
        <ele>998.47</ele>
        <time>2022-10-05T14:10:00Z</time>
      </trkpt>
      <trkpt lat="45.10107" lon="4.15465">
        <ele>1001.35</ele>
        <time>2022-10-05T14:10:16Z</time>
      </trkpt>
      <trkpt lat="45.1012" lon="4.15444">
        <ele>1004.23</ele>
        <time>2022-10-05T14:10:34Z</time>
      </trkpt>
      <trkpt lat="45.10123" lon="4.15411">
        <ele>1006.64</ele>
        <time>2022-10-05T14:10:54Z</time>
      </trkpt>
      <trkpt lat="45.10126" lon="4.15384">
        <ele>1010</ele>
        <time>2022-10-05T14:11:10Z</time>
      </trkpt>
      <trkpt lat="45.10134" lon="4.15356">
        <ele>1012.89</ele>
        <time>2022-10-05T14:11:28Z</time>
      </trkpt>
      <trkpt lat="45.10137" lon="4.15336">
        <ele>1013.37</ele>
        <time>2022-10-05T14:11:40Z</time>
      </trkpt>
      <trkpt lat="45.10127" lon="4.15306">
        <ele>1013.85</ele>
        <time>2022-10-05T14:11:58Z</time>
      </trkpt>
      <trkpt lat="45.10116" lon="4.15275">
        <ele>1017.21</ele>
        <time>2022-10-05T14:12:17Z</time>
      </trkpt>
      <trkpt lat="45.10104" lon="4.15249">
        <ele>1019.62</ele>
        <time>2022-10-05T14:12:35Z</time>
      </trkpt>
      <trkpt lat="45.10094" lon="4.15227">
        <ele>1020.1</ele>
        <time>2022-10-05T14:12:52Z</time>
      </trkpt>
      <trkpt lat="45.1009" lon="4.152">
        <ele>1022.5</ele>
        <time>2022-10-05T14:13:08Z</time>
      </trkpt>
      <trkpt lat="45.1009" lon="4.1517">
        <ele>1026.34</ele>
        <time>2022-10-05T14:13:25Z</time>
      </trkpt>
      <trkpt lat="45.10106" lon="4.15163">
        <ele>1026.83</ele>
        <time>2022-10-05T14:13:41Z</time>
      </trkpt>
      <trkpt lat="45.10107" lon="4.15163">
        <ele>1026.83</ele>
        <time>2022-10-05T14:13:42Z</time>
      </trkpt>
      <trkpt lat="45.10127" lon="4.15163">
        <ele>1028.75</ele>
        <time>2022-10-05T14:13:58Z</time>
      </trkpt>
      <trkpt lat="45.10149" lon="4.1516">
        <ele>1030.67</ele>
        <time>2022-10-05T14:14:16Z</time>
      </trkpt>
      <trkpt lat="45.10174" lon="4.15163">
        <ele>1031.63</ele>
        <time>2022-10-05T14:14:35Z</time>
      </trkpt>
      <trkpt lat="45.10193" lon="4.15175">
        <ele>1030.19</ele>
        <time>2022-10-05T14:14:50Z</time>
      </trkpt>
      <trkpt lat="45.1022" lon="4.15201">
        <ele>1031.63</ele>
        <time>2022-10-05T14:15:14Z</time>
      </trkpt>
      <trkpt lat="45.10241" lon="4.15204">
        <ele>1033.07</ele>
        <time>2022-10-05T14:15:32Z</time>
      </trkpt>
      <trkpt lat="45.10262" lon="4.15209">
        <ele>1034.52</ele>
        <time>2022-10-05T14:15:50Z</time>
      </trkpt>
      <trkpt lat="45.10286" lon="4.15208">
        <ele>1035.96</ele>
        <time>2022-10-05T14:16:09Z</time>
      </trkpt>
      <trkpt lat="45.10306" lon="4.15198">
        <ele>1036.92</ele>
        <time>2022-10-05T14:16:27Z</time>
      </trkpt>
      <trkpt lat="45.10325" lon="4.1519">
        <ele>1039.32</ele>
        <time>2022-10-05T14:16:46Z</time>
      </trkpt>
      <trkpt lat="45.10347" lon="4.15198">
        <ele>1040.28</ele>
        <time>2022-10-05T14:17:03Z</time>
      </trkpt>
      <trkpt lat="45.10351" lon="4.152">
        <ele>1040.76</ele>
        <time>2022-10-05T14:17:20Z</time>
      </trkpt>
      <trkpt lat="45.10354" lon="4.15202">
        <ele>1039.32</ele>
        <time>2022-10-05T14:17:52Z</time>
      </trkpt>
      <trkpt lat="45.10352" lon="4.15202">
        <ele>1042.21</ele>
        <time>2022-10-05T14:18:27Z</time>
      </trkpt>
      <trkpt lat="45.10354" lon="4.15203">
        <ele>1042.69</ele>
        <time>2022-10-05T14:18:48Z</time>
      </trkpt>
      <trkpt lat="45.10361" lon="4.15214">
        <ele>1044.13</ele>
        <time>2022-10-05T14:19:02Z</time>
      </trkpt>
      <trkpt lat="45.1037" lon="4.15221">
        <ele>1046.05</ele>
        <time>2022-10-05T14:19:12Z</time>
      </trkpt>
      <trkpt lat="45.10379" lon="4.15225">
        <ele>1047.49</ele>
        <time>2022-10-05T14:19:28Z</time>
      </trkpt>
      <trkpt lat="45.10387" lon="4.15222">
        <ele>1049.42</ele>
        <time>2022-10-05T14:19:39Z</time>
      </trkpt>
      <trkpt lat="45.10394" lon="4.15221">
        <ele>1049.42</ele>
        <time>2022-10-05T14:19:46Z</time>
      </trkpt>
      <trkpt lat="45.10398" lon="4.15221">
        <ele>1049.42</ele>
        <time>2022-10-05T14:19:49Z</time>
      </trkpt>
      <trkpt lat="45.10408" lon="4.1522">
        <ele>1047.97</ele>
        <time>2022-10-05T14:19:59Z</time>
      </trkpt>
      <trkpt lat="45.10416" lon="4.15221">
        <ele>1047.97</ele>
        <time>2022-10-05T14:20:07Z</time>
      </trkpt>
      <trkpt lat="45.10433" lon="4.15222">
        <ele>1048.94</ele>
        <time>2022-10-05T14:20:21Z</time>
      </trkpt>
      <trkpt lat="45.10446" lon="4.15224">
        <ele>1048.94</ele>
        <time>2022-10-05T14:20:33Z</time>
      </trkpt>
      <trkpt lat="45.10466" lon="4.1523">
        <ele>1048.45</ele>
        <time>2022-10-05T14:20:48Z</time>
      </trkpt>
      <trkpt lat="45.10484" lon="4.15233">
        <ele>1050.86</ele>
        <time>2022-10-05T14:21:02Z</time>
      </trkpt>
      <trkpt lat="45.10505" lon="4.15239">
        <ele>1052.78</ele>
        <time>2022-10-05T14:21:18Z</time>
      </trkpt>
      <trkpt lat="45.10523" lon="4.1524">
        <ele>1053.74</ele>
        <time>2022-10-05T14:21:34Z</time>
      </trkpt>
      <trkpt lat="45.1054" lon="4.1524">
        <ele>1055.67</ele>
        <time>2022-10-05T14:21:48Z</time>
      </trkpt>
      <trkpt lat="45.10561" lon="4.15242">
        <ele>1055.67</ele>
        <time>2022-10-05T14:22:04Z</time>
      </trkpt>
      <trkpt lat="45.10586" lon="4.15239">
        <ele>1058.55</ele>
        <time>2022-10-05T14:22:22Z</time>
      </trkpt>
      <trkpt lat="45.10608" lon="4.15232">
        <ele>1058.55</ele>
        <time>2022-10-05T14:22:40Z</time>
      </trkpt>
      <trkpt lat="45.10633" lon="4.15228">
        <ele>1059.03</ele>
        <time>2022-10-05T14:22:59Z</time>
      </trkpt>
      <trkpt lat="45.10652" lon="4.15224">
        <ele>1057.59</ele>
        <time>2022-10-05T14:23:14Z</time>
      </trkpt>
      <trkpt lat="45.10668" lon="4.15222">
        <ele>1057.59</ele>
        <time>2022-10-05T14:23:27Z</time>
      </trkpt>
      <trkpt lat="45.10687" lon="4.15218">
        <ele>1058.55</ele>
        <time>2022-10-05T14:23:43Z</time>
      </trkpt>
      <trkpt lat="45.10691" lon="4.15216">
        <ele>1058.07</ele>
        <time>2022-10-05T14:23:47Z</time>
      </trkpt>
      <trkpt lat="45.10702" lon="4.15199">
        <ele>1055.67</ele>
        <time>2022-10-05T14:24:03Z</time>
      </trkpt>
      <trkpt lat="45.10703" lon="4.15193">
        <ele>1055.67</ele>
        <time>2022-10-05T14:24:07Z</time>
      </trkpt>
      <trkpt lat="45.10706" lon="4.15178">
        <ele>1057.59</ele>
        <time>2022-10-05T14:24:16Z</time>
      </trkpt>
      <trkpt lat="45.10712" lon="4.15166">
        <ele>1059.03</ele>
        <time>2022-10-05T14:24:24Z</time>
      </trkpt>
      <trkpt lat="45.10731" lon="4.15147">
        <ele>1060.47</ele>
        <time>2022-10-05T14:24:42Z</time>
      </trkpt>
      <trkpt lat="45.10732" lon="4.15146">
        <ele>1060.47</ele>
        <time>2022-10-05T14:24:43Z</time>
      </trkpt>
      <trkpt lat="45.10744" lon="4.15124">
        <ele>1061.91</ele>
        <time>2022-10-05T14:25:00Z</time>
      </trkpt>
      <trkpt lat="45.10761" lon="4.15105">
        <ele>1063.84</ele>
        <time>2022-10-05T14:25:18Z</time>
      </trkpt>
      <trkpt lat="45.10779" lon="4.15087">
        <ele>1063.84</ele>
        <time>2022-10-05T14:25:35Z</time>
      </trkpt>
      <trkpt lat="45.10803" lon="4.1507">
        <ele>1062.39</ele>
        <time>2022-10-05T14:25:55Z</time>
      </trkpt>
      <trkpt lat="45.10807" lon="4.15066">
        <ele>1061.91</ele>
        <time>2022-10-05T14:25:59Z</time>
      </trkpt>
      <trkpt lat="45.10811" lon="4.15063">
        <ele>1061.43</ele>
        <time>2022-10-05T14:26:03Z</time>
      </trkpt>
      <trkpt lat="45.10827" lon="4.15052">
        <ele>1060.95</ele>
        <time>2022-10-05T14:26:19Z</time>
      </trkpt>
      <trkpt lat="45.10832" lon="4.1505">
        <ele>1060.47</ele>
        <time>2022-10-05T14:26:23Z</time>
      </trkpt>
      <trkpt lat="45.10841" lon="4.15034">
        <ele>1060.47</ele>
        <time>2022-10-05T14:26:34Z</time>
      </trkpt>
      <trkpt lat="45.10856" lon="4.15014">
        <ele>1060.47</ele>
        <time>2022-10-05T14:26:50Z</time>
      </trkpt>
      <trkpt lat="45.10876" lon="4.14993">
        <ele>1059.51</ele>
        <time>2022-10-05T14:27:10Z</time>
      </trkpt>
      <trkpt lat="45.10896" lon="4.14974">
        <ele>1059.51</ele>
        <time>2022-10-05T14:27:28Z</time>
      </trkpt>
      <trkpt lat="45.10908" lon="4.14952">
        <ele>1059.03</ele>
        <time>2022-10-05T14:27:42Z</time>
      </trkpt>
      <trkpt lat="45.10923" lon="4.14934">
        <ele>1059.03</ele>
        <time>2022-10-05T14:27:57Z</time>
      </trkpt>
      <trkpt lat="45.10925" lon="4.14931">
        <ele>1059.03</ele>
        <time>2022-10-05T14:27:59Z</time>
      </trkpt>
      <trkpt lat="45.10927" lon="4.14927">
        <ele>1058.55</ele>
        <time>2022-10-05T14:28:02Z</time>
      </trkpt>
      <trkpt lat="45.10943" lon="4.14911">
        <ele>1057.11</ele>
        <time>2022-10-05T14:28:18Z</time>
      </trkpt>
      <trkpt lat="45.10961" lon="4.14897">
        <ele>1057.11</ele>
        <time>2022-10-05T14:28:33Z</time>
      </trkpt>
      <trkpt lat="45.10978" lon="4.14879">
        <ele>1059.03</ele>
        <time>2022-10-05T14:28:48Z</time>
      </trkpt>
      <trkpt lat="45.10994" lon="4.14864">
        <ele>1059.03</ele>
        <time>2022-10-05T14:29:04Z</time>
      </trkpt>
      <trkpt lat="45.10998" lon="4.14861">
        <ele>1058.07</ele>
        <time>2022-10-05T14:29:12Z</time>
      </trkpt>
      <trkpt lat="45.11" lon="4.14845">
        <ele>1056.63</ele>
        <time>2022-10-05T14:29:29Z</time>
      </trkpt>
      <trkpt lat="45.11001" lon="4.14844">
        <ele>1057.59</ele>
        <time>2022-10-05T14:29:47Z</time>
      </trkpt>
      <trkpt lat="45.11001" lon="4.14843">
        <ele>1058.55</ele>
        <time>2022-10-05T14:30:02Z</time>
      </trkpt>
      <trkpt lat="45.11002" lon="4.14831">
        <ele>1058.55</ele>
        <time>2022-10-05T14:30:10Z</time>
      </trkpt>
      <trkpt lat="45.10997" lon="4.14793">
        <ele>1057.59</ele>
        <time>2022-10-05T14:30:32Z</time>
      </trkpt>
      <trkpt lat="45.11003" lon="4.14759">
        <ele>1052.3</ele>
        <time>2022-10-05T14:30:52Z</time>
      </trkpt>
      <trkpt lat="45.11011" lon="4.14726">
        <ele>1051.82</ele>
        <time>2022-10-05T14:31:10Z</time>
      </trkpt>
      <trkpt lat="45.11029" lon="4.14695">
        <ele>1048.94</ele>
        <time>2022-10-05T14:31:31Z</time>
      </trkpt>
      <trkpt lat="45.11047" lon="4.14667">
        <ele>1046.05</ele>
        <time>2022-10-05T14:31:51Z</time>
      </trkpt>
      <trkpt lat="45.11062" lon="4.14637">
        <ele>1046.53</ele>
        <time>2022-10-05T14:32:10Z</time>
      </trkpt>
      <trkpt lat="45.11084" lon="4.1461">
        <ele>1047.49</ele>
        <time>2022-10-05T14:32:31Z</time>
      </trkpt>
      <trkpt lat="45.11106" lon="4.14584">
        <ele>1047.49</ele>
        <time>2022-10-05T14:32:52Z</time>
      </trkpt>
      <trkpt lat="45.11113" lon="4.14577">
        <ele>1047.49</ele>
        <time>2022-10-05T14:33:05Z</time>
      </trkpt>
      <trkpt lat="45.11114" lon="4.14576">
        <ele>1047.97</ele>
        <time>2022-10-05T14:33:21Z</time>
      </trkpt>
      <trkpt lat="45.11118" lon="4.14571">
        <ele>1047.97</ele>
        <time>2022-10-05T14:33:44Z</time>
      </trkpt>
      <trkpt lat="45.11115" lon="4.14537">
        <ele>1045.09</ele>
        <time>2022-10-05T14:34:03Z</time>
      </trkpt>
      <trkpt lat="45.11105" lon="4.14498">
        <ele>1043.17</ele>
        <time>2022-10-05T14:34:24Z</time>
      </trkpt>
      <trkpt lat="45.1111" lon="4.14468">
        <ele>1038.36</ele>
        <time>2022-10-05T14:34:41Z</time>
      </trkpt>
      <trkpt lat="45.1112" lon="4.14428">
        <ele>1034.04</ele>
        <time>2022-10-05T14:35:04Z</time>
      </trkpt>
      <trkpt lat="45.11138" lon="4.144">
        <ele>1031.15</ele>
        <time>2022-10-05T14:35:25Z</time>
      </trkpt>
      <trkpt lat="45.11163" lon="4.14382">
        <ele>1028.27</ele>
        <time>2022-10-05T14:35:45Z</time>
      </trkpt>
      <trkpt lat="45.11189" lon="4.14369">
        <ele>1025.38</ele>
        <time>2022-10-05T14:36:07Z</time>
      </trkpt>
      <trkpt lat="45.11213" lon="4.14363">
        <ele>1020.1</ele>
        <time>2022-10-05T14:36:26Z</time>
      </trkpt>
      <trkpt lat="45.11242" lon="4.14364">
        <ele>1015.29</ele>
        <time>2022-10-05T14:36:50Z</time>
      </trkpt>
      <trkpt lat="45.11266" lon="4.14367">
        <ele>1010</ele>
        <time>2022-10-05T14:37:11Z</time>
      </trkpt>
      <trkpt lat="45.11288" lon="4.14363">
        <ele>1005.68</ele>
        <time>2022-10-05T14:37:30Z</time>
      </trkpt>
      <trkpt lat="45.11308" lon="4.14357">
        <ele>1003.27</ele>
        <time>2022-10-05T14:37:47Z</time>
      </trkpt>
      <trkpt lat="45.11332" lon="4.14353">
        <ele>997.51</ele>
        <time>2022-10-05T14:38:06Z</time>
      </trkpt>
      <trkpt lat="45.11352" lon="4.14347">
        <ele>994.14</ele>
        <time>2022-10-05T14:38:22Z</time>
      </trkpt>
      <trkpt lat="45.1137" lon="4.14342">
        <ele>990.3</ele>
        <time>2022-10-05T14:38:38Z</time>
      </trkpt>
      <trkpt lat="45.11388" lon="4.1434">
        <ele>985.97</ele>
        <time>2022-10-05T14:38:53Z</time>
      </trkpt>
      <trkpt lat="45.11389" lon="4.1434">
        <ele>985.97</ele>
        <time>2022-10-05T14:38:54Z</time>
      </trkpt>
      <trkpt lat="45.11411" lon="4.14351">
        <ele>985.49</ele>
        <time>2022-10-05T14:39:12Z</time>
      </trkpt>
      <trkpt lat="45.11439" lon="4.14361">
        <ele>984.05</ele>
        <time>2022-10-05T14:39:32Z</time>
      </trkpt>
      <trkpt lat="45.11456" lon="4.14368">
        <ele>981.16</ele>
        <time>2022-10-05T14:39:46Z</time>
      </trkpt>
      <trkpt lat="45.11475" lon="4.14379">
        <ele>978.76</ele>
        <time>2022-10-05T14:40:02Z</time>
      </trkpt>
      <trkpt lat="45.11494" lon="4.14383">
        <ele>977.8</ele>
        <time>2022-10-05T14:40:18Z</time>
      </trkpt>
      <trkpt lat="45.11516" lon="4.14385">
        <ele>976.36</ele>
        <time>2022-10-05T14:40:35Z</time>
      </trkpt>
      <trkpt lat="45.11539" lon="4.14385">
        <ele>976.36</ele>
        <time>2022-10-05T14:40:51Z</time>
      </trkpt>
      <trkpt lat="45.11555" lon="4.14386">
        <ele>974.91</ele>
        <time>2022-10-05T14:41:05Z</time>
      </trkpt>
      <trkpt lat="45.11562" lon="4.14389">
        <ele>972.03</ele>
        <time>2022-10-05T14:41:11Z</time>
      </trkpt>
      <trkpt lat="45.11586" lon="4.14401">
        <ele>970.11</ele>
        <time>2022-10-05T14:41:29Z</time>
      </trkpt>
      <trkpt lat="45.1161" lon="4.14409">
        <ele>971.55</ele>
        <time>2022-10-05T14:41:46Z</time>
      </trkpt>
      <trkpt lat="45.11634" lon="4.14418">
        <ele>969.15</ele>
        <time>2022-10-05T14:42:03Z</time>
      </trkpt>
      <trkpt lat="45.11662" lon="4.14429">
        <ele>965.78</ele>
        <time>2022-10-05T14:42:23Z</time>
      </trkpt>
      <trkpt lat="45.11692" lon="4.14435">
        <ele>964.34</ele>
        <time>2022-10-05T14:42:44Z</time>
      </trkpt>
      <trkpt lat="45.11717" lon="4.14432">
        <ele>965.3</ele>
        <time>2022-10-05T14:43:02Z</time>
      </trkpt>
      <trkpt lat="45.11738" lon="4.14424">
        <ele>965.78</ele>
        <time>2022-10-05T14:43:17Z</time>
      </trkpt>
      <trkpt lat="45.1176" lon="4.14413">
        <ele>962.42</ele>
        <time>2022-10-05T14:43:34Z</time>
      </trkpt>
      <trkpt lat="45.11781" lon="4.14398">
        <ele>962.42</ele>
        <time>2022-10-05T14:43:51Z</time>
      </trkpt>
      <trkpt lat="45.11801" lon="4.14387">
        <ele>959.53</ele>
        <time>2022-10-05T14:44:07Z</time>
      </trkpt>
      <trkpt lat="45.11808" lon="4.14384">
        <ele>959.53</ele>
        <time>2022-10-05T14:44:11Z</time>
      </trkpt>
      <trkpt lat="45.11831" lon="4.14374">
        <ele>961.94</ele>
        <time>2022-10-05T14:44:28Z</time>
      </trkpt>
      <trkpt lat="45.11849" lon="4.14368">
        <ele>960.01</ele>
        <time>2022-10-05T14:44:43Z</time>
      </trkpt>
      <trkpt lat="45.11865" lon="4.14363">
        <ele>958.57</ele>
        <time>2022-10-05T14:44:56Z</time>
      </trkpt>
      <trkpt lat="45.11883" lon="4.14358">
        <ele>955.69</ele>
        <time>2022-10-05T14:45:09Z</time>
      </trkpt>
      <trkpt lat="45.11907" lon="4.14351">
        <ele>955.21</ele>
        <time>2022-10-05T14:45:26Z</time>
      </trkpt>
      <trkpt lat="45.11912" lon="4.1435">
        <ele>954.73</ele>
        <time>2022-10-05T14:45:30Z</time>
      </trkpt>
      <trkpt lat="45.11931" lon="4.14347">
        <ele>951.84</ele>
        <time>2022-10-05T14:45:44Z</time>
      </trkpt>
      <trkpt lat="45.11953" lon="4.14339">
        <ele>949.44</ele>
        <time>2022-10-05T14:46:00Z</time>
      </trkpt>
      <trkpt lat="45.11975" lon="4.14324">
        <ele>948</ele>
        <time>2022-10-05T14:46:18Z</time>
      </trkpt>
      <trkpt lat="45.11993" lon="4.14313">
        <ele>946.56</ele>
        <time>2022-10-05T14:46:32Z</time>
      </trkpt>
      <trkpt lat="45.12011" lon="4.143">
        <ele>945.59</ele>
        <time>2022-10-05T14:46:47Z</time>
      </trkpt>
      <trkpt lat="45.12028" lon="4.14267">
        <ele>946.56</ele>
        <time>2022-10-05T14:47:07Z</time>
      </trkpt>
      <trkpt lat="45.12026" lon="4.14244">
        <ele>946.56</ele>
        <time>2022-10-05T14:47:21Z</time>
      </trkpt>
      <trkpt lat="45.12011" lon="4.14231">
        <ele>945.59</ele>
        <time>2022-10-05T14:47:40Z</time>
      </trkpt>
      <trkpt lat="45.12006" lon="4.14226">
        <ele>943.19</ele>
        <time>2022-10-05T14:47:53Z</time>
      </trkpt>
      <trkpt lat="45.12005" lon="4.14224">
        <ele>945.11</ele>
        <time>2022-10-05T14:48:10Z</time>
      </trkpt>
    </trkseg>
  </trk>
</gpx>